[[{"header":{"parameterUnit":"m.s-1","parameterCategory":1,"la1":31.0,"la2":29.5877,"lo1":-88.7671,"lo2":-86.6584,"dy":0.0162,"dx":0.0185,"nx":115,"ny":88,"refTime":"2026-05-23T00:00:00:Z","depth":0,"parameterNumber":2,"parameterNumberName":"U-component_of_WINDS"},"data":[0.0,0.0,0.0,0.0,0.0,0.0,0.0,0.0,0.0,0.0,0.0,0.0,0.0,0.0,0.0,0.0,0.0,0.0,0.0,0.0,0.0,0.0,0.0,0.0,0.0,0.0,0.0,0.0,0.0,0.0,0.0,0.0,0.0,0.0,0.0,0.0,0.0,0.0,0.0,0.0,0.0,0.0,0.0,0.0,0.0,0.0,0.0,0.0,0.0,0.0,0.0,0.0,0.0,0.0,0.0,0.0,0.0,0.0,0.0,0.0,0.0,0.0,0.0,0.0,0.0,0.0,0.0,0.0,0.0,0.0,0.0,0.0,0.0,0.0,0.0,0.0,0.0,0.0,0.0,0.0,0.0,0.0,0.0,0.0,0.0,0.0,0.0,0.0,0.0,0.0,0.0,0.0,0.0,0.0,0.0,0.0,0.0,0.0,0.0,0.0,0.0,0.0,0.0,0.0,0.0,0.0,0.0,0.0,0.0,0.0,0.0,0.0,0.0,0.0,0.0,0.0,0.0,0.0,0.0,0.0,0.0,0.0,0.0,0.0,0.0,0.0,0.0,0.0,0.0,0.0,0.0,0.0,0.0,0.0,0.0,0.0,0.0,0.0,0.0,0.0,0.0,0.0,0.0,0.0,0.0,0.0,0.0,0.0,0.0,0.0,0.0,0.0,0.0,0.0,0.0,0.0,0.0,0.0,0.0,0.0,0.0,0.0,0.0,0.0,0.0,0.0,0.0,0.0,0.0,0.0,0.0,0.0,0.0,0.0,0.0,0.0,0.0,0.0,0.0,0.0,0.0,0.0,0.0,0.0,0.0,0.0,0.0,0.0,0.0,0.0,0.0,0.0,0.0,0.0,0.0,0.0,0.0,0.0,0.0,0.0,0.0,0.0,0.0,0.0,0.0,0.0,0.0,0.0,0.0,0.0,0.0,0.0,0.0,0.0,0.0,0.0,0.0,0.0,0.0,0.0,0.0,0.0,0.0,0.0,0.0,0.0,0.0,0.0,0.0,0.0,0.0,0.0,0.0,0.0,0.0,0.0,0.0,0.0,0.0,0.0,0.0,0.0,0.0,0.0,0.0,0.0,0.0,0.0,0.0,0.0,0.0,0.0,0.0,0.0,0.0,0.0,0.0,0.0,0.0,0.0,0.0,0.0,0.0,0.0,0.0,0.0,0.0,0.0,0.0,0.0,0.0,0.0,0.0,0.0,0.0,0.0,0.0,0.0,0.0,0.0,0.0,0.0,0.0,0.0,0.0,0.0,0.0,0.0,0.0,0.0,0.0,0.0,0.0,0.0,0.0,0.0,0.0,0.0,0.0,0.0,0.0,0.0,0.0,0.0,0.0,0.0,0.0,0.0,0.0,0.0,0.0,0.0,0.0,0.0,0.0,0.0,0.0,0.0,0.0,0.0,0.0,0.0,0.0,0.0,0.0,0.0,0.0,0.0,0.0,0.0,0.0,0.0,0.0,0.0,0.0,0.0,0.0,0.0,0.0,0.0,0.0,0.0,0.0,0.0,0.0,0.0,0.0,0.0,0.0,0.0,0.0,0.0,0.0,0.0,0.0,0.0,0.0,0.0,0.0,0.0,0.0,0.0,0.0,0.0,0.0,0.0,0.0,0.0,0.0,0.0,0.0,0.0,0.0,0.0,0.0,0.0,0.0,0.0,0.0,0.0,0.0,0.0,0.0,0.0,0.0,0.0,0.0,0.0,0.0,0.0,0.0,0.0,0.0,0.0,0.0,0.0,0.0,0.0,0.0,0.0,0.0,0.0,0.0,0.0,0.0,0.0,0.0,0.0,0.0,0.0,0.0,0.0,0.0,0.0,0.0,0.0,0.0,0.0,0.0,0.0,0.0,0.0,0.0,0.0,0.0,0.0,0.0,0.0,0.0,0.0,0.0,0.0,0.0,0.0,0.0,0.0,0.0,0.0,0.0,0.0,0.0,0.0,0.0,0.0,0.0,0.0,0.0,0.0,0.0,0.0,0.0,0.0,0.0,0.0,0.0,0.0,0.0,0.0,0.0,0.0,0.0,0.0,0.0,0.0,0.0,0.0,0.0,0.0,0.0,0.0,0.0,0.0,0.0,0.0,0.0,0.0,0.0,0.0,0.0,0.0,0.0,0.0,0.0,0.0,0.0,0.0,0.0,0.0,0.0,0.0,0.0,0.0,0.0,0.0,0.0,0.0,0.0,0.0,0.0,0.0,0.0,0.0,0.0,0.0,0.0,0.0,0.0,0.0,0.0,0.0,0.0,0.0,0.0,0.0,0.0,0.0,0.0,0.0,0.0,0.0,0.0,0.0,0.0,0.0,0.0,0.0,0.0,0.0,0.0,0.0,0.0,0.0,0.0,0.0,0.0,0.0,0.0,0.0,0.0,0.0,0.0,0.0,0.0,0.0,0.0,0.0,0.0,0.0,0.0,0.0,0.0,0.0,0.0,0.0,0.0,0.0,0.0,0.0,0.0,0.0,0.0,0.0,0.0,0.0,0.0,0.0,0.0,0.0,0.0,0.0,0.0,0.0,0.0,0.0,0.0,0.0,0.0,0.0,0.0,0.0,0.0,0.0,0.0,0.0,0.0,0.0,0.0,0.0,0.0,0.0,0.0,0.0,0.0,0.0,0.0,0.0,0.0,0.0,0.0,0.0,0.0,0.0,0.0,0.0,0.0,0.0,0.0,0.0,0.0,0.0,0.0,0.0,0.0,0.0,0.0,0.0,0.0,0.0,0.0,0.0,0.0,0.0,0.0,0.0,0.0,0.0,0.0,0.0,0.0,0.0,0.0,0.0,0.0,0.0,0.0,0.0,0.0,0.0,0.0,0.0,0.0,0.0,0.0,0.0,0.0,0.0,0.0,0.0,0.0,0.0,0.0,0.0,0.0,0.0,0.0,0.0,0.0,0.0,0.0,0.0,0.0,0.0,0.0,0.0,0.0,0.0,0.0,0.0,0.0,0.0,0.0,0.0,0.0,0.0,0.0,0.0,0.0,0.0,0.0,0.0,0.0,0.0,0.0,0.0,0.0,0.0,0.0,0.0,0.0,0.0,0.0,0.0,0.0,0.0,0.0,0.0,0.0,0.0,0.0,0.0,0.0,0.0,0.0,0.0,0.0,0.0,0.0,0.0,0.0,0.0,0.0,0.0,0.0,0.0,0.0,0.0,0.0,0.0,0.0,0.0,0.0,0.0,0.0,0.0,0.0,0.0,0.0,0.0,0.0,0.0,0.0,0.0,0.0,0.0,0.0,0.0,0.0,0.0,0.0,0.0,0.0,0.0,0.0,0.0,0.0,0.0,0.0,0.0,0.0,0.0,0.0,0.0,0.0,0.0,0.0,0.0,0.0,0.0,0.0,0.0,0.0,0.0,0.0,0.0,0.0,0.0,0.0,0.0,0.0,0.0,0.0,0.0,0.0,0.0,0.0,0.0,0.0,0.0,0.0,0.0,0.0,0.0,0.0,0.0,0.0,0.0,0.0,0.0,0.0,0.0,0.0,0.0,0.0,0.0,0.0,0.0,0.0,0.0,0.0,0.0,0.0,0.0,0.0,0.0,0.0,0.0,0.0,0.0,0.0,0.0,0.0,0.0,0.0,0.0,0.0,0.0,0.0,0.0,0.0,0.0,0.0,0.0,0.0,0.0,0.0,0.0,0.0,0.0,0.0,0.0,0.0,0.0,0.0,0.0,0.0,0.0,0.0,0.0,0.0,0.0,0.0,0.0,0.0,0.0,0.0,0.0,0.0,0.0,0.0,0.0,0.0,0.0,0.0,0.0,0.0,0.0,0.0,0.0,0.0,0.0,0.0,0.0,0.0,0.0,0.0,0.0,0.0,0.0,0.0,0.0,0.0,0.0,0.0,0.0,0.0,0.0,0.0,0.0,0.0,0.0,0.0,0.0,0.0,0.0,0.0,0.0,0.0,0.0,0.0,0.0,0.0,0.0,0.0,0.0,0.0,0.0,0.0,0.0,0.0,0.0,0.0,0.0,0.0,0.0,0.0,0.0,0.0,0.0,0.0,0.0,0.0,0.0,0.0,0.0,0.0,0.0,0.0,0.0,0.0,0.0,0.0,0.0,0.0,0.0,0.0,0.0,0.0,0.0,0.0,0.0,0.0,0.0,0.0,0.0,0.0,0.0,0.0,0.0,0.0,0.0,0.0,0.0,0.0,0.0,0.0,0.0,0.0,0.0,0.0,0.0,0.0,0.0,0.0,0.0,0.0,0.0,0.0,0.0,0.0,0.0,0.0,0.0,0.0,0.0,0.0,0.0,-0.3825,0.0,0.0,0.0,0.0,0.0,0.0,0.0,0.0,0.0,0.0,0.0,0.0,0.0,0.0,0.0,0.0,0.0,0.0,0.0,0.0,0.0,0.0,0.0,0.0,0.0,0.0,0.0,0.0,0.0,0.0,0.0,0.0,0.0,0.0,0.0,0.0,0.0,0.0,0.0,0.0,0.0,0.0,0.0,0.0,0.0,0.0,0.0,0.0,0.0,0.0,0.0,0.0,0.0,0.0,0.0,0.0,0.0,0.0,0.0,0.0,0.0,0.0,0.0,0.0,0.0,0.0,0.0,0.0,0.0,0.0,0.0,0.0,0.0,0.0,0.0,0.0,0.0,0.0,0.0,0.0,0.0,0.0,0.0,0.0,0.0,0.0,0.0,0.0,0.0,0.0,0.0,0.0,0.0,0.0,0.0,0.0,0.0,0.0,0.0,0.0,0.0,0.0,0.0,0.0,0.0,0.0,0.0,0.0,0.0,0.0,-0.3862,-0.3858,-0.3858,-0.3855,-0.3869,0.0,0.0,0.0,0.0,0.0,0.0,0.0,0.0,0.0,0.0,0.0,0.0,0.0,0.0,0.0,0.0,0.0,0.0,0.0,0.0,0.0,0.0,0.0,0.0,0.0,0.0,0.0,0.0,0.0,0.0,0.0,0.0,0.0,0.0,0.0,0.0,0.0,0.0,0.0,0.0,0.0,0.0,0.0,0.0,0.0,0.0,0.0,0.0,0.0,0.0,0.0,0.0,0.0,0.0,0.0,0.0,0.0,0.0,0.0,0.0,0.0,0.0,0.0,0.0,0.0,0.0,0.0,0.0,0.0,0.0,0.0,0.0,0.0,0.0,0.0,0.0,0.0,0.0,0.0,0.0,0.0,0.0,0.0,0.0,0.0,0.0,0.0,0.0,0.0,0.0,0.0,0.0,0.0,0.0,0.0,0.0,0.0,0.0,0.0,0.0,0.0,0.0,0.0,0.0,0.0,0.0,0.0,0.0,0.0,0.0,0.0,0.0,-0.4123,-0.4201,-0.4376,0.0,0.0,0.0,0.0,0.0,0.0,0.0,0.0,0.0,0.0,0.0,0.0,0.0,0.0,0.0,0.0,0.0,0.0,0.0,0.0,0.0,0.0,0.0,0.0,0.0,0.0,0.0,0.0,0.0,0.0,0.0,0.0,0.0,0.0,0.0,0.0,0.0,0.0,0.0,0.0,0.0,0.0,0.0,0.0,0.0,0.0,0.0,0.0,0.0,0.0,0.0,0.0,0.0,0.0,0.0,0.0,0.0,0.0,0.0,0.0,0.0,0.0,0.0,0.0,0.0,0.0,0.0,0.0,0.0,0.0,0.0,0.0,0.0,0.0,0.0,0.0,0.0,0.0,0.0,0.0,0.0,0.0,0.0,0.0,0.0,0.0,0.0,0.0,0.0,0.0,0.0,0.0,0.0,0.0,0.0,0.0,0.0,0.0,0.0,0.0,0.0,0.0,0.0,0.0,0.0,0.0,0.0,0.0,0.0,0.0,-0.4186,-0.4784,-0.4818,0.0,-0.5659,0.0,0.0,0.0,0.0,0.0,0.0,0.0,0.0,0.0,0.0,0.0,0.0,0.0,0.0,0.0,0.0,0.0,0.0,0.0,0.0,0.0,0.0,0.0,0.0,0.0,0.0,0.0,0.0,0.0,0.0,0.0,0.0,0.0,0.0,0.0,0.0,0.0,0.0,0.0,0.0,0.0,0.0,0.0,0.0,0.0,0.0,0.0,0.0,0.0,0.0,0.0,0.0,0.0,0.0,0.0,0.0,0.0,0.0,0.0,0.0,0.0,0.0,0.0,0.0,0.0,0.0,0.0,0.0,0.0,0.0,0.0,0.0,0.0,0.0,0.0,0.0,0.0,0.0,0.0,0.0,0.0,0.0,0.0,0.0,0.0,0.0,0.0,0.0,0.0,0.0,0.0,0.0,0.0,0.0,0.0,0.0,0.0,0.0,0.0,0.0,0.0,0.0,0.0,0.0,0.0,0.0,0.0,0.0,0.0,0.0,-0.4821,-0.5476,-0.549,-0.5614,0.0,0.0,0.0,0.0,0.0,0.0,0.0,0.0,0.0,0.0,0.0,0.0,0.0,0.0,0.0,0.0,0.0,0.0,0.0,0.0,0.0,0.0,0.0,0.0,0.0,0.0,0.0,0.0,0.0,0.0,0.0,0.0,0.0,0.0,0.0,0.0,0.0,0.0,0.0,0.0,0.0,0.0,0.0,0.0,0.0,0.0,0.0,0.0,0.0,0.0,0.0,0.0,0.0,0.0,0.0,0.0,0.0,0.0,0.0,0.0,0.0,0.0,0.0,0.0,0.0,0.0,0.0,0.0,0.0,0.0,0.0,0.0,0.0,0.0,0.0,0.0,0.0,0.0,0.0,0.0,0.0,0.0,0.0,0.0,0.0,0.0,0.0,0.0,0.0,0.0,0.0,0.0,0.0,0.0,0.0,0.0,0.0,0.0,0.0,0.0,0.0,0.0,0.0,0.0,0.0,0.0,0.0,0.0,0.0,0.0,-0.4396,-0.5062,-0.5849,-0.5892,-0.5892,-0.5892,0.0,0.0,0.0,0.0,0.0,0.0,0.0,0.0,0.0,0.0,0.0,0.0,0.0,0.0,0.0,0.0,0.0,0.0,0.0,0.0,0.0,0.0,0.0,0.0,0.0,0.0,0.0,0.0,0.0,0.0,0.0,0.0,0.0,0.0,0.0,0.0,0.0,0.0,0.0,0.0,0.0,0.0,0.0,0.0,0.0,0.0,0.0,0.0,0.0,0.0,0.0,0.0,0.0,0.0,0.0,0.0,0.0,0.0,0.0,0.0,0.0,0.0,0.0,0.0,0.0,0.0,0.0,0.0,0.0,0.0,0.0,0.0,0.0,0.0,0.0,0.0,0.0,0.0,0.0,0.0,0.0,0.0,0.0,0.0,0.0,0.0,0.0,0.0,0.0,0.0,0.0,0.0,0.0,0.0,0.0,0.0,0.0,0.0,0.0,0.0,0.0,0.0,0.0,0.0,0.0,0.0,0.0,0.0,-0.3994,-0.405,-0.4647,-0.5853,-0.5892,-0.5892,0.0,0.0,0.0,0.0,0.0,0.0,0.0,0.0,0.0,0.0,0.0,0.0,0.0,0.0,0.0,0.0,0.0,0.0,0.0,0.0,0.0,0.0,0.0,0.0,0.0,0.0,0.0,0.0,0.0,0.0,0.0,0.0,0.0,0.0,0.0,0.0,0.0,0.0,0.0,0.0,0.0,0.0,0.0,0.0,0.0,0.0,0.0,0.0,0.0,0.0,0.0,0.0,0.0,0.0,0.0,0.0,0.0,0.0,0.0,0.0,0.0,0.0,0.0,0.0,0.0,0.0,0.0,0.0,0.0,0.0,0.0,0.0,0.0,0.0,0.0,0.0,0.0,0.0,0.0,0.0,0.0,0.0,0.0,0.0,0.0,0.0,0.0,0.0,0.0,0.0,0.0,0.0,0.0,0.0,0.0,0.0,0.0,0.0,0.0,0.0,0.0,0.0,0.0,0.0,0.0,0.0,0.0,0.0,0.0,-0.4037,-0.4795,-0.5436,-0.5883,-0.5892,-0.5689,0.0,0.0,0.0,0.0,0.0,0.0,0.0,0.0,0.0,0.0,0.0,0.0,0.0,0.0,0.0,0.0,0.0,0.0,0.0,0.0,0.0,0.0,0.0,0.0,0.0,0.0,0.0,0.0,0.0,0.0,0.0,0.0,0.0,0.0,0.0,0.0,0.0,0.0,0.0,0.0,0.0,0.0,0.0,0.0,0.0,0.0,0.0,0.0,0.0,0.0,0.0,0.0,0.0,0.0,0.0,0.0,0.0,0.0,0.0,0.0,0.0,0.0,0.0,0.0,0.0,0.0,0.0,0.0,0.0,0.0,0.0,0.0,0.0,0.0,0.0,0.0,0.0,0.0,0.0,0.0,0.0,0.0,0.0,0.0,0.0,0.0,0.0,0.0,0.0,0.0,0.0,0.0,0.0,0.0,0.0,0.0,0.0,0.0,0.0,0.0,0.0,0.0,0.0,0.0,0.0,0.0,0.0,0.0,0.0,-0.4752,0.0,-0.6285,-0.6279,-0.6052,-0.5711,0.0,0.0,0.0,0.0,0.0,0.0,0.0,0.0,0.0,0.0,0.0,0.0,0.0,0.0,0.0,0.0,0.0,0.0,0.0,0.0,0.0,0.0,0.0,0.0,0.0,0.0,0.0,0.0,0.0,0.0,0.0,0.0,0.0,0.0,0.0,0.0,0.0,0.0,0.0,0.0,0.0,0.0,0.0,0.0,0.0,0.0,0.0,0.0,0.0,0.0,0.0,0.0,0.0,0.0,0.0,0.0,0.0,0.0,0.0,0.0,0.0,0.0,0.0,0.0,0.0,0.0,0.0,0.0,0.0,0.0,0.0,0.0,0.0,0.0,0.0,0.0,0.0,0.0,0.0,0.0,0.0,0.0,0.0,0.0,0.0,0.0,0.0,0.0,0.0,0.0,0.0,0.0,0.0,0.0,0.0,0.0,0.0,0.0,0.0,0.0,0.0,0.0,0.0,0.0,0.0,0.0,0.0,0.0,-0.5568,-0.6186,-0.6804,-0.7098,-0.7092,-0.641,-0.6006,0.0,0.0,0.0,0.0,0.0,0.0,0.0,0.0,0.0,0.0,0.0,0.0,0.0,0.0,0.0,0.0,0.0,0.0,0.0,0.0,0.0,0.0,0.0,0.0,0.0,0.0,0.0,0.0,0.0,0.0,0.0,0.0,0.0,0.0,0.0,0.0,0.0,0.0,0.0,0.0,0.0,0.0,0.0,0.0,0.0,0.0,0.0,0.0,0.0,0.0,0.0,0.0,0.0,0.0,0.0,0.0,0.0,0.0,0.0,0.0,0.0,0.0,0.0,0.0,0.0,0.0,0.0,0.0,0.0,0.0,0.0,0.0,0.0,0.0,0.0,0.0,0.0,0.0,0.0,0.0,0.0,0.0,0.0,0.0,0.0,0.0,0.0,0.0,0.0,0.0,0.0,0.0,0.0,0.0,0.0,0.0,0.0,0.0,0.0,0.0,0.0,0.0,0.0,0.0,0.0,0.0,0.0,0.0,0.0,-0.713,-0.7827,-0.7921,-0.7337,-0.7047,-0.664,0.0,0.0,0.0,0.0,0.0,0.0,0.0,0.0,0.0,0.0,0.0,0.0,0.0,0.0,0.0,0.0,0.0,0.0,0.0,0.0,0.0,0.0,0.0,0.0,0.0,0.0,0.0,0.0,0.0,0.0,0.0,0.0,0.0,0.0,0.0,0.0,0.0,0.0,0.0,0.0,0.0,0.0,0.0,0.0,0.0,0.0,0.0,0.0,0.0,0.0,0.0,0.0,0.0,0.0,0.0,0.0,0.0,0.0,0.0,0.0,0.0,0.0,0.0,0.0,0.0,0.0,0.0,0.0,0.0,0.0,0.0,0.0,0.0,0.0,0.0,0.0,0.0,0.0,0.0,0.0,0.0,0.0,0.0,0.0,0.0,0.0,0.0,0.0,0.0,0.0,0.0,0.0,0.0,0.0,0.0,0.0,0.0,0.0,0.0,0.0,0.0,0.0,0.0,0.0,0.0,0.0,0.0,0.0,0.0,-0.9666,-0.9832,-0.9495,-0.8608,-0.8012,-0.7448,-0.6897,0.0,0.0,0.0,0.0,0.0,0.0,0.0,0.0,0.0,0.0,0.0,0.0,0.0,0.0,0.0,0.0,0.0,0.0,0.0,0.0,0.0,0.0,0.0,0.0,0.0,0.0,0.0,0.0,0.0,0.0,0.0,0.0,0.0,0.0,0.0,0.0,0.0,0.0,0.0,0.0,0.0,0.0,0.0,0.0,0.0,0.0,0.0,0.0,0.0,0.0,0.0,0.0,0.0,0.0,0.0,0.0,0.0,0.0,0.0,0.0,0.0,0.0,0.0,0.0,0.0,0.0,0.0,0.0,0.0,0.0,0.0,0.0,0.0,0.0,0.0,0.0,0.0,0.0,0.0,0.0,0.0,0.0,0.0,0.0,0.0,0.0,0.0,0.0,0.0,0.0,0.0,0.0,0.0,0.0,0.0,0.0,0.0,0.0,0.0,0.0,0.0,0.0,0.0,0.0,0.0,0.0,0.0,0.0,-1.3295,-1.2623,-1.1786,-1.0743,-0.9345,-0.8494,0.0,0.0,0.0,0.0,0.0,0.0,0.0,0.0,0.0,0.0,0.0,0.0,0.0,0.0,0.0,0.0,0.0,0.0,0.0,0.0,0.0,0.0,0.0,0.0,0.0,0.0,0.0,0.0,0.0,0.0,0.0,0.0,0.0,0.0,0.0,0.0,0.0,0.0,0.0,0.0,0.0,0.0,0.0,0.0,0.0,0.0,0.0,0.0,0.0,0.0,0.0,0.0,0.0,0.0,0.0,0.0,0.0,0.0,0.0,0.0,0.0,0.0,0.0,0.0,0.0,0.0,0.0,0.0,0.0,0.0,0.0,0.0,0.0,0.0,0.0,0.0,0.0,0.0,0.0,0.0,0.0,0.0,0.0,0.0,0.0,0.0,0.0,0.0,0.0,0.0,0.0,0.0,0.0,0.0,0.0,0.0,0.0,0.0,0.0,0.0,0.0,0.0,0.0,0.0,0.0,0.0,0.0,0.0,0.0,-1.3436,-1.4858,-1.4611,-1.2529,-1.1409,-1.0271,0.0,0.0,0.0,0.0,0.0,0.0,0.0,0.0,0.0,0.0,0.0,0.0,0.0,0.0,0.0,0.0,0.0,0.0,0.0,0.0,0.0,0.0,0.0,0.0,0.0,0.0,0.0,0.0,0.0,0.0,0.0,0.0,0.0,0.0,0.0,0.0,0.0,0.0,0.0,0.0,0.0,0.0,0.0,0.0,0.0,0.0,0.0,0.0,0.0,0.0,0.0,0.0,0.0,0.0,0.0,0.0,0.0,0.0,0.0,0.0,0.0,0.0,0.0,0.0,0.0,0.0,0.0,0.0,0.0,0.0,0.0,0.0,0.0,0.0,0.0,0.0,0.0,0.0,0.0,0.0,0.0,0.0,0.0,0.0,0.0,0.0,0.0,0.0,0.0,0.0,0.0,0.0,0.0,0.0,0.0,0.0,0.0,0.0,0.0,0.0,0.0,0.0,0.0,0.0,0.0,0.0,0.0,0.0,-1.3462,-1.4512,-1.6402,-1.6516,-1.4644,-1.3055,-1.1593,0.0,0.0,0.0,0.0,0.0,0.0,0.0,0.0,0.0,0.0,0.0,0.0,0.0,0.0,0.0,0.0,0.0,0.0,0.0,0.0,0.0,0.0,0.0,0.0,0.0,0.0,0.0,0.0,0.0,0.0,0.0,0.0,0.0,0.0,0.0,0.0,0.0,0.0,0.0,0.0,0.0,0.0,0.0,0.0,0.0,0.0,0.0,0.0,0.0,0.0,0.0,0.0,0.0,0.0,0.0,0.0,0.0,0.0,0.0,0.0,0.0,0.0,0.0,0.0,0.0,0.0,0.0,0.0,0.0,0.0,0.0,0.0,0.0,0.0,0.0,0.0,0.0,0.0,0.0,0.0,0.0,0.0,0.0,0.0,0.0,0.0,0.0,0.0,0.0,0.0,0.0,0.0,0.0,0.0,0.0,0.0,0.0,0.0,0.0,0.0,0.0,0.0,0.0,0.0,0.0,0.0,0.0,0.0,-1.4577,-1.6042,-1.7426,-1.7728,-1.6825,-1.4436,-1.2687,0.0,0.0,0.0,0.0,0.0,0.0,0.0,0.0,0.0,0.0,0.0,0.0,0.0,0.0,0.0,0.0,0.0,0.0,0.0,0.0,0.0,0.0,0.0,0.0,0.0,0.0,0.0,0.0,0.0,0.0,0.0,0.0,0.0,0.0,0.0,0.0,0.0,0.0,0.0,0.0,0.0,0.0,0.0,0.0,0.0,0.0,0.0,0.0,0.0,0.0,0.0,0.0,0.0,0.0,0.0,0.0,0.0,0.0,0.0,0.0,0.0,0.0,0.0,0.0,0.0,0.0,0.0,0.0,0.0,0.0,0.0,0.0,0.0,0.0,0.0,0.0,0.0,0.0,0.0,0.0,0.0,0.0,0.0,0.0,0.0,0.0,0.0,0.0,0.0,0.0,0.0,0.0,0.0,0.0,0.0,0.0,0.0,0.0,0.0,0.0,0.0,0.0,0.0,0.0,0.0,0.0,0.0,0.0,-1.5535,-1.7046,-1.7974,-1.822,-1.7786,-1.5836,-1.4077,0.0,0.0,0.0,0.0,0.0,0.0,0.0,0.0,0.0,0.0,0.0,0.0,0.0,0.0,0.0,0.0,0.0,0.0,0.0,0.0,0.0,0.0,0.0,0.0,0.0,0.0,0.0,0.0,0.0,0.0,0.0,0.0,0.0,0.0,0.0,0.0,0.0,0.0,0.0,0.0,0.0,0.0,0.0,0.0,0.0,0.0,0.0,0.0,-0.3203,0.0,0.0,0.0,0.0,0.0,0.0,0.0,0.0,0.0,0.0,0.0,0.0,0.0,0.0,0.0,0.0,0.0,0.0,0.0,0.0,0.0,0.0,0.0,0.0,0.0,0.0,0.0,0.0,0.0,0.0,0.0,0.0,0.0,0.0,0.0,0.0,0.0,0.0,0.0,0.0,0.0,0.0,0.0,0.0,0.0,0.0,0.0,0.0,0.0,0.0,0.0,0.0,0.0,0.0,0.0,0.0,0.0,0.0,0.0,-1.603,-1.754,-1.827,-1.852,-1.8243,-1.7195,-1.5624,0.0,0.0,0.0,0.0,0.0,0.0,0.0,0.0,0.0,0.0,0.0,0.0,0.0,0.0,0.0,0.0,0.0,0.0,0.0,0.0,0.0,0.0,0.0,0.0,0.0,0.0,0.0,0.0,0.0,0.0,0.0,0.0,0.0,0.0,0.0,0.0,0.0,0.0,0.0,0.0,0.0,0.0,0.0,0.0,0.0,0.0,0.0,0.0,0.0,0.0,0.0,0.0,0.0,0.0,0.0,0.0,0.0,0.0,0.0,0.0,0.0,0.0,0.0,0.0,0.0,0.0,0.0,0.0,0.0,0.0,0.0,0.0,0.0,0.0,0.0,0.0,0.0,0.0,0.0,0.0,0.0,0.0,0.0,0.0,0.0,0.0,0.0,0.0,0.0,0.0,0.0,0.0,0.0,0.0,0.0,0.0,0.0,0.0,0.0,0.0,0.0,0.0,0.0,0.0,0.0,0.0,0.0,-1.4995,-1.6685,-1.7956,-1.8788,-1.9047,-1.8735,-1.8365,-1.6931,-1.4355,0.0,0.0,0.0,0.0,0.0,0.0,0.0,0.0,0.0,0.0,0.0,0.0,0.0,0.0,0.0,0.0,0.0,0.0,0.0,0.0,0.0,0.0,0.0,0.0,0.0,0.0,0.0,0.0,0.0,0.0,0.0,0.0,0.0,0.0,0.0,0.0,0.0,0.0,-0.275,-0.3733,0.0,0.0,0.0,0.0,0.0,0.0,0.0,0.0,-0.3879,0.0,0.0,0.0,0.0,0.0,0.0,0.0,0.0,0.0,0.0,0.0,0.0,0.0,0.0,0.0,0.0,0.0,0.0,0.0,0.0,0.0,0.0,0.0,0.0,0.0,0.0,0.0,0.0,0.0,0.0,0.0,0.0,0.0,0.0,0.0,0.0,0.0,0.0,0.0,0.0,0.0,0.0,0.0,0.0,0.0,0.0,0.0,0.0,0.0,0.0,0.0,0.0,0.0,0.0,0.0,0.0,-1.3064,-1.665,-1.8631,-1.8893,-2.0264,-2.0585,-1.9787,-1.8892,-1.7232,-1.4727,0.0,0.0,0.0,0.0,0.0,0.0,0.0,0.0,0.0,0.0,0.0,0.0,0.0,0.0,0.0,0.0,0.0,0.0,0.0,0.0,0.0,0.0,0.0,0.0,0.0,0.0,0.0,0.0,0.0,0.0,0.0,0.0,0.0,0.0,0.0,0.0,0.0,0.0,0.0,-0.4833,-0.4985,0.0,0.0,0.0,0.0,0.0,0.0,0.0,0.0,-0.4253,0.0,0.0,0.0,0.0,0.0,0.0,0.0,0.0,0.0,0.0,0.0,0.0,0.0,0.0,0.0,0.0,0.0,0.0,0.0,0.0,0.0,0.0,0.0,0.0,0.0,0.0,0.0,0.0,0.0,0.0,0.0,0.0,0.0,0.0,0.0,0.0,0.0,0.0,0.0,0.0,0.0,0.0,0.0,0.0,0.0,0.0,0.0,0.0,0.0,0.0,0.0,0.0,0.0,0.0,0.0,-1.4496,-1.7574,-1.9415,-1.9835,-2.0961,-2.1116,-2.0183,-1.9173,-1.7471,0.0,0.0,0.0,0.0,0.0,0.0,0.0,0.0,0.0,0.0,0.0,0.0,0.0,0.0,0.0,0.0,0.0,0.0,0.0,0.0,0.0,0.0,0.0,0.0,0.0,0.0,0.0,0.0,0.0,0.0,0.0,0.0,0.0,0.0,0.0,0.0,0.0,0.0,0.0,0.0,-0.6123,-0.5967,-0.6868,0.0,0.0,0.0,0.0,0.0,0.0,-0.5459,-0.4909,0.0,0.0,0.0,0.0,0.0,0.0,0.0,0.0,0.0,0.0,0.0,0.0,0.0,0.0,0.0,0.0,0.0,0.0,0.0,0.0,0.0,0.0,0.0,0.0,0.0,0.0,0.0,0.0,0.0,0.0,0.0,0.0,0.0,0.0,0.0,0.0,0.0,0.0,0.0,0.0,0.0,0.0,0.0,0.0,0.0,0.0,0.0,0.0,0.0,0.0,0.0,0.0,0.0,0.0,0.0,-1.549,-1.8338,-2.0047,-2.0537,-2.1614,-2.168,-2.058,-1.9443,-1.7616,0.0,0.0,0.0,0.0,0.0,0.0,0.0,0.0,0.0,0.0,0.0,0.0,0.0,0.0,0.0,0.0,0.0,0.0,0.0,0.0,0.0,0.0,0.0,0.0,0.0,0.0,0.0,0.0,0.0,0.0,0.0,0.0,0.0,0.0,0.0,0.0,0.0,0.0,0.0,0.0,0.0,-0.7267,-0.7465,-0.8457,0.0,0.0,0.0,0.0,-0.9302,-0.7086,0.0,0.0,0.0,0.0,0.0,0.0,0.0,0.0,0.0,0.0,0.0,0.0,0.0,0.0,0.0,0.0,0.0,0.0,0.0,0.0,0.0,0.0,0.0,0.0,0.0,0.0,0.0,0.0,0.0,0.0,0.0,0.0,0.0,0.0,0.0,0.0,0.0,0.0,0.0,0.0,0.0,0.0,0.0,0.0,0.0,0.0,0.0,0.0,0.0,0.0,0.0,0.0,0.0,0.0,0.0,0.0,-1.4855,-1.9276,-2.1271,-2.0723,-2.2694,-2.3059,-2.1489,-1.9909,-1.7551,0.0,0.0,0.0,0.0,0.0,0.0,0.0,0.0,0.0,0.0,0.0,0.0,0.0,0.0,0.0,0.0,0.0,0.0,0.0,0.0,0.0,0.0,0.0,0.0,0.0,0.0,0.0,0.0,0.0,0.0,0.0,0.0,0.0,0.0,0.0,0.0,0.0,0.0,0.0,0.0,0.0,-0.9001,-0.9028,-0.9132,-0.8957,0.0,0.0,-1.2726,-0.9902,-0.901,0.0,0.0,0.0,0.0,0.0,0.0,0.0,0.0,0.0,0.0,0.0,0.0,0.0,0.0,0.0,0.0,0.0,0.0,0.0,0.0,0.0,0.0,0.0,0.0,0.0,0.0,0.0,0.0,0.0,0.0,0.0,0.0,0.0,0.0,0.0,0.0,0.0,0.0,0.0,0.0,0.0,0.0,0.0,0.0,0.0,0.0,0.0,0.0,0.0,0.0,0.0,0.0,0.0,0.0,0.0,-1.4762,-1.6107,-1.9941,-2.176,-2.14,-2.2749,-2.2896,-2.1751,-2.0101,-1.7645,0.0,0.0,0.0,0.0,0.0,0.0,0.0,0.0,0.0,0.0,0.0,0.0,0.0,0.0,0.0,0.0,0.0,0.0,0.0,0.0,0.0,0.0,0.0,0.0,0.0,0.0,0.0,0.0,0.0,0.0,0.0,0.0,0.0,0.0,0.0,0.0,0.0,0.0,0.0,0.0,0.0,0.0,-1.0652,-0.9922,0.0,0.0,0.0,-1.2751,-1.2303,0.0,0.0,0.0,0.0,0.0,0.0,0.0,0.0,0.0,0.0,0.0,0.0,0.0,0.0,0.0,0.0,0.0,0.0,0.0,0.0,0.0,0.0,0.0,0.0,0.0,0.0,0.0,0.0,0.0,0.0,0.0,0.0,0.0,0.0,0.0,0.0,0.0,0.0,0.0,0.0,0.0,0.0,0.0,0.0,0.0,0.0,0.0,0.0,0.0,0.0,0.0,0.0,0.0,0.0,0.0,0.0,0.0,-1.7448,-2.0473,-2.21,-2.2233,-2.2922,-2.2832,-2.1812,-2.0358,0.0,0.0,0.0,0.0,0.0,0.0,0.0,0.0,0.0,0.0,0.0,0.0,0.0,0.0,0.0,0.0,0.0,0.0,0.0,0.0,0.0,0.0,0.0,0.0,0.0,0.0,0.0,0.0,0.0,0.0,0.0,0.0,0.0,0.0,0.0,0.0,0.0,0.0,0.0,0.0,0.0,0.0,-1.1398,-1.1766,-1.1126,-1.0581,0.0,0.0,-1.2456,-1.404,-1.2287,-1.0374,0.0,0.0,0.0,0.0,0.0,0.0,0.0,0.0,0.0,0.0,0.0,0.0,0.0,0.0,0.0,0.0,0.0,0.0,0.0,0.0,0.0,0.0,0.0,0.0,0.0,0.0,0.0,0.0,0.0,0.0,0.0,0.0,0.0,0.0,0.0,0.0,0.0,0.0,0.0,0.0,0.0,0.0,0.0,0.0,0.0,0.0,0.0,0.0,0.0,0.0,0.0,0.0,0.0,0.0,-1.6053,-1.8388,-2.0844,-2.2412,-2.3108,-2.3777,-2.3382,-2.1831,-2.0898,-1.8831,0.0,0.0,0.0,0.0,0.0,0.0,0.0,0.0,0.0,0.0,0.0,0.0,0.0,0.0,0.0,0.0,0.0,0.0,0.0,0.0,0.0,0.0,0.0,0.0,0.0,0.0,0.0,0.0,0.0,0.0,0.0,0.0,0.0,0.0,0.0,0.0,0.0,0.0,0.0,0.0,0.0,-1.2209,-1.1942,-1.3082,-1.3955,0.0,-1.2786,-1.2454,-1.4053,-1.4113,-1.2937,-0.9969,0.0,0.0,0.0,0.0,0.0,0.0,0.0,0.0,0.0,0.0,0.0,0.0,0.0,0.0,0.0,0.0,0.0,0.0,0.0,0.0,0.0,0.0,0.0,0.0,0.0,0.0,0.0,0.0,0.0,0.0,0.0,0.0,0.0,0.0,0.0,0.0,0.0,0.0,0.0,0.0,0.0,0.0,0.0,0.0,0.0,0.0,0.0,0.0,0.0,0.0,0.0,0.0,0.0,-1.6166,-1.862,-2.0958,-2.2533,-2.3215,-2.3399,-2.2942,-2.1812,-2.0951,-1.8935,0.0,0.0,0.0,0.0,0.0,0.0,0.0,0.0,0.0,0.0,0.0,0.0,0.0,0.0,0.0,0.0,0.0,0.0,0.0,0.0,0.0,0.0,0.0,0.0,0.0,0.0,0.0,0.0,0.0,0.0,0.0,0.0,0.0,0.0,0.0,0.0,0.0,0.0,0.0,0.0,0.0,-1.2681,-1.3097,-1.3864,0.0,0.0,-1.4596,-1.4023,-1.1701,-1.3009,-1.3226,-1.0019,-0.9334,0.0,0.0,0.0,0.0,0.0,0.0,0.0,0.0,0.0,0.0,0.0,0.0,0.0,0.0,0.0,0.0,0.0,0.0,0.0,0.0,0.0,0.0,0.0,0.0,0.0,0.0,0.0,0.0,0.0,0.0,0.0,0.0,0.0,0.0,0.0,0.0,0.0,0.0,0.0,0.0,0.0,0.0,0.0,0.0,0.0,0.0,0.0,0.0,0.0,0.0,0.0,0.0,-1.6358,-1.9051,-2.1155,-2.2696,-2.3686,-2.3508,-2.2886,-2.1848,-2.1206,-1.9316,0.0,0.0,0.0,0.0,0.0,0.0,0.0,0.0,0.0,0.0,0.0,0.0,0.0,0.0,0.0,0.0,0.0,0.0,0.0,0.0,0.0,0.0,0.0,0.0,0.0,0.0,0.0,0.0,-0.0204,0.0,0.0,0.0,0.0,0.0,0.0,0.0,0.0,0.0,0.0,0.0,0.0,-1.3304,-1.3931,-1.5128,-1.5899,-1.5807,-1.6718,-1.6261,-1.2888,-1.3063,-1.2647,-0.9942,0.0,0.0,0.0,0.0,0.0,0.0,0.0,0.0,0.0,0.0,0.0,0.0,0.0,0.0,0.0,0.0,0.0,0.0,0.0,0.0,0.0,0.0,0.0,0.0,0.0,0.0,0.0,-1.1187,0.0,0.0,-1.0111,0.0,0.0,0.0,0.0,0.0,0.0,0.0,0.0,0.0,0.0,0.0,0.0,0.0,0.0,0.0,0.0,0.0,0.0,0.0,0.0,0.0,0.0,-1.6731,-1.9949,-2.1524,-2.3083,-2.4587,-2.4408,-2.3464,-2.1881,-2.1765,-2.0193,-1.6834,0.0,0.0,0.0,0.0,0.0,0.0,0.0,0.0,0.0,0.0,0.0,0.0,0.0,0.0,0.0,0.0,0.0,0.0,0.0,0.0,0.0,0.0,0.0,0.0,0.0,0.0,-0.1703,-0.0645,0.0,0.0,0.0,0.0,0.0,0.0,0.0,0.0,0.0,0.0,-1.4349,-1.4295,-1.4218,-1.4371,-1.7095,-1.9058,-1.9106,-1.912,-1.9051,-1.8741,-1.5001,-1.1386,0.0,0.0,0.0,0.0,0.0,0.0,0.0,0.0,0.0,0.0,0.0,0.0,0.0,0.0,0.0,0.0,0.0,0.0,0.0,0.0,0.0,0.0,0.0,0.0,0.0,0.0,0.0,-1.4142,-1.387,0.0,0.0,0.0,0.0,0.0,0.0,0.0,0.0,0.0,0.0,0.0,-2.1077,-2.1099,0.0,0.0,0.0,0.0,0.0,0.0,0.0,0.0,0.0,0.0,0.0,0.0,-1.8186,-2.0842,-2.2439,-2.3726,-2.4723,-2.451,-2.357,-2.1912,-2.1818,-1.9965,-1.606,0.0,0.0,0.0,0.0,0.0,0.0,0.0,0.0,0.0,0.0,0.0,0.0,0.0,0.0,0.0,0.0,0.0,0.0,0.0,0.0,0.0,0.0,0.0,0.0,0.0,-0.3766,0.0,0.0,0.0,0.0,0.0,0.0,0.0,0.0,0.0,0.0,0.0,-1.5029,-1.7551,-1.68,-1.6395,-1.7482,-1.857,-1.9279,0.0,0.0,0.0,0.0,0.0,0.0,0.0,0.0,0.0,0.0,0.0,0.0,0.0,0.0,-1.255,-1.2556,-1.0204,-0.8672,-1.0091,0.0,0.0,0.0,0.0,0.0,0.0,0.0,0.0,0.0,0.0,0.0,0.0,0.0,0.0,-1.7275,-1.7019,-1.7006,0.0,0.0,0.0,0.0,0.0,0.0,0.0,0.0,-2.2275,-2.301,-2.4082,-2.3813,-2.3655,0.0,-2.3616,-2.2042,0.0,0.0,0.0,0.0,0.0,0.0,0.0,0.0,-1.9211,-2.1374,-2.2975,-2.4119,-2.4816,-2.4607,-2.3793,-2.2393,-2.143,-1.9243,-1.5666,-1.4692,-1.319,0.0,0.0,0.0,0.0,0.0,0.0,0.0,0.0,0.0,0.0,0.0,0.0,0.0,0.0,0.0,0.0,0.0,0.0,0.0,0.0,0.0,0.0,0.0,-0.4075,0.0,0.0,0.0,0.0,0.0,0.0,0.0,0.0,0.0,-1.1311,-1.3642,-1.6287,-1.9212,-1.858,-1.8208,-1.9158,0.0,0.0,0.0,0.0,0.0,0.0,0.0,-1.5864,-1.3312,-1.4556,-1.5465,-1.4056,-1.3373,-1.3285,-1.4128,0.0,0.0,-1.4536,-1.2548,-1.143,-1.2706,-1.2142,-1.1613,-1.2236,-1.2649,-1.2933,0.0,0.0,0.0,0.0,0.0,0.0,0.0,0.0,-2.1411,-2.1311,0.0,-2.056,0.0,0.0,0.0,0.0,-1.9067,-1.9126,0.0,0.0,-2.4509,-2.5067,-2.65,-2.5769,-2.5385,-2.5365,-2.5385,-2.4909,-2.3894,-2.0719,0.0,0.0,0.0,0.0,0.0,0.0,-1.986,-2.1602,-2.3167,-2.4274,-2.4974,-2.4746,-2.4118,-2.3108,-2.0694,-1.8225,-1.5827,-1.4888,-1.3599,-1.1865,-1.0279,0.0,0.0,0.0,0.0,0.0,0.0,0.0,0.0,0.0,0.0,0.0,0.0,0.0,0.0,0.0,0.0,0.0,0.0,0.0,0.0,-0.4669,0.0,0.0,0.0,0.0,0.0,0.0,0.0,0.0,0.0,0.0,-1.4566,-1.5783,-1.7219,-1.9423,0.0,0.0,0.0,0.0,-1.9315,-1.9389,-1.9389,-1.9389,-1.9315,-1.7939,-1.741,-1.8926,0.0,0.0,-1.6345,-1.6522,-1.6023,-1.4762,-1.7264,-1.849,-1.4926,-1.4227,-1.4295,-1.4714,-1.4717,-1.4808,-1.4966,-1.5468,-1.5853,-2.6669,0.0,0.0,0.0,0.0,-2.3499,-2.3461,-2.3171,-2.4041,-2.4289,-2.4034,-2.4034,0.0,0.0,0.0,0.0,0.0,0.0,-2.3398,-2.6174,-2.5981,-2.6472,-2.7505,-2.7274,-2.7159,-2.714,-2.7159,-2.6409,-2.4962,-2.3957,-2.2311,-2.0064,0.0,0.0,0.0,0.0,-2.2219,-2.3271,-2.4345,-2.4952,-2.5082,-2.4823,-2.3889,-2.2229,-2.0866,-1.9285,-1.7456,-1.6598,-1.5377,-1.3702,-1.3088,0.0,0.0,0.0,0.0,0.0,0.0,0.0,0.0,0.0,0.0,0.0,0.0,0.0,0.0,0.0,0.0,0.0,0.0,0.0,-0.7967,-0.7105,-0.5945,0.0,0.0,0.0,0.0,0.0,0.0,0.0,0.0,0.0,-1.7795,-1.8457,-1.9311,0.0,0.0,-1.9562,-1.945,-1.9364,-1.9719,-2.0913,-2.1086,0.0,-1.9462,-1.8907,-1.873,-1.9167,-1.7015,-1.5961,-1.814,-1.8405,-1.8238,-1.787,-1.9008,-1.876,-1.5209,-1.4318,-1.4837,-1.6081,-1.6639,-1.673,-1.672,-1.6933,-1.7082,-3.044,-2.8408,-2.7058,-2.6381,-2.6246,-2.6401,-2.6401,-2.625,-2.6768,-2.7,-2.7,-2.7,-2.6246,-2.4876,-2.4196,0.0,0.0,0.0,-2.5955,-2.8651,-2.8275,-2.8568,-2.9374,-2.9402,-2.903,-2.8396,-2.8376,-2.7678,-2.6332,-2.5976,-2.5048,-2.351,0.0,0.0,-2.2014,-2.2853,-2.352,-2.4048,-2.4874,-2.5245,-2.5112,-2.4811,-2.3764,-2.1866,-2.129,-2.0089,-1.8163,-1.7328,-1.6262,-1.4939,-1.4494,-1.3064,0.0,0.0,0.0,0.0,0.0,0.0,0.0,0.0,0.0,0.0,0.0,-0.0545,-0.1819,0.0,0.0,0.0,-0.6985,-0.9133,-1.0564,-0.9169,0.0,0.0,0.0,0.0,0.0,0.0,0.0,-1.647,-1.5419,-1.5851,-1.9149,-2.0841,-2.2077,-2.294,-2.1615,-2.0526,-2.0469,0.0,-2.1397,-2.1822,-2.2421,-2.2238,-2.0554,-1.9719,-1.9315,-1.936,-1.7879,-1.7002,-1.8034,-1.8283,-1.8525,-1.9307,-1.9815,-1.9368,-1.703,-1.6485,-1.6731,-1.8037,-1.8434,-1.8427,-1.8047,-1.8246,-1.8545,-3.3307,-3.2933,-2.9901,-2.9016,-2.9515,-2.8726,-2.8857,-2.9592,-2.9611,-2.9611,-2.9611,-2.9592,-2.9113,-2.8204,-2.6554,0.0,-2.9434,-2.7831,-2.8821,-3.1854,-3.0984,-3.1025,-3.1785,-3.1711,-3.0852,-2.9313,-2.9242,-2.878,-2.7972,-2.7178,-2.6755,-2.664,-2.4231,-2.2969,-2.2934,-2.3707,-2.4106,-2.4105,-2.4904,-2.5225,-2.5066,-2.4753,-2.3709,-2.1858,-2.1794,-2.0674,-1.8298,-1.7371,-1.6531,-1.5724,-1.4873,-1.3713,-1.2187,0.0,0.0,0.0,0.0,0.0,0.0,0.0,0.0,0.0,0.0,0.0,0.0,0.0,0.0,0.0,-1.0951,0.0,-1.2715,-1.1003,0.0,0.0,0.0,-1.5096,-1.5078,-1.5091,-1.6248,-1.9256,0.0,0.0,-1.9571,-2.291,-2.4935,-2.4764,-2.3262,-2.2192,-2.214,-2.3261,-2.3759,-2.2513,-2.3465,-2.3817,-2.2229,-2.0736,-1.9723,-1.9618,-1.8904,-1.7979,-1.7164,-1.6763,-1.7526,-1.8883,-1.9763,-2.005,-2.0088,-1.9578,-1.9625,-1.9374,-1.9577,-1.9488,-1.8782,-1.9125,-1.9621,-3.4753,-3.4084,-3.3924,-3.3228,-3.2198,-3.1966,-3.2005,-3.2198,-3.2198,-3.2198,-3.2198,-3.2198,-3.1715,-3.0849,-2.9819,-3.0027,-3.1168,-3.0757,-3.1385,-3.2736,-3.2497,-3.2488,-3.2651,-3.2005,-3.1487,-3.1064,-3.0404,-2.966,-2.8838,-2.8607,-2.8203,-2.7544,-2.6303,-2.5048,-2.3851,-2.4572,-2.4692,-2.4105,-2.4904,-2.5149,-2.4888,-2.4707,-2.3709,-2.1839,-2.1794,-2.0931,-1.9095,-1.7667,-1.6803,-1.6577,-1.5221,-1.4299,-1.3885,-1.1237,0.0,0.0,0.0,0.0,0.0,0.0,0.0,0.0,0.0,-0.1346,-0.4568,0.0,-0.8548,0.0,-1.2312,-1.5041,-1.5833,-1.3346,0.0,0.0,-1.5685,-1.8439,-1.8432,-1.8439,-1.8736,-1.949,-1.8896,-1.9664,-2.293,-2.4356,-2.5082,-2.5049,-2.4485,-2.4041,-2.3979,-2.4265,-2.4518,-2.4315,-2.4437,-2.442,-2.3785,-2.2633,-2.1343,-2.0092,-1.9105,-1.8135,-1.7226,-1.601,-1.5445,-1.6201,-1.8398,-1.9878,-2.0093,-2.0044,-1.8944,-1.7011,-1.7269,-1.8113,-1.7914,-1.8075,-1.8565,-3.5508,-3.503,-3.5489,-3.5136,-3.423,-3.3852,-3.3673,-3.3654,-3.3281,-3.3107,-3.3107,-3.3107,-3.3049,-3.2899,-3.2082,-3.2377,-3.346,-3.3131,-3.3436,-3.4232,-3.4212,-3.3946,-3.3542,-3.2666,-3.2045,-3.1679,-3.0827,-3.0154,-2.9679,-2.9275,-2.8857,-2.8415,-2.7601,-2.6332,-2.4716,-2.5077,-2.5058,-2.4663,-2.5013,-2.5086,-2.4811,-2.4657,-2.3709,-2.1885,-2.1794,-2.1031,-1.9352,-1.8089,-1.7429,-1.7392,-1.5557,-1.4488,-1.4469,-1.2806,-1.08,0.0,0.0,0.0,0.0,0.0,0.0,0.0,0.0,0.0,0.0,0.0,-1.223,-1.2989,-1.4701,-1.6229,-1.7343,-1.5598,-1.4386,-1.4404,-1.7492,-1.9583,-1.9583,-1.9583,-1.9583,-1.9602,-2.0879,-2.2465,-2.4266,-2.4718,-2.4952,-2.5124,-2.5025,-2.4895,-2.4847,-2.4908,-2.5013,-2.5103,-2.5037,-2.4867,-2.4564,-2.4082,-2.34,-2.2399,-2.0549,-1.876,-1.7444,-1.5914,-1.4887,-1.5155,-1.6593,-1.8412,-1.9692,-1.8775,-1.7442,-1.7137,-1.7125,-1.7561,-1.7602,-1.7614,-1.7943,-3.6086,-3.5912,-3.5985,-3.5951,-3.5804,-3.5164,-3.4767,-3.451,-3.3764,-3.3436,-3.3436,-3.3436,-3.3861,-3.451,-3.377,-3.4248,-3.5632,-3.4916,-3.4974,-3.5684,-3.5628,-3.5192,-3.4421,-3.3506,-3.2641,-3.1833,-3.0981,-3.0519,-3.0385,-2.964,-2.9261,-2.9217,-2.8448,-2.7255,-2.5692,-2.5519,-2.5404,-2.5303,-2.5171,-2.4993,-2.4804,-2.4676,-2.3709,-2.1903,-2.1794,-2.1023,-1.937,-1.8519,-1.8096,-1.8023,-1.5979,-1.4708,-1.4506,-1.4488,-1.3251,0.0,-1.0137,0.0,0.0,0.0,0.0,0.0,0.0,0.0,0.0,-1.2924,-1.5277,-1.6669,-1.717,-1.7603,-1.8074,-1.7696,-1.743,-1.7485,-1.9126,-2.0221,-2.0221,-2.0221,-2.0221,-2.0221,-2.2744,-2.45,-2.45,-2.4559,-2.4711,-2.4992,-2.5136,-2.5149,-2.5138,-2.5187,-2.5269,-2.5308,-2.5298,-2.5115,-2.4872,-2.498,-2.509,-2.4778,-2.2479,-1.9784,-1.8108,-1.6486,-1.5456,-1.5762,-1.6105,-1.7156,-2.0136,-1.8187,-1.6659,-1.8268,-1.8325,-1.7966,-1.768,-1.7603,-1.7527,-3.7556,-3.6893,-3.7535,-3.7395,-3.6798,-3.732,-3.6756,-3.5452,-3.5278,-3.5201,-3.522,-3.5201,-3.5298,-3.5438,-3.5278,-3.5394,-3.5684,-3.553,-3.553,-3.5704,-3.5647,-3.552,-3.5302,-3.4411,-3.3506,-3.266,-3.1852,-3.1096,-3.0404,-3.0237,-3.0154,-3.0115,-2.9294,-2.8396,-2.7409,0.0,0.0,0.0,-2.5185,-2.5,-2.4811,-2.4676,-2.3709,-2.1885,-2.1794,0.0,-1.937,-1.8519,-1.8096,-1.8052,-1.7037,0.0,0.0,0.0,0.0,0.0,0.0,0.0,0.0,0.0,0.0,0.0,-1.2678,-1.1082,-1.1727,-1.355,-1.4836,-1.5184,-1.756,-1.9175,-1.9256,-1.9181,-1.9144,-1.9212,-2.1778,-2.358,-2.358,-2.3552,-2.3589,-2.358,-2.4128,-2.45,-2.4517,-2.4517,-2.4596,-2.4851,-2.5075,-2.5201,-2.5176,-2.5229,-2.5288,-2.5303,-2.5278,-2.5195,-2.5119,-2.5162,-2.521,-2.4918,-2.3569,-2.1577,-1.9931,-1.8295,-1.7727,-1.8837,-1.9157,-2.0232,-2.3447,-2.1497,-1.9272,-1.9711,-1.9673,-1.9219,-1.7909,-1.7622,-1.7202,-3.8221,-3.7848,-3.8205,-3.8097,0.0,-3.8127,-3.7806,-3.6969,-3.6947,-3.669,-3.6265,-3.5878,-3.5704,-3.5704,-3.5704,-3.5704,-3.5704,-3.5704,-3.5704,-3.5704,-3.5628,-3.5617,-3.5572,-3.4642,-3.3975,-3.3487,-3.2295,-3.1468,-3.1025,-3.0615,-3.0404,-3.0404,-2.9967,-2.9121,-2.7895,-2.6601,-2.575,-2.5308,-2.5195,-2.5063,-2.4861,-2.4719,-2.3961,-2.2558,-2.2063,0.0,0.0,0.0,0.0,0.0,0.0,0.0,0.0,0.0,0.0,-1.5705,-1.488,-1.3365,-1.1214,-1.3248,-1.5711,-1.8079,-1.6805,-1.5852,-1.5852,-1.6632,-1.6762,-1.6025,-1.8172,-1.9813,-2.0314,-1.9924,-1.9917,-2.0786,-2.3076,-2.4613,-2.4737,-2.4753,-2.4753,-2.4753,-2.4753,-2.4753,-2.476,-2.4772,-2.484,-2.4923,-2.5031,-2.5115,-2.5154,-2.5238,-2.5308,-2.5308,-2.5269,-2.5233,-2.5204,-2.5208,-2.521,-2.5033,-2.4115,-2.3193,-2.2696,-2.1206,-2.0633,-2.2204,-2.262,-2.3332,-2.456,-2.3733,-2.2243,-2.1034,-2.0399,-1.9907,-1.8932,-1.8172,-1.7393,-3.8865,-3.8747,-3.8827,-3.8774,-3.8628,-3.8718,-3.8753,-3.8728,-3.8365,0.0,0.0,-3.6419,-3.6149,-3.6149,-3.6149,-3.6052,-3.5916,-3.5916,-3.582,-3.5704,-3.5633,-3.5623,-3.5559,-3.4802,-3.427,-3.391,-3.2564,-3.1775,-3.1442,-3.0731,-3.0404,-3.0404,-3.0404,-2.9563,-2.789,-2.6154,-2.5308,-2.5303,-2.5236,-2.5091,-2.4916,-2.479,-2.424,-2.3248,-2.2531,-2.1758,-2.0931,-2.0284,-1.9878,-1.9693,-1.8682,-1.8455,-1.9194,-1.7638,-1.6882,-1.7347,-1.6824,-1.6171,-1.554,-1.6416,-1.7733,-1.949,-1.9583,-1.9583,-1.9583,-1.9583,-1.9293,-1.8457,-1.9671,-2.0841,-2.1696,-2.1027,-2.0871,-2.194,-2.3663,-2.482,-2.5031,-2.5082,-2.5101,-2.5095,-2.5082,-2.5063,-2.5063,-2.5087,-2.5143,-2.5132,-2.5097,-2.5081,-2.5132,-2.5238,-2.5308,-2.5308,-2.5284,-2.5269,-2.5233,-2.5204,-2.5208,-2.5195,-2.461,-2.4427,-2.4765,-2.402,-2.3752,-2.4612,-2.5184,-2.5143,-2.517,-2.5055,-2.4424,-2.2282,-2.1264,-2.069,-2.0475,-1.9498,-1.8569,-4.0279,-3.9661,-4.0354,-4.0221,-3.956,-4.0261,-4.0489,-4.033,-3.8849,-3.8141,-3.8005,-3.7903,-3.7845,-3.7845,-3.7845,-3.7444,-3.6742,-3.6723,-3.6361,-3.5723,-3.5612,-3.5622,-3.5598,-3.5406,-3.4526,-3.3147,-3.2833,-3.1987,-3.0692,-3.0462,-3.0404,-3.0404,-3.0404,-2.9538,-2.7909,-2.6178,-2.5308,-2.5308,-2.5233,-2.5143,-2.4986,-2.4916,-2.4353,-2.3339,-2.3162,-2.268,-2.1789,-2.1604,-2.1227,-2.0543,-1.973,-1.928,-1.9286,-1.8977,-1.8949,-1.9132,-1.9038,-1.8929,-1.8825,-2.0248,-2.0697,-1.9694,-1.9583,-1.9583,-1.9583,-1.9583,-2.0674,-2.3068,-2.3533,-2.3859,-2.4035,-2.3793,-2.319,-2.2335,-2.3787,-2.5031,-2.522,-2.5332,-2.5513,-2.5648,-2.5415,-2.5466,-2.5566,-2.5465,-2.5451,-2.534,-2.5329,-2.5243,-2.5253,-2.5279,-2.5308,-2.5308,-2.5308,-2.5303,-2.5288,-2.5252,-2.5225,-2.5294,-2.511,-2.4968,-2.5145,-2.491,-2.4776,-2.5134,-2.5245,-2.5257,-2.5231,-2.5201,-2.4703,-2.362,-2.3064,-2.2743,-2.2269,-2.1884,-2.1402,-4.0875,-4.0563,-4.0892,-4.0825,-4.0494,-4.0813,-4.0931,-4.0789,-3.999,-3.9356,-3.8876,-3.8406,-3.8212,-3.8212,-3.8212,-3.7729,-3.6903,-3.6903,-3.6477,-3.5723,-3.5637,-3.562,-3.5596,-3.5534,-3.4841,-3.3634,-3.3109,-3.2288,-3.1173,-3.0635,-3.0404,-3.0346,-2.9519,-2.8409,-2.7178,-2.5942,-2.5308,-2.5303,-2.5273,-2.5201,-2.5115,-2.5013,-2.4699,-2.4185,-2.3712,-2.3225,-2.2775,-2.2304,-2.1879,-2.1466,-2.0218,-1.9526,-1.946,-1.9361,-1.9773,-2.0755,-2.0541,-2.0667,-2.1246,-2.1996,-2.1622,-1.9813,-2.0426,-2.1317,-2.2205,-2.2261,-2.2893,-2.4332,-2.45,-2.45,-2.45,-2.45,-2.4202,-2.3469,-2.429,-2.494,-2.5217,-2.5388,-2.6223,-2.7774,-2.7406,-2.72,-2.8063,-2.76,-2.7045,-2.6741,-2.6019,-2.5365,-2.5327,-2.5346,-2.5308,-2.5308,-2.5308,-2.5298,-2.5307,-2.5283,-2.5243,-2.5247,-2.5217,-2.5201,-2.5217,-2.5217,-2.5209,-2.5255,-2.5278,-2.5293,-2.5253,-2.5253,-2.4884,-2.4211,-2.3799,-2.3376,-2.2892,-2.2769,-2.2202,-4.1113,-4.1105,-4.1115,-4.1117,-4.1108,-4.1026,-4.098,-4.0915,-4.084,-4.0452,-3.9743,-3.9062,-3.8798,-3.8798,-3.8798,-3.8199,-3.7284,-3.7193,-3.6651,-3.5762,-3.5643,-3.5606,-3.5595,-3.5547,-3.4976,-3.3981,-3.3218,-3.2391,-3.1442,-3.0712,-3.0404,-3.025,-2.8909,-2.7832,-2.7159,-2.6327,-2.5885,-2.5885,-2.5691,-2.5468,-2.522,-2.5122,-2.5013,-2.4903,-2.4229,-2.3846,-2.3797,-2.3185,-2.2691,-2.2402,-2.1328,-2.0593,-2.0351,-2.0421,-2.1005,-2.2044,-2.1991,-2.2251,-2.3052,-2.2996,-2.2272,-2.0879,-2.1503,-2.271,-2.4239,-2.45,-2.45,-2.45,-2.45,-2.45,-2.45,-2.45,-2.45,-2.4508,-2.4623,-2.4827,-2.512,-2.5326,-2.6575,-2.9254,-2.8799,-2.8494,-2.9486,-2.9313,-2.8511,-2.7719,-2.6703,-2.5942,-2.5904,-2.6135,-2.6288,-2.5442,-2.5308,-2.5303,-2.5302,-2.5293,-2.5264,-2.5214,-2.5233,-2.5233,-2.5233,-2.5233,-2.5243,-2.5293,-2.5303,-2.5308,-2.5308,-2.5308,-2.5043,-2.448,-2.4255,-2.3914,-2.3582,-2.3535,-2.2937,-4.1107,-4.1112,-4.1113,-4.1108,-4.1104,-4.1025,-4.0995,-4.0974,-4.092,-4.0825,-4.061,-4.0595,-4.05,-4.0565,-4.0507,-3.9591,-3.8135,-3.8077,-3.7232,-3.5839,-3.5704,-3.5668,-3.5626,-3.561,-3.4731,-3.3332,-3.2987,-3.2122,-3.0731,-3.0481,-3.0385,-3.0288,-2.9448,-2.8915,-2.8742,-2.8005,-2.7621,-2.7626,-2.6885,-2.6091,-2.5331,-2.5287,-2.5195,-2.5091,-2.5005,-2.4886,-2.4718,-2.4683,-2.4242,-2.3506,-2.3753,-2.3543,-2.2699,-2.3423,-2.3609,-2.2829,-2.3618,-2.4249,-2.4276,-2.3601,-2.3397,-2.3878,-2.271,-2.2765,-2.4314,-2.45,-2.45,-2.45,-2.45,-2.45,-2.45,-2.45,-2.45,-2.4508,-2.4623,-2.4783,-2.4979,-2.5138,-2.6016,-2.7959,-2.83,-2.8107,-2.8567,-2.8806,-2.8676,-2.8264,-2.7944,-2.7659,-2.7736,-2.8615,-2.8212,-2.6115,-2.5308,-2.5308,-2.5303,-2.5303,-2.5284,-2.5274,-2.5279,-2.5279,-2.5274,-2.5293,-2.5303,-2.5284,-2.5308,-2.5308,-2.5308,-2.5308,-2.5269,-2.5067,-2.4952,-2.5029,-2.5114,-2.4996,-2.4316,-4.1101,-4.1109,-4.1111,-4.1113,-4.1102,-4.1056,-4.1056,-4.1053,-4.0945,-4.0887,-4.0864,-4.0825,-4.0797,-4.0797,-4.0797,-4.012,-3.8978,-3.8425,-3.7555,-3.6419,-3.5936,-3.5679,-3.5668,-3.5622,-3.4936,-3.378,-3.3192,-3.2314,-3.125,-3.0654,-3.0154,-2.964,-2.9261,-2.8876,-2.8415,-2.8044,-2.789,-2.7895,-2.7544,-2.6948,-2.6115,-2.5571,-2.5252,-2.5185,-2.5145,-2.5111,-2.5031,-2.4974,-2.475,-2.4377,-2.4492,-2.4327,-2.3849,-2.4239,-2.4295,-2.3859,-2.4239,-2.45,-2.45,-2.4156,-2.4119,-2.45,-2.3878,-2.3803,-2.4407,-2.45,-2.4508,-2.4552,-2.4498,-2.45,-2.4518,-2.45,-2.45,-2.4525,-2.4613,-2.4768,-2.4971,-2.5152,-2.625,-2.8926,-2.8934,-2.8838,-2.9399,-2.9737,-2.9723,-2.9456,-2.9369,-2.9294,-2.9404,-3.0,-2.8827,-2.6212,-2.5308,-2.5308,-2.5308,-2.5308,-2.5308,-2.5308,-2.5308,-2.5308,-2.5308,-2.5308,-2.5308,-2.5308,-2.5308,-2.5308,-2.5308,-2.5308,-2.5288,-2.5231,-2.4812,-2.4615,-2.4632,-2.5028,-2.4909,-4.1115,-4.1103,-4.1104,-4.1111,-4.1113,-4.1112,-4.1103,-4.1092,-4.099,-4.0929,-4.0897,-4.0818,-4.0797,-4.0797,-4.0797,-4.0332,-3.9462,-3.8605,-3.7729,-3.6864,-3.6071,-3.5704,-3.5679,-3.5633,-3.5025,-3.399,-3.3242,-3.2384,-3.1391,-3.075,-3.0058,-2.9525,-2.9448,-2.9165,-2.864,-2.8582,-2.8582,-2.8582,-2.8376,-2.7818,-2.6981,-2.61,-2.5522,-2.5271,-2.5212,-2.5195,-2.5154,-2.5122,-2.5056,-2.4949,-2.4827,-2.466,-2.4557,-2.4525,-2.45,-2.45,-2.45,-2.45,-2.45,-2.45,-2.45,-2.45,-2.45,-2.45,-2.45,-2.45,-2.4508,-2.4561,-2.4578,-2.4623,-2.4867,-2.4655,-2.45,-2.4508,-2.4604,-2.4787,-2.4971,-2.5723,-2.7683,-3.0023,-2.9843,-2.9645,-3.0385,-3.0554,-3.0458,-3.0328,-3.0356,-3.0404,-3.0154,-2.9538,-2.7942,-2.5808,-2.6019,-2.6308,-2.5577,-2.5308,-2.5308,-2.5308,-2.5308,-2.5308,-2.5308,-2.5308,-2.5308,-2.5308,-2.5308,-2.5308,-2.5308,-2.5308,-2.5308,-2.5154,-2.4716,-2.4168,-2.4224,-2.4514,-2.4543,-4.1109,-4.1111,-4.1116,-4.11,-4.1101,-4.111,-4.1113,-4.1107,-4.1033,-4.0948,-4.0898,-4.0834,-4.0797,-4.0797,-4.0797,-4.0332,-3.9501,-3.8624,-3.7767,-3.6942,-3.6091,-3.5704,-3.5704,-3.5599,-3.4739,-3.3359,-3.2997,-3.2075,-3.0596,-3.0442,-3.0385,-3.0308,-3.0269,-3.0288,-3.0154,-3.0115,-3.025,-3.0038,-2.9429,-2.8646,-2.7832,-2.6967,-2.613,-2.5399,-2.5303,-2.5274,-2.5293,-2.5292,-2.522,-2.5084,-2.5082,-2.4971,-2.4715,-2.4555,-2.4508,-2.4508,-2.4508,-2.45,-2.45,-2.45,-2.45,-2.45,-2.45,-2.45,-2.45,-2.45,-2.45,-2.4508,-2.4901,-2.5349,-2.5745,-2.5521,-2.495,-2.4828,-2.4816,-2.5047,-2.5212,-2.7974,-2.9857,-3.0525,-3.0482,-3.0404,-3.0578,-3.0617,-3.0574,-3.0504,-3.0444,-3.0404,-3.0058,-2.7846,-2.6322,-2.6514,-2.7668,-2.9014,-2.6192,-2.5712,-2.5615,-2.5308,-2.5308,-2.5308,-2.5308,-2.5308,-2.5308,-2.5308,-2.5308,-2.5308,-2.5308,-2.5308,-2.5308,-2.5077,-2.4601,-2.4206,-2.4115,-2.3321,-2.3152,-4.1109,-4.1109,-4.1112,-4.1115,-4.1099,-4.1107,-4.1113,-4.1071,-4.1018,-4.097,-4.0898,-4.0815,-4.0797,-4.0797,-4.0797,-4.0642,-4.0216,-3.8876,-3.8019,-3.758,-3.6323,-3.5704,-3.5646,-3.5077,-3.4519,-3.3787,-3.2681,-3.1555,-3.0544,-3.0404,-3.0404,-3.0404,-3.0404,-3.0404,-3.0404,-3.0404,-3.0404,-3.0365,-3.0058,-2.9275,-2.8025,-2.7582,-2.6774,-2.5404,-2.5308,-2.5308,-2.5308,-2.5302,-2.5247,-2.5165,-2.5162,-2.5043,-2.4858,-2.4689,-2.4596,-2.4566,-2.4566,-2.4559,-2.4508,-2.45,-2.45,-2.45,-2.45,-2.45,-2.45,-2.45,-2.4508,-2.4874,-2.6852,-2.7875,-2.7616,-2.7735,-2.766,-2.716,-2.7565,-2.7983,-2.8481,-2.9633,-3.0499,-3.0583,-3.0617,-3.0617,-3.0617,-3.0617,-3.0579,-3.0514,-3.0463,-3.045,-3.0294,-2.9173,-2.8346,-2.8635,-2.95,-3.0,-2.9058,-2.7582,-2.6755,-2.575,-2.5308,-2.5346,-2.5365,-2.55,-2.5558,-2.5327,-2.5308,-2.5462,-2.5519,-2.5673,-2.5615,-2.5442,-2.4909,-2.4548,-2.4105,-2.3182,-2.2459,-4.1109,-4.1109,-4.1109,-4.1111,-4.1116,-4.1104,-4.1112,-4.1111,-4.1037,-4.0951,-4.0898,-4.0815,-4.0797,-4.0797,-4.0797,-4.0797,-4.0597,-3.9011,-3.8212,-3.8038,-3.6477,-3.5704,-3.5607,-3.5049,-3.4594,-3.4127,-3.2821,-3.1657,-3.0902,-3.0833,-3.0673,-3.0423,-3.0404,-3.0404,-3.0404,-3.0404,-3.0404,-3.0404,-3.0404,-2.9698,-2.8448,-2.8299,-2.7621,-2.6385,-2.614,-2.5846,-2.5346,-2.5293,-2.5273,-2.5238,-2.5238,-2.5132,-2.4941,-2.4823,-2.4757,-2.4764,-2.4687,-2.458,-2.4517,-2.45,-2.45,-2.45,-2.45,-2.45,-2.45,-2.45,-2.4535,-2.5254,-2.7708,-2.9501,-2.9288,-2.9596,-2.9736,-2.9148,-2.9646,-3.0174,-3.0318,-3.0474,-3.0583,-3.0612,-3.0617,-3.0617,-3.0617,-3.0617,-3.0574,-3.049,-3.0479,-3.0466,-3.0416,-3.0404,-3.0404,-3.0385,-3.025,-3.0385,-2.9923,-2.9038,-2.8005,-2.6986,-2.6231,-2.6019,-2.5827,-2.5904,-2.5885,-2.5538,-2.5481,-2.5654,-2.5846,-2.6058,-2.6058,-2.5981,-2.5736,-2.5428,-2.4351,-2.2951,-2.271,-4.1129,-4.1109,-4.1109,-4.1148,-4.1112,-4.1103,-4.1111,-4.1093,-4.1022,-4.0954,-4.0902,-4.0815,-4.0797,-4.0797,-4.0797,-4.0797,-4.0507,-3.9088,-3.827,-3.8038,-3.6477,-3.5704,-3.5684,-3.5491,-3.4933,-3.4157,-3.3381,-3.2484,-3.1625,-3.1543,-3.1198,-3.0538,-3.0404,-3.0404,-3.0404,-3.0404,-3.0404,-3.0404,-3.0404,-2.9929,-2.9204,-2.9011,-2.8569,-2.7813,-2.7698,-2.7005,-2.5519,-2.5399,-2.5418,-2.536,-2.5317,-2.5204,-2.5044,-2.4934,-2.4954,-2.5005,-2.4842,-2.4663,-2.4534,-2.4517,-2.4525,-2.45,-2.45,-2.45,-2.45,-2.45,-2.45,-2.4989,-2.7529,-2.9716,-2.9935,-3.0169,-3.026,-3.0221,-3.034,-3.0525,-3.0569,-3.0588,-3.0617,-3.0617,-3.0617,-3.0617,-3.0617,-3.0617,-3.0579,-3.0519,-3.0488,-3.048,-3.0416,-3.0404,-3.0404,-3.0404,-3.0404,-3.0404,-3.0404,-3.025,-2.9294,-2.8371,-2.7731,-2.7288,-2.6981,-2.6948,-2.7058,-2.6846,-2.6904,-2.7096,-2.75,-2.7621,-2.7198,-2.7024,-2.6678,-2.6428,-2.564,-2.4663,-2.3802,-4.1654,-4.1207,-4.1752,-4.1635,-4.115,-4.1099,-4.1108,-4.1093,-4.0972,-4.0926,-4.0878,-4.0834,-4.0797,-4.0797,-4.0797,-4.0797,-4.07,-3.9597,-3.8779,-3.798,-3.6477,-3.5723,-3.5607,-3.509,-3.4339,-3.3583,-3.3214,-3.2601,-3.1873,-3.174,-3.1255,-3.0564,-3.0404,-3.0404,-3.0404,-3.0404,-3.0404,-3.0404,-3.0404,-2.9967,-2.9204,-2.9107,-2.8723,-2.8005,-2.789,-2.7588,-2.7101,-2.6519,-2.6212,-2.6178,-2.5615,-2.5278,-2.519,-2.5116,-2.508,-2.5128,-2.4955,-2.4757,-2.4596,-2.4615,-2.4599,-2.4515,-2.45,-2.45,-2.45,-2.4508,-2.4545,-2.4861,-2.7485,-2.9588,-2.9816,-3.0142,-3.0292,-3.0267,-3.0458,-3.0598,-3.0617,-3.0617,-3.0617,-3.0617,-3.0617,-3.0617,-3.0617,-3.0617,-3.0583,-3.0525,-3.0504,-3.0472,-3.0421,-3.0404,-3.0404,-3.0404,-3.0404,-3.0404,-3.0404,-3.0404,-2.9923,-2.939,-2.8962,-2.8442,-2.8159,-2.8005,-2.8115,-2.825,-2.8346,-2.8519,-2.8942,-2.8832,-2.8294,-2.8102,-2.7871,-2.7659,-2.7467,-2.6837,-2.5991,-4.2279,-4.2105,-4.2298,-4.2103,-4.1539,-4.1271,-4.1108,-4.1093,-4.0957,-4.0893,-4.0878,-4.084,-4.0797,-4.0797,-4.0797,-4.0797,-4.07,-3.9907,-3.903,-3.8096,-3.6826,-3.6033,-3.5704,-3.5187,-3.4635,-3.4154,-3.4047,-3.3407,-3.2268,-3.2168,-3.1586,-3.06,-3.039,-3.0404,-3.0404,-3.0404,-3.0404,-3.0404,-3.0385,-3.0135,-2.9698,-2.9583,-2.9333,-2.8909,-2.8832,-2.8832,-2.8775,-2.8005,-2.7236,-2.6601,-2.5769,-2.5327,-2.5303,-2.5208,-2.5206,-2.5187,-2.5061,-2.4908,-2.4798,-2.4791,-2.4761,-2.4679,-2.4582,-2.4525,-2.4517,-2.4524,-2.4889,-2.6676,-2.8316,-2.9549,-2.9729,-3.0068,-3.0279,-3.0311,-3.0466,-3.0554,-3.0588,-3.0617,-3.0617,-3.0617,-3.0617,-3.0617,-3.0617,-3.0617,-3.0588,-3.0545,-3.0505,-3.0483,-3.0427,-3.0404,-3.0442,-3.0442,-3.0404,-3.0404,-3.0404,-3.0404,-3.0404,-3.025,-3.0096,-2.9635,-2.9256,-2.9179,-2.9231,-2.9462,-2.9577,-2.9481,-2.9808,-2.9385,-2.8923,-2.8942,-2.8986,-2.9038,-2.8948,-2.8929,-2.8352,-4.3001,-4.3569,-4.2825,-4.2454,-4.224,-4.1447,-4.1107,-4.1093,-4.0959,-4.0896,-4.0882,-4.0834,-4.0797,-4.0797,-4.0797,-4.0797,-4.0661,-4.0081,-3.9127,-3.8237,-3.7309,-3.6574,-3.5762,-3.5593,-3.5472,-3.5466,-3.545,-3.4582,-3.3007,-3.2891,-3.2112,-3.0565,-3.0408,-3.0404,-3.0404,-3.0404,-3.0404,-3.0404,-3.0404,-3.0365,-3.0308,-3.0327,-3.0308,-3.025,-3.0212,-3.0192,-3.0038,-2.9294,-2.8179,-2.6774,-2.587,-2.5462,-2.5322,-2.5322,-2.5471,-2.5625,-2.5387,-2.5244,-2.5146,-2.5157,-2.5055,-2.4998,-2.4783,-2.481,-2.5271,-2.5729,-2.6634,-2.9014,-2.9618,-2.971,-2.9799,-3.0076,-3.0299,-3.033,-3.0466,-3.054,-3.0593,-3.0617,-3.0617,-3.0617,-3.0617,-3.0617,-3.0617,-3.0617,-3.0598,-3.0569,-3.0525,-3.0499,-3.0433,-3.0442,-3.0577,-3.0885,-3.1423,-3.0615,-3.0692,-3.0404,-3.0404,-3.0404,-3.0404,-3.0231,-2.9981,-2.9962,-2.9962,-3.025,-3.0404,-3.0404,-3.0269,-2.9827,-2.9712,-2.9808,-3.0,-3.0327,-3.0256,-2.9973,-2.9775,-4.4094,-4.3686,-4.345,-4.3001,-4.2337,-4.1462,-4.1125,-4.1074,-4.0966,-4.0902,-4.0882,-4.0834,-4.0797,-4.0797,-4.0797,-4.0797,-4.0719,-4.0545,-3.9572,-3.8328,-3.8005,-3.7,-3.5955,-3.5704,-3.5704,-3.5704,-3.5635,-3.4798,-3.323,-3.3098,-3.2163,-3.0455,-3.0425,-3.0389,-3.0385,-3.0404,-3.0404,-3.0404,-3.0404,-3.0404,-3.0404,-3.0404,-3.0404,-3.0404,-3.0404,-3.0404,-3.0327,-2.9563,-2.8332,-2.6774,-2.6428,-2.5923,-2.5442,-2.5865,-2.6481,-2.7091,-2.7042,-2.6454,-2.5602,-2.5722,-2.5766,-2.5256,-2.5038,-2.6096,-2.8657,-2.8613,-2.914,-3.0166,-3.0138,-2.9996,-2.9929,-3.0123,-3.033,-3.0513,-3.0554,-3.0579,-3.0593,-3.0617,-3.0617,-3.0617,-3.0617,-3.0617,-3.0617,-3.0694,-3.0714,-3.0728,-3.0617,-3.0554,-3.0461,-3.05,-3.0654,-3.2808,-3.3365,-3.1865,-3.0923,-3.0577,-3.0404,-3.0404,-3.0423,-3.0442,-3.0288,-3.025,-3.0269,-3.0404,-3.0404,-3.0404,-3.0404,-3.0192,-3.0365,-3.041,-3.0427,-3.0439,-3.0414,-3.0221,-3.0088,-4.4914,-4.4759,-4.4406,-4.3743,-4.2864,-4.2025,-4.1435,-4.1113,-4.0969,-4.0889,-4.0882,-4.0834,-4.0797,-4.0797,-4.0797,-4.0797,-4.0797,-4.0797,-4.0036,-3.8818,-3.7967,-3.6903,-3.5955,-3.5704,-3.5704,-3.5704,-3.5704,-3.4944,-3.3787,-3.3299,-3.2306,-3.1174,-3.0601,-3.0406,-3.0389,-3.039,-3.0404,-3.0404,-3.0404,-3.0404,-3.0404,-3.0404,-3.0404,-3.0404,-3.0404,-3.0404,-3.0308,-2.991,-2.9006,-2.7832,-2.7096,-2.6327,-2.5519,-2.625,-2.7409,-2.8698,-2.8299,-2.7341,-2.6702,-2.6789,-2.6436,-2.5561,-2.5206,-2.7006,-2.9442,-3.0254,-3.0241,-3.0414,-3.0368,-3.0227,-3.0166,-3.0246,-3.0379,-3.0559,-3.0617,-3.0617,-3.0617,-3.0617,-3.0617,-3.0617,-3.0617,-3.0617,-3.0636,-3.0984,-3.1391,-3.1449,-3.1004,-3.0757,-3.0518,-3.0642,-3.1442,-3.3654,-3.4865,-3.3596,-3.225,-3.1692,-3.1769,-3.1635,-3.0942,-3.0885,-3.0654,-3.0577,-3.0404,-3.0404,-3.0404,-3.0404,-3.0404,-3.041,-3.0408,-3.0419,-3.0442,-3.0524,-3.0557,-3.0447,-3.0315,-4.5597,-4.6223,-4.5363,-4.4504,-4.3606,-4.2749,-4.1866,-4.1171,-4.0968,-4.0908,-4.0902,-4.084,-4.0809,-4.0797,-4.0797,-4.0797,-4.0797,-4.0797,-4.012,-3.8934,-3.7657,-3.6342,-3.58,-3.5704,-3.5704,-3.5704,-3.5704,-3.5162,-3.4325,-3.3575,-3.2733,-3.1765,-3.0937,-3.0538,-3.0444,-3.0402,-3.039,-3.0404,-3.0404,-3.0404,-3.0404,-3.0404,-3.0404,-3.0404,-3.0404,-3.0404,-3.0404,-3.0288,-2.9942,-2.9242,-2.7923,-2.6519,-2.5596,-2.6154,-2.8115,-2.9596,-2.9077,-2.8308,-2.814,-2.8058,-2.7577,-2.647,-2.592,-2.689,-2.9708,-3.0436,-3.0425,-3.0535,-3.0458,-3.0408,-3.0404,-3.0355,-3.0427,-3.0569,-3.0617,-3.067,-3.1023,-3.0946,-3.0772,-3.0675,-3.069,-3.084,-3.0907,-3.1628,-3.2609,-3.3189,-3.2435,-3.1608,-3.1658,-3.206,-3.3077,-3.4731,-3.5327,-3.5346,-3.4077,-3.2923,-3.3173,-3.3231,-3.2115,-3.1615,-3.1173,-3.0942,-3.0558,-3.0404,-3.0404,-3.0404,-3.0423,-3.0416,-3.0708,-3.1006,-3.1414,-3.1168,-3.0865,-3.0625,-3.0451,-4.6144,-4.6223,-4.5363,-4.4504,-4.3627,-4.2755,-4.191,-4.1111,-4.1005,-4.0967,-4.0945,-4.0856,-4.0808,-4.0802,-4.0803,-4.0797,-4.0797,-4.0681,-3.9997,-3.8353,-3.6748,-3.5974,-3.5704,-3.5704,-3.5704,-3.5704,-3.5704,-3.5264,-3.4524,-3.4118,-3.3314,-3.1955,-3.1572,-3.1121,-3.048,-3.0386,-3.0389,-3.039,-3.0404,-3.0404,-3.0404,-3.0404,-3.0404,-3.0404,-3.0404,-3.0404,-3.0404,-3.0404,-3.0308,-2.989,-2.8885,-2.7058,-2.5255,-2.6769,-2.8885,-2.9885,-3.0135,-2.9788,-2.9737,-2.9234,-2.9066,-2.8953,-2.8005,-2.8219,-3.0123,-3.054,-3.053,-3.0545,-3.054,-3.0554,-3.0737,-3.0551,-3.0509,-3.0579,-3.0888,-3.182,-3.3505,-3.3135,-3.2004,-3.135,-3.1713,-3.205,-3.096,-3.2179,-3.33,-3.4427,-3.4002,-3.2817,-3.2943,-3.3421,-3.4315,-3.552,-3.5481,-3.543,-3.4885,-3.3968,-3.4199,-3.4321,-3.3417,-3.2808,-3.2346,-3.1654,-3.1423,-3.0923,-3.0404,-3.0558,-3.1135,-3.1665,-3.2195,-3.232,-3.2406,-3.2199,-3.1881,-3.1317,-3.0859,-4.509,-4.5031,-4.4582,-4.3883,-4.3087,-4.2587,-4.1913,-4.1205,-4.1035,-4.098,-4.0968,-4.0858,-4.0812,-4.0794,-4.0809,-4.0797,-4.0681,-4.0313,-3.9243,-3.7754,-3.6613,-3.611,-3.5723,-3.5704,-3.5704,-3.5704,-3.5704,-3.54,-3.5051,-3.451,-3.3706,-3.2473,-3.2037,-3.1278,-3.056,-3.0403,-3.04,-3.039,-3.0404,-3.0404,-3.0404,-3.0404,-3.0404,-3.0404,-3.0404,-3.0404,-3.0404,-3.0402,-3.0389,-3.0254,-2.9781,-2.8673,-2.7019,-2.8269,-2.9673,-3.0231,-3.0404,-3.0404,-3.0217,-3.0067,-2.9946,-3.043,-2.9571,-2.978,-3.0298,-3.0564,-3.0569,-3.0579,-3.0661,-3.081,-3.1579,-3.0849,-3.0695,-3.0956,-3.2087,-3.3743,-3.4962,-3.4602,-3.375,-3.2923,-3.2945,-3.32,-3.3256,-3.3494,-3.3938,-3.5065,-3.5259,-3.4229,-3.4298,-3.4723,-3.4899,-3.554,-3.5514,-3.5417,-3.5194,-3.4995,-3.5117,-3.5066,-3.4642,-3.4321,-3.4115,-3.3288,-3.2462,-3.1788,-3.1154,-3.2038,-3.2622,-3.3159,-3.3631,-3.3928,-3.395,-3.3569,-3.3144,-3.2691,-3.2323,-4.3705,-4.3705,-4.3705,-4.3204,-4.247,-4.238,-4.1914,-4.116,-4.1025,-4.099,-4.0968,-4.0859,-4.0815,-4.0806,-4.0809,-4.0797,-4.0526,-3.9655,-3.847,-3.7464,-3.6729,-3.6187,-3.5781,-3.5704,-3.5704,-3.5704,-3.5704,-3.5646,-3.5433,-3.493,-3.4118,-3.314,-3.2415,-3.1539,-3.0735,-3.0439,-3.0406,-3.039,-3.0404,-3.0404,-3.0404,-3.0404,-3.0404,-3.0404,-3.0404,-3.039,-3.0396,-3.0394,-3.0392,-3.0422,-3.0419,-3.0402,-3.0402,-3.0416,-3.0402,-3.0421,-3.0427,-3.0421,-3.0396,-3.0373,-3.0427,-3.0593,-3.0506,-3.0477,-3.0564,-3.0593,-3.0593,-3.0598,-3.0714,-3.1429,-3.303,-3.2154,-3.1289,-3.1579,-3.3905,-3.5433,-3.5662,-3.5496,-3.5126,-3.4957,-3.4308,-3.4141,-3.4547,-3.4872,-3.522,-3.5491,-3.5626,-3.5698,-3.567,-3.5647,-3.5617,-3.5605,-3.5592,-3.5527,-3.5322,-3.5265,-3.5483,-3.5502,-3.5323,-3.5284,-3.5252,-3.468,-3.3665,-3.2589,-3.2308,-3.3237,-3.4013,-3.4475,-3.4953,-3.5469,-3.5195,-3.4527,-3.4204,-3.4016,-3.3706,-4.3705,-4.3705,-4.3711,-4.3192,-4.2458,-4.2383,-4.1869,-4.1179,-4.1033,-4.099,-4.0988,-4.0917,-4.0842,-4.0809,-4.0802,-4.0797,-4.0384,-3.934,-3.8334,-3.758,-3.6748,-3.5916,-3.5762,-3.5704,-3.5704,-3.5704,-3.5704,-3.5704,-3.5684,-3.5452,-3.4505,-3.3378,-3.2908,-3.2095,-3.0886,-3.0474,-3.0447,-3.0408,-3.0416,-3.0416,-3.0416,-3.0416,-3.0416,-3.0416,-3.0416,-3.0402,-3.0406,-3.0392,-3.0428,-3.0493,-3.0493,-3.0488,-3.0488,-3.0488,-3.0488,-3.0483,-3.0477,-3.0436,-3.0414,-3.0458,-3.0515,-3.0583,-3.0588,-3.0583,-3.0593,-3.0617,-3.0617,-3.0617,-3.0849,-3.1777,-3.4872,-3.3499,-3.2856,-3.3223,-3.4234,-3.5684,-3.5679,-3.5645,-3.559,-3.5483,-3.5218,-3.5037,-3.5295,-3.5472,-3.553,-3.5588,-3.5646,-3.5704,-3.5693,-3.5687,-3.5681,-3.5681,-3.5681,-3.5605,-3.5476,-3.5457,-3.5527,-3.5614,-3.5525,-3.5507,-3.5507,-3.5581,-3.49,-3.3876,-3.3775,-3.4597,-3.5239,-3.5585,-3.5608,-3.5602,-3.5447,-3.5292,-3.506,-3.4814,-3.5027,-4.2341,-4.2345,-4.2353,-4.2126,-4.1777,-4.1711,-4.1498,-4.1142,-4.1056,-4.1039,-4.0992,-4.0936,-4.0863,-4.0821,-4.0808,-4.0603,-3.9946,-3.9385,-3.8392,-3.7522,-3.669,-3.6052,-3.5762,-3.5704,-3.5704,-3.5704,-3.5704,-3.5704,-3.5704,-3.5684,-3.4717,-3.3494,-3.3107,-3.2216,-3.0897,-3.0481,-3.0474,-3.0442,-3.0436,-3.0436,-3.0436,-3.0436,-3.0436,-3.0436,-3.0436,-3.0447,-3.0458,-3.0436,-3.0465,-3.05,-3.0554,-3.054,-3.0564,-3.0564,-3.0559,-3.0554,-3.0519,-3.0493,-3.0447,-3.049,-3.0525,-3.0593,-3.0617,-3.0617,-3.0617,-3.0617,-3.0617,-3.0617,-3.0617,-3.1197,-3.2706,-3.3673,-3.4408,-3.4557,-3.522,-3.5607,-3.5704,-3.5704,-3.5704,-3.5704,-3.5532,-3.5425,-3.5532,-3.5665,-3.5684,-3.5704,-3.5704,-3.5704,-3.5704,-3.5704,-3.5704,-3.5704,-3.5698,-3.5647,-3.5579,-3.5566,-3.5577,-3.5637,-3.5673,-3.5651,-3.5651,-3.5668,-3.5687,-3.5209,-3.554,-3.5592,-3.5623,-3.567,-3.5693,-3.5704,-3.5588,-3.553,-3.5626,-3.5684,-3.5704,-4.1098,-4.1104,-4.1111,-4.1113,-4.1106,-4.1104,-4.112,-4.1103,-4.11,-4.1052,-4.0992,-4.0926,-4.0878,-4.0826,-4.0736,-4.0429,-3.9713,-3.9501,-3.8392,-3.7464,-3.6709,-3.6207,-3.5858,-3.5704,-3.5704,-3.5704,-3.5704,-3.5704,-3.5704,-3.5704,-3.4679,-3.3552,-3.3107,-3.2222,-3.0849,-3.0491,-3.0481,-3.049,-3.0485,-3.0485,-3.0485,-3.0485,-3.0485,-3.0485,-3.0485,-3.0485,-3.049,-3.0481,-3.0491,-3.0525,-3.0559,-3.0612,-3.0617,-3.0617,-3.0617,-3.0612,-3.0559,-3.0544,-3.0525,-3.0515,-3.054,-3.0598,-3.0598,-3.0617,-3.0617,-3.0617,-3.0617,-3.0617,-3.1101,-3.1275,-3.2101,-3.3209,-3.4389,-3.5065,-3.524,-3.5704,-3.5704,-3.5704,-3.5704,-3.5704,-3.5704,-3.5704,-3.5704,-3.5704,-3.5704,-3.5704,-3.5704,-3.5704,-3.5704,-3.5704,-3.5704,-3.5704,-3.5693,-3.5659,-3.5635,-3.5653,-3.5651,-3.5668,-3.5704,-3.5673,-3.5693,-3.5704,-3.5693,-3.5681,-3.5681,-3.5664,-3.5698,-3.5704,-3.5704,-3.5704,-3.5704,-3.5704,-3.5704,-3.5704,-3.5704,-4.111,-4.1113,-4.1113,-4.1105,-4.1101,-4.1103,-4.11,-4.1117,-4.111,-4.1068,-4.0992,-4.095,-4.0878,-4.0821,-4.0802,-4.0719,-4.0236,-3.9204,-3.8411,-3.7767,-3.669,-3.5994,-3.5723,-3.5704,-3.5704,-3.5704,-3.5704,-3.5704,-3.5704,-3.5704,-3.4853,-3.3532,-3.3044,-3.228,-3.0873,-3.0559,-3.0486,-3.049,-3.049,-3.049,-3.049,-3.049,-3.049,-3.049,-3.049,-3.0495,-3.051,-3.0501,-3.0525,-3.0588,-3.0593,-3.0617,-3.0617,-3.0617,-3.0617,-3.0617,-3.0593,-3.0588,-3.0608,-3.0569,-3.0704,-3.0733,-3.0675,-3.0617,-3.1139,-3.1217,-3.1178,-3.0656,-3.1894,-3.2739,-3.2546,-3.1971,-3.2353,-3.3557,-3.493,-3.5472,-3.5704,-3.5704,-3.5704,-3.5704,-3.5704,-3.5704,-3.5704,-3.5704,-3.5704,-3.5704,-3.5704,-3.5704,-3.5704,-3.5704,-3.5704,-3.5704,-3.5704,-3.5676,-3.5664,-3.5687,-3.5693,-3.5704,-3.5704,-3.5704,-3.5704,-3.5704,-3.5704,-3.5698,-3.5704,-3.5704,-3.5704,-3.5704,-3.5704,-3.5704,-3.5704,-3.5704,-3.5704,-3.5704,-3.5704,-4.1832,-4.1829,-4.1841,-4.1553,-4.1122,-4.11,-4.1103,-4.111,-4.1107,-4.1071,-4.0992,-4.093,-4.0863,-4.0806,-4.0803,-4.0797,-4.0507,-3.9443,-3.8624,-3.8063,-3.6961,-3.6129,-3.5781,-3.5704,-3.5704,-3.5704,-3.5704,-3.5704,-3.5704,-3.5588,-3.5007,-3.3963,-3.33,-3.256,-3.1289,-3.0791,-3.0612,-3.055,-3.055,-3.0545,-3.0545,-3.055,-3.055,-3.055,-3.0545,-3.055,-3.0554,-3.054,-3.0583,-3.0617,-3.0617,-3.0617,-3.0617,-3.0617,-3.0617,-3.0675,-3.1579,-3.1541,-3.0791,-3.0675,-3.0965,-3.1221,-3.1241,-3.1468,-3.2745,-3.3344,-3.3363,-3.3562,-3.4118,-3.4466,-3.4195,-3.2991,-3.2701,-3.3378,-3.4775,-3.5278,-3.5704,-3.5704,-3.5704,-3.5704,-3.5704,-3.5704,-3.5704,-3.5704,-3.5704,-3.5704,-3.5704,-3.5704,-3.5704,-3.5704,-3.5704,-3.5704,-3.5704,-3.5698,-3.5693,-3.5698,-3.5698,-3.5704,-3.5704,-3.5704,-3.5704,-3.5704,-3.5704,-3.5704,-3.5704,-3.5704,-3.5704,-3.5704,-3.5704,-3.5704,-3.5704,-3.5704,-3.5704,-3.5704,-3.5704,-4.2383,-4.237,-4.2399,-4.19,-4.1122,-4.1097,-4.111,-4.1107,-4.1107,-4.1071,-4.0992,-4.0921,-4.0862,-4.0808,-4.0809,-4.0784,-4.07,-3.9694,-3.8895,-3.8063,-3.7154,-3.6245,-3.5839,-3.5704,-3.5704,-3.5704,-3.5704,-3.5704,-3.5704,-3.5607,-3.5245,-3.4413,-3.3808,-3.2991,-3.2217,-3.1657,-3.1342,-3.0975,-3.0728,-3.0612,-3.0593,-3.0593,-3.0612,-3.0617,-3.0617,-3.0617,-3.0617,-3.0598,-3.0617,-3.0617,-3.0617,-3.0617,-3.0617,-3.0617,-3.0984,-3.1333,-3.2275,-3.228,-3.1681,-3.1521,-3.1719,-3.1952,-3.2285,-3.2764,-3.4833,-3.5704,-3.5665,-3.5284,-3.5394,-3.5549,-3.5433,-3.4383,-3.4112,-3.4272,-3.4988,-3.5394,-3.5704,-3.5704,-3.5704,-3.5704,-3.5704,-3.5704,-3.5704,-3.5704,-3.5704,-3.5704,-3.5704,-3.5704,-3.5704,-3.5704,-3.5704,-3.5704,-3.5704,-3.5704,-3.5704,-3.5704,-3.5704,-3.5704,-3.5704,-3.5704,-3.5704,-3.5704,-3.5704,-3.5704,-3.5704,-3.5704,-3.5704,-3.5704,-3.5704,-3.5704,-3.5704,-3.5704,-3.5704,-3.5704,-3.5704,-4.2302,-4.2308,-4.2376,-4.1902,-4.1114,-4.111,-4.1107,-4.1107,-4.1107,-4.1052,-4.0988,-4.0946,-4.0881,-4.0825,-4.0808,-4.0796,-4.0719,-3.905,-3.847,-3.7754,-3.6671,-3.5994,-3.5742,-3.5704,-3.5704,-3.5704,-3.5704,-3.5704,-3.5704,-3.5704,-3.5187,-3.449,-3.4214,-3.3712,-3.3165,-3.2662,-3.2217,-3.1734,-3.1255,-3.0907,-3.083,-3.0772,-3.0714,-3.0675,-3.0636,-3.0617,-3.0617,-3.0617,-3.0733,-3.0733,-3.0656,-3.0617,-3.0617,-3.1217,-3.1894,-3.2353,-3.2841,-3.2919,-3.2745,-3.2604,-3.2836,-3.3107,-3.3494,-3.406,-3.5491,-3.5704,-3.5704,-3.5704,-3.5704,-3.5704,-3.5684,-3.553,-3.5104,-3.5162,-3.5336,-3.5472,-3.5704,-3.5704,-3.5704,-3.5704,-3.5704,-3.5704,-3.5704,-3.5704,-3.5704,-3.5704,-3.5704,-3.5704,-3.5704,-3.5704,-3.5704,-3.5704,-3.5704,-3.5704,-3.5704,-3.5704,-3.5704,-3.5704,-3.5704,-3.5704,-3.5704,-3.5704,-3.5704,-3.5704,-3.5704,-3.5704,-3.5704,-3.5704,-3.5704,-3.5704,-3.5704,-3.5704,-3.5704,-3.5704,-3.5704,-4.2023,-4.1598,-4.2117,-4.186,-4.1107,-4.1107,-4.1107,-4.1107,-4.1107,-4.1068,-4.0992,-4.0936,-4.0863,-4.0815,-4.08,-4.0802,-4.0642,-3.9617,-3.8798,-3.7986,-3.7058,-3.6226,-3.5936,-3.5704,-3.5704,-3.5704,-3.5704,-3.5704,-3.5704,-3.5704,-3.5588,-3.5148,-3.4703,-3.4297,-3.3886,-3.3455,-3.2952,-3.2701,-3.2314,-3.2121,-3.2024,-3.1541,-3.1328,-3.1328,-3.0733,-3.0636,-3.0617,-3.0617,-3.0888,-3.1076,-3.0888,-3.081,-3.1217,-3.2416,-3.3228,-3.3397,-3.3692,-3.3982,-3.375,-3.3479,-3.3126,-3.3416,-3.4214,-3.522,-3.5684,-3.5704,-3.5704,-3.5704,-3.5704,-3.5704,-3.5704,-3.5684,-3.5588,-3.5684,-3.5704,-3.5704,-3.5704,-3.5704,-3.5704,-3.5704,-3.5704,-3.5704,-3.5704,-3.5704,-3.5704,-3.5704,-3.5704,-3.5704,-3.5704,-3.5704,-3.5704,-3.5704,-3.5704,-3.5704,-3.5704,-3.5704,-3.5704,-3.5704,-3.5704,-3.5704,-3.5704,-3.5704,-3.5704,-3.5704,-3.5704,-3.5704,-3.5704,-3.5704,-3.5704,-3.5704,-3.5704,-3.5704,-3.5704,-3.5704,-3.5704,-4.1614,-4.1188,-4.1711,-4.1633,-4.1127,-4.1107,-4.1107,-4.1107,-4.1107,-4.1052,-4.0992,-4.093,-4.0859,-4.0812,-4.0804,-4.0808,-4.0571,-3.9849,-3.8992,-3.8121,-3.727,-3.6477,-3.5955,-3.5704,-3.5704,-3.5704,-3.5704,-3.5704,-3.5704,-3.5704,-3.5646,-3.5452,-3.5168,-3.4877,-3.4621,-3.3982,-3.3499,-3.3479,-3.3204,-3.3126,-3.2952,-3.2546,-3.2198,-3.2063,-3.1449,-3.1081,-3.0946,-3.0868,-3.1023,-3.1424,-3.156,-3.1449,-3.2358,-3.3538,-3.4659,-3.4659,-3.4524,-3.4988,-3.4703,-3.4311,-3.39,-3.4292,-3.4872,-3.553,-3.5704,-3.5704,-3.5704,-3.5704,-3.5704,-3.5704,-3.5704,-3.5704,-3.5704,-3.5704,-3.5704,-3.5704,-3.5704,-3.5704,-3.5704,-3.5704,-3.5704,-3.5704,-3.5704,-3.5704,-3.5704,-3.5704,-3.5704,-3.5704,-3.5704,-3.5704,-3.5704,-3.5704,-3.5704,-3.5704,-3.5704,-3.5704,-3.5704,-3.5704,-3.5704,-3.5704,-3.5704,-3.5704,-3.5704,-3.5704,-3.5704,-3.5704,-3.5704,-3.5704,-3.5704,-3.5704,-3.5704,-3.5704,-3.5704,-3.5704,-3.5704,-4.1149,-4.1107,-4.1146,-4.1149,-4.1107,-4.1107,-4.1107,-4.1107,-4.1107,-4.1068,-4.1011,-4.093,-4.0859,-4.0818,-4.0796,-4.08,-4.0648,-3.9965,-3.9108,-3.8199,-3.7502,-3.6574,-3.5955,-3.5704,-3.5704,-3.5704,-3.5704,-3.5704,-3.5704,-3.5704,-3.5704,-3.5704,-3.5535,-3.5496,-3.5554,-3.4819,-3.4413,-3.4278,-3.3629,-3.3474,-3.3397,-3.3262,-3.3088,-3.2894,-3.2232,-3.1806,-3.1695,-3.1342,-3.1574,-3.2159,-3.2546,-3.2701,-3.3358,-3.4659,-3.5452,-3.5491,-3.4621,-3.4775,-3.5433,-3.553,-3.5375,-3.524,-3.5568,-3.5665,-3.5704,-3.5704,-3.5704,-3.5704,-3.5704,-3.5704,-3.5704,-3.5704,-3.5704,-3.5704,-3.5704,-3.5704,-3.5704,-3.5704,-3.5704,-3.5704,-3.5704,-3.5704,-3.5704,-3.5704,-3.5704,-3.5704,-3.5704,-3.5704,-3.5704,-3.5704,-3.5704,-3.5704,-3.5704,-3.5704,-3.5704,-3.5704,-3.5704,-3.5704,-3.5704,-3.5704,-3.5704,-3.5704,-3.5704,-3.5704,-3.5704,-3.5704,-3.5704,-3.5704,-3.5704,-3.5704,-3.5704,-3.5704,-3.5704,-3.5704,-3.5704,-4.1107,-4.1107,-4.1107,-4.1107,-4.1107,-4.1107,-4.1107,-4.1107,-4.1059,-4.1022,-4.0992,-4.093,-4.0859,-4.0818,-4.0804,-4.0814,-4.0706,-4.0623,-3.9746,-3.8251,-3.7812,-3.6884,-3.6129,-3.5704,-3.5704,-3.5704,-3.5704,-3.5704,-3.5704,-3.5704,-3.5704,-3.5704,-3.5704,-3.5704,-3.5646,-3.5336,-3.5264,-3.5226,-3.4969,-3.4833,-3.4737,-3.4272,-3.3963,-3.3924,-3.313,-3.2675,-3.2627,-3.2192,-3.2463,-3.3058,-3.3425,-3.3546,-3.4339,-3.5621,-3.5665,-3.5704,-3.5143,-3.5278,-3.5646,-3.5665,-3.5684,-3.5704,-3.5704,-3.5704,-3.5704,-3.5704,-3.5704,-3.5704,-3.5704,-3.5704,-3.5704,-3.5704,-3.5704,-3.5704,-3.5704,-3.5704,-3.5704,-3.5704,-3.5704,-3.5704,-3.5704,-3.5704,-3.5704,-3.5704,-3.5704,-3.5704,-3.5704,-3.5704,-3.5704,-3.5704,-3.5704,-3.5704,-3.5704,-3.5704,-3.5704,-3.5704,-3.5704,-3.5704,-3.5704,-3.5704,-3.5704,-3.5704,-3.5704,-3.5704,-3.5704,-3.5704,-3.5704,-3.5704,-3.5704,-3.5704,-3.5704,-3.5704,-3.5704,-3.5704,-3.5704,-4.1107,-4.1107,-4.1107,-4.1107,-4.1107,-4.1107,-4.1107,-4.1085,-4.1029,-4.0984,-4.096,-4.0917,-4.0863,-4.0815,-4.0806,-4.0802,-4.0797,-4.0758,-3.9843,-3.8386,-3.8193,-3.7116,-3.6168,-3.5704,-3.5704,-3.5704,-3.5704,-3.5704,-3.5704,-3.5704,-3.5704,-3.5704,-3.5704,-3.5704,-3.5684,-3.5646,-3.5626,-3.5593,-3.5472,-3.551,-3.5414,-3.5162,-3.4847,-3.4574,-3.405,-3.3462,-3.3396,-3.3376,-3.3429,-3.3857,-3.3917,-3.397,-3.5085,-3.5656,-3.5662,-3.5662,-3.5679,-3.5679,-3.5704,-3.5704,-3.5704,-3.5704,-3.5704,-3.5704,-3.5704,-3.5704,-3.5704,-3.5704,-3.5704,-3.5994,-3.6149,-3.6091,-3.6071,-3.6091,-3.6071,-3.6091,-3.5878,-3.5897,-3.5955,-3.5916,-3.5723,-3.5723,-3.5704,-3.5704,-3.5704,-3.5704,-3.5704,-3.5704,-3.5704,-3.5704,-3.5704,-3.5704,-3.5704,-3.5704,-3.5704,-3.5704,-3.5704,-3.5704,-3.5704,-3.5704,-3.5704,-3.5704,-3.5704,-3.5704,-3.5704,-3.5704,-3.5704,-3.5704,-3.5704,-3.5704,-3.5704,-3.5704,-3.5704,-3.5704,-3.5704,-4.1107,-4.1107,-4.1107,-4.1107,-4.1107,-4.1107,-4.1107,-4.1104,-4.1011,-4.0964,-4.09,-4.0908,-4.0856,-4.0806,-4.0794,-4.0802,-4.0803,-4.0797,-3.9669,-3.8644,-3.8232,-3.7038,-3.6187,-3.5704,-3.5704,-3.5704,-3.5704,-3.5704,-3.5704,-3.5704,-3.5704,-3.5704,-3.5704,-3.5704,-3.5698,-3.5668,-3.5693,-3.5698,-3.5679,-3.5679,-3.5588,-3.5588,-3.5411,-3.5145,-3.4686,-3.4295,-3.4064,-3.3808,-3.3827,-3.3883,-3.3763,-3.432,-3.495,-3.5552,-3.5559,-3.5583,-3.5637,-3.5679,-3.5704,-3.5704,-3.5704,-3.5704,-3.5704,-3.5704,-3.5704,-3.5704,-3.5704,-3.5704,-3.5742,-3.6439,-3.6917,-3.6864,-3.6787,-3.6787,-3.6767,-3.6574,-3.6251,-3.6212,-3.6284,-3.6168,-3.5864,-3.5742,-3.5704,-3.5704,-3.5878,-3.5704,-3.5704,-3.5704,-3.5704,-3.5704,-3.5704,-3.5704,-3.5704,-3.5704,-3.5704,-3.5704,-3.5704,-3.5704,-3.5704,-3.5704,-3.5704,-3.5698,-3.5681,-3.5656,-3.5698,-3.5704,-3.5704,-3.5704,-3.5704,-3.5704,-3.5704,-3.5704,-3.5704,-3.5704,-3.5704,-4.1107,-4.1107,-4.1107,-4.1107,-4.1107,-4.1107,-4.1107,-4.1104,-4.103,-4.0975,-4.0897,-4.0863,-4.0829,-4.0809,-4.0809,-4.0803,-4.0797,-4.0558,-3.9611,-3.8837,-3.8309,-3.7116,-3.6323,-3.5858,-3.5762,-3.5762,-3.5781,-3.58,-3.5742,-3.5723,-3.5704,-3.5704,-3.5704,-3.5679,-3.5631,-3.5571,-3.562,-3.5656,-3.5637,-3.5643,-3.5648,-3.5643,-3.5589,-3.5374,-3.5187,-3.4889,-3.4707,-3.4637,-3.4695,-3.4709,-3.4879,-3.5245,-3.5113,-3.5342,-3.5352,-3.5626,-3.5679,-3.5704,-3.5704,-3.5704,-3.5723,-3.5742,-3.5767,-3.5704,-3.5704,-3.5781,-3.58,-3.5878,-3.582,-3.6342,-3.7618,-3.8044,-3.8005,-3.7986,-3.8102,-3.8218,-3.7972,-3.8011,-3.7934,-3.6516,-3.6187,-3.5897,-3.5858,-3.6033,-3.6149,-3.5858,-3.5704,-3.5704,-3.5704,-3.5704,-3.5704,-3.5704,-3.5704,-3.5704,-3.5704,-3.5704,-3.5704,-3.5704,-3.5704,-3.5704,-3.5704,-3.5687,-3.5633,-3.5633,-3.5681,-3.5698,-3.5704,-3.5704,-3.5704,-3.5723,-3.5723,-3.5723,-3.5704,-3.5742,-3.5781,-4.1107,-4.1107,-4.1107,-4.1107,-4.1107,-4.1107,-4.1107,-4.1081,-4.103,-4.0971,-4.0903,-4.0833,-4.0798,-4.0803,-4.0797,-4.0797,-4.0797,-4.0739,-4.0017,-3.9146,-3.8663,-3.7928,-3.7096,-3.6632,-3.6806,-3.6613,-3.6342,-3.6265,-3.6071,-3.58,-3.5704,-3.5704,-3.5704,-3.5648,-3.5595,-3.5527,-3.5502,-3.5553,-3.5571,-3.5577,-3.5577,-3.5577,-3.5528,-3.5437,-3.5372,-3.5293,-3.5239,-3.5246,-3.5195,-3.5227,-3.5407,-3.5374,-3.5207,-3.5226,-3.5379,-3.5628,-3.5656,-3.5668,-3.5737,-3.6071,-3.5955,-3.5936,-3.6149,-3.6555,-3.6342,-3.6284,-3.6303,-3.6342,-3.6129,-3.6342,-3.7986,-3.934,-3.9359,-3.9379,-3.9765,-4.0172,-4.0216,-4.0255,-3.9011,-3.7309,-3.6593,-3.6245,-3.6226,-3.6458,-3.6477,-3.6284,-3.5974,-3.5704,-3.5704,-3.5704,-3.5704,-3.5704,-3.5704,-3.5704,-3.5704,-3.5704,-3.5704,-3.5698,-3.5648,-3.5648,-3.5693,-3.5681,-3.5628,-3.5633,-3.567,-3.5687,-3.5704,-3.5704,-3.5704,-3.5742,-3.5936,-3.6187,-3.611,-3.5858,-3.5916,-4.1107,-4.1107,-4.1107,-4.1107,-4.1107,-4.1088,-4.1088,-4.1104,-4.1027,-4.0967,-4.0883,-4.0833,-4.0798,-4.0803,-4.0797,-4.0797,-4.0797,-4.0758,-4.0313,-3.9501,-3.9307,-3.8682,-3.8141,-3.8135,-3.7735,-3.7709,-3.7477,-3.6903,-3.6613,-3.6168,-3.5704,-3.5704,-3.5704,-3.5668,-3.5589,-3.547,-3.5411,-3.5423,-3.543,-3.5437,-3.547,-3.5463,-3.5437,-3.5364,-3.5273,-3.5157,-3.507,-3.5009,-3.4954,-3.5088,-3.5187,-3.5211,-3.5147,-3.5182,-3.5407,-3.5541,-3.5578,-3.5645,-3.588,-3.6303,-3.6748,-3.6806,-3.6903,-3.7638,-3.7657,-3.6458,-3.6207,-3.7174,-3.7232,-3.7624,-3.9017,-3.9901,-4.0152,-4.0152,-4.0365,-4.0565,-4.0584,-4.0507,-3.9791,-3.8083,-3.6632,-3.6477,-3.7502,-3.7793,-3.7831,-3.7212,-3.6226,-3.58,-3.6149,-3.6149,-3.6574,-3.6477,-3.5878,-3.5878,-3.5704,-3.5704,-3.5704,-3.5679,-3.5643,-3.5626,-3.5651,-3.5639,-3.5616,-3.5659,-3.5687,-3.5693,-3.5704,-3.5704,-3.5742,-3.582,-3.611,-3.6671,-3.6651,-3.6419,-3.6555,-4.1107,-4.1107,-4.1107,-4.1107,-4.1107,-4.1039,-4.1032,-4.1009,-4.1011,-4.0954,-4.0903,-4.0833,-4.0792,-4.0803,-4.0797,-4.0797,-4.0797,-4.0758,-4.0255,-3.981,-3.9597,-3.9327,-3.847,-3.8547,-3.8386,-3.8154,-3.7883,-3.756,-3.698,-3.6303,-3.5762,-3.5767,-3.5858,-3.5933,-3.5713,-3.5538,-3.5434,-3.532,-3.5385,-3.5427,-3.5465,-3.5417,-3.5364,-3.5269,-3.5181,-3.5235,-3.5153,-3.5021,-3.4965,-3.4982,-3.5141,-3.5115,-3.4963,-3.507,-3.5211,-3.5367,-3.5515,-3.5649,-3.5946,-3.6684,-3.7588,-3.8353,-3.8721,-3.903,-3.8528,-3.6773,-3.6464,-3.7754,-3.8702,-3.921,-3.9675,-4.0332,-4.0797,-4.0797,-4.0797,-4.0797,-4.0797,-4.0565,-4.0274,-3.8862,-3.7116,-3.7464,-3.8566,-3.8972,-3.9011,-3.8083,-3.6516,-3.6013,-3.7019,-3.7502,-3.8779,-3.8508,-3.6535,-3.6149,-3.5878,-3.582,-3.5878,-3.5731,-3.5637,-3.5626,-3.5622,-3.5591,-3.5566,-3.5664,-3.5704,-3.6033,-3.6129,-3.5723,-3.5781,-3.5839,-3.6458,-3.7077,-3.758,-3.7522,-3.7696,-4.1107,-4.1107,-4.1107,-4.1107,-4.1088,-4.1036,-4.0983,-4.0988,-4.0967,-4.0912,-4.0854,-4.0818,-4.0792,-4.0803,-4.0797,-4.0797,-4.0797,-4.0797,-4.0584,-4.0216,-3.9965,-3.9887,-3.9495,-3.9243,-3.9475,-3.934,-3.8856,-3.8353,-3.7502,-3.7212,-3.6903,-3.6742,-3.6717,-3.6497,-3.619,-3.5904,-3.561,-3.5231,-3.5477,-3.5658,-3.567,-3.5504,-3.554,-3.5469,-3.5702,-3.5752,-3.5923,-3.5817,-3.559,-3.5353,-3.5266,-3.5038,-3.4936,-3.4991,-3.5062,-3.5288,-3.555,-3.5874,-3.6143,-3.7087,-3.8588,-3.9457,-3.9997,-4.0075,-4.0113,-3.8591,-3.7831,-3.8953,-3.9669,-4.0197,-4.0216,-4.07,-4.0797,-4.0797,-4.0797,-4.0797,-4.0797,-4.07,-4.0584,-4.012,-3.905,-3.9108,-3.9901,-3.9997,-4.0036,-3.9939,-3.8205,-3.7193,-3.7986,-3.8566,-3.9978,-4.0429,-3.8353,-3.6555,-3.5839,-3.5936,-3.6168,-3.5963,-3.5695,-3.5681,-3.5682,-3.556,-3.5515,-3.6087,-3.6611,-3.7038,-3.6961,-3.6458,-3.5878,-3.5825,-3.6632,-3.756,-3.8044,-3.8586,-3.8992,-4.1107,-4.1107,-4.1107,-4.1107,-4.1088,-4.1029,-4.0991,-4.0988,-4.0921,-4.0854,-4.0826,-4.0801,-4.0806,-4.0809,-4.0797,-4.0797,-4.0797,-4.0797,-4.0739,-4.0739,-4.07,-4.0468,-4.0487,-4.0623,-4.0487,-4.0178,-3.9694,-3.9088,-3.8373,-3.8044,-3.7883,-3.8162,-3.8009,-3.7707,-3.7065,-3.665,-3.6347,-3.6051,-3.614,-3.6378,-3.6131,-3.5798,-3.6053,-3.6359,-3.671,-3.7021,-3.7116,-3.7078,-3.6661,-3.6282,-3.5809,-3.5344,-3.5268,-3.5372,-3.5581,-3.5807,-3.6283,-3.6415,-3.662,-3.7758,-3.9232,-4.032,-4.0668,-4.0797,-4.0752,-4.0384,-3.9611,-3.9746,-4.0468,-4.0739,-4.0739,-4.0758,-4.0777,-4.0797,-4.0797,-4.0821,-4.0821,-4.0815,-4.0815,-4.0809,-4.0719,-4.0603,-4.0661,-4.0777,-4.0797,-4.0797,-4.0462,-3.9727,-3.9282,-3.9591,-4.039,-4.0797,-3.9926,-3.8185,-3.6864,-3.6168,-3.6535,-3.6093,-3.5832,-3.5804,-3.6034,-3.6822,-3.7245,-3.7182,-3.7674,-3.8273,-3.793,-3.7361,-3.6762,-3.622,-3.7315,-3.8392,-3.8682,-3.9301,-4.0172,-4.1107,-4.1107,-4.1107,-4.1107,-4.1085,-4.1018,-4.0972,-4.0928,-4.0917,-4.0862,-4.0818,-4.0806,-4.0808,-4.0797,-4.0797,-4.0797,-4.0797,-4.0797,-4.0797,-4.0797,-4.0797,-4.0797,-4.0797,-4.0797,-4.0797,-4.0507,-4.0062,-3.9501,-3.9204,-3.8682,-3.8278,-3.8375,-3.8202,-3.7998,-3.7786,-3.7447,-3.7231,-3.6958,-3.6958,-3.7212,-3.7251,-3.7091,-3.7119,-3.7394,-3.7714,-3.7628,-3.7609,-3.7818,-3.7571,-3.7287,-3.6917,-3.6178,-3.6055,-3.6244,-3.6585,-3.6919,-3.7357,-3.7186,-3.7624,-3.8408,-3.9675,-4.0584,-4.0797,-4.0797,-4.0777,-4.0777,-4.0307,-4.0307,-4.0777,-4.0777,-4.0777,-4.0784,-4.0803,-4.0803,-4.0803,-4.0859,-4.0883,-4.0856,-4.084,-4.082,-4.0777,-4.0739,-4.0739,-4.0797,-4.0797,-4.0797,-4.0797,-4.0172,-4.0094,-4.0481,-4.0797,-4.0797,-4.0797,-4.0777,-3.981,-3.727,-3.6859,-3.6358,-3.6188,-3.653,-3.7408,-3.8984,-3.9311,-3.8792,-3.9102,-3.973,-3.9193,-3.8105,-3.7846,-3.7556,-3.8489,-3.9307,-3.9481,-3.981,-4.0526]},{"header":{"parameterUnit":"m.s-1","parameterCategory":1,"la1":31.0,"la2":29.5877,"lo1":-88.7671,"lo2":-86.6584,"dy":0.0162,"dx":0.0185,"nx":115,"ny":88,"refTime":"2026-05-23T00:00:00:Z","depth":0,"parameterNumber":3,"parameterNumberName":"V-component_of_WINDS"},"data":[0.0,0.0,0.0,0.0,0.0,0.0,0.0,0.0,0.0,0.0,0.0,0.0,0.0,0.0,0.0,0.0,0.0,0.0,0.0,0.0,0.0,0.0,0.0,0.0,0.0,0.0,0.0,0.0,0.0,0.0,0.0,0.0,0.0,0.0,0.0,0.0,0.0,0.0,0.0,0.0,0.0,0.0,0.0,0.0,0.0,0.0,0.0,0.0,0.0,0.0,0.0,0.0,0.0,0.0,0.0,0.0,0.0,0.0,0.0,0.0,0.0,0.0,0.0,0.0,0.0,0.0,0.0,0.0,0.0,0.0,0.0,0.0,0.0,0.0,0.0,0.0,0.0,0.0,0.0,0.0,0.0,0.0,0.0,0.0,0.0,0.0,0.0,0.0,0.0,0.0,0.0,0.0,0.0,0.0,0.0,0.0,0.0,0.0,0.0,0.0,0.0,0.0,0.0,0.0,0.0,0.0,0.0,0.0,0.0,0.0,0.0,0.0,0.0,0.0,0.0,0.0,0.0,0.0,0.0,0.0,0.0,0.0,0.0,0.0,0.0,0.0,0.0,0.0,0.0,0.0,0.0,0.0,0.0,0.0,0.0,0.0,0.0,0.0,0.0,0.0,0.0,0.0,0.0,0.0,0.0,0.0,0.0,0.0,0.0,0.0,0.0,0.0,0.0,0.0,0.0,0.0,0.0,0.0,0.0,0.0,0.0,0.0,0.0,0.0,0.0,0.0,0.0,0.0,0.0,0.0,0.0,0.0,0.0,0.0,0.0,0.0,0.0,0.0,0.0,0.0,0.0,0.0,0.0,0.0,0.0,0.0,0.0,0.0,0.0,0.0,0.0,0.0,0.0,0.0,0.0,0.0,0.0,0.0,0.0,0.0,0.0,0.0,0.0,0.0,0.0,0.0,0.0,0.0,0.0,0.0,0.0,0.0,0.0,0.0,0.0,0.0,0.0,0.0,0.0,0.0,0.0,0.0,0.0,0.0,0.0,0.0,0.0,0.0,0.0,0.0,0.0,0.0,0.0,0.0,0.0,0.0,0.0,0.0,0.0,0.0,0.0,0.0,0.0,0.0,0.0,0.0,0.0,0.0,0.0,0.0,0.0,0.0,0.0,0.0,0.0,0.0,0.0,0.0,0.0,0.0,0.0,0.0,0.0,0.0,0.0,0.0,0.0,0.0,0.0,0.0,0.0,0.0,0.0,0.0,0.0,0.0,0.0,0.0,0.0,0.0,0.0,0.0,0.0,0.0,0.0,0.0,0.0,0.0,0.0,0.0,0.0,0.0,0.0,0.0,0.0,0.0,0.0,0.0,0.0,0.0,0.0,0.0,0.0,0.0,0.0,0.0,0.0,0.0,0.0,0.0,0.0,0.0,0.0,0.0,0.0,0.0,0.0,0.0,0.0,0.0,0.0,0.0,0.0,0.0,0.0,0.0,0.0,0.0,0.0,0.0,0.0,0.0,0.0,0.0,0.0,0.0,0.0,0.0,0.0,0.0,0.0,0.0,0.0,0.0,0.0,0.0,0.0,0.0,0.0,0.0,0.0,0.0,0.0,0.0,0.0,0.0,0.0,0.0,0.0,0.0,0.0,0.0,0.0,0.0,0.0,0.0,0.0,0.0,0.0,0.0,0.0,0.0,0.0,0.0,0.0,0.0,0.0,0.0,0.0,0.0,0.0,0.0,0.0,0.0,0.0,0.0,0.0,0.0,0.0,0.0,0.0,0.0,0.0,0.0,0.0,0.0,0.0,0.0,0.0,0.0,0.0,0.0,0.0,0.0,0.0,0.0,0.0,0.0,0.0,0.0,0.0,0.0,0.0,0.0,0.0,0.0,0.0,0.0,0.0,0.0,0.0,0.0,0.0,0.0,0.0,0.0,0.0,0.0,0.0,0.0,0.0,0.0,0.0,0.0,0.0,0.0,0.0,0.0,0.0,0.0,0.0,0.0,0.0,0.0,0.0,0.0,0.0,0.0,0.0,0.0,0.0,0.0,0.0,0.0,0.0,0.0,0.0,0.0,0.0,0.0,0.0,0.0,0.0,0.0,0.0,0.0,0.0,0.0,0.0,0.0,0.0,0.0,0.0,0.0,0.0,0.0,0.0,0.0,0.0,0.0,0.0,0.0,0.0,0.0,0.0,0.0,0.0,0.0,0.0,0.0,0.0,0.0,0.0,0.0,0.0,0.0,0.0,0.0,0.0,0.0,0.0,0.0,0.0,0.0,0.0,0.0,0.0,0.0,0.0,0.0,0.0,0.0,0.0,0.0,0.0,0.0,0.0,0.0,0.0,0.0,0.0,0.0,0.0,0.0,0.0,0.0,0.0,0.0,0.0,0.0,0.0,0.0,0.0,0.0,0.0,0.0,0.0,0.0,0.0,0.0,0.0,0.0,0.0,0.0,0.0,0.0,0.0,0.0,0.0,0.0,0.0,0.0,0.0,0.0,0.0,0.0,0.0,0.0,0.0,0.0,0.0,0.0,0.0,0.0,0.0,0.0,0.0,0.0,0.0,0.0,0.0,0.0,0.0,0.0,0.0,0.0,0.0,0.0,0.0,0.0,0.0,0.0,0.0,0.0,0.0,0.0,0.0,0.0,0.0,0.0,0.0,0.0,0.0,0.0,0.0,0.0,0.0,0.0,0.0,0.0,0.0,0.0,0.0,0.0,0.0,0.0,0.0,0.0,0.0,0.0,0.0,0.0,0.0,0.0,0.0,0.0,0.0,0.0,0.0,0.0,0.0,0.0,0.0,0.0,0.0,0.0,0.0,0.0,0.0,0.0,0.0,0.0,0.0,0.0,0.0,0.0,0.0,0.0,0.0,0.0,0.0,0.0,0.0,0.0,0.0,0.0,0.0,0.0,0.0,0.0,0.0,0.0,0.0,0.0,0.0,0.0,0.0,0.0,0.0,0.0,0.0,0.0,0.0,0.0,0.0,0.0,0.0,0.0,0.0,0.0,0.0,0.0,0.0,0.0,0.0,0.0,0.0,0.0,0.0,0.0,0.0,0.0,0.0,0.0,0.0,0.0,0.0,0.0,0.0,0.0,0.0,0.0,0.0,0.0,0.0,0.0,0.0,0.0,0.0,0.0,0.0,0.0,0.0,0.0,0.0,0.0,0.0,0.0,0.0,0.0,0.0,0.0,0.0,0.0,0.0,0.0,0.0,0.0,0.0,0.0,0.0,0.0,0.0,0.0,0.0,0.0,0.0,0.0,0.0,0.0,0.0,0.0,0.0,0.0,0.0,0.0,0.0,0.0,0.0,0.0,0.0,0.0,0.0,0.0,0.0,0.0,0.0,0.0,0.0,0.0,0.0,0.0,0.0,0.0,0.0,0.0,0.0,0.0,0.0,0.0,0.0,0.0,0.0,0.0,0.0,0.0,0.0,0.0,0.0,0.0,0.0,0.0,0.0,0.0,0.0,0.0,0.0,0.0,0.0,0.0,0.0,0.0,0.0,0.0,0.0,0.0,0.0,0.0,0.0,0.0,0.0,0.0,0.0,0.0,0.0,0.0,0.0,0.0,0.0,0.0,0.0,0.0,0.0,0.0,0.0,0.0,0.0,0.0,0.0,0.0,0.0,0.0,0.0,0.0,0.0,0.0,0.0,0.0,0.0,0.0,0.0,0.0,0.0,0.0,0.0,0.0,0.0,0.0,0.0,0.0,0.0,0.0,0.0,0.0,0.0,0.0,0.0,0.0,0.0,0.0,0.0,0.0,0.0,0.0,0.0,0.0,0.0,0.0,0.0,0.0,0.0,0.0,0.0,0.0,0.0,0.0,0.0,0.0,0.0,0.0,0.0,0.0,0.0,0.0,0.0,0.0,0.0,0.0,0.0,0.0,0.0,0.0,0.0,0.0,0.0,0.0,0.0,0.0,0.0,0.0,0.0,0.0,0.0,0.0,0.0,0.0,0.0,0.0,0.0,0.0,0.0,0.0,0.0,0.0,0.0,0.0,0.0,0.0,0.0,0.0,0.0,0.0,0.0,0.0,0.0,0.0,0.0,0.0,0.0,0.0,0.0,0.0,0.0,0.0,0.0,0.0,0.0,0.0,0.0,0.0,0.0,0.0,0.0,0.0,0.0,0.0,0.0,0.0,0.0,0.0,0.0,0.0,0.0,0.0,0.0,0.0,0.0,0.0,0.0,0.0,0.0,0.0,0.0,0.0,0.0,0.0,0.0,0.0,0.0,0.0,0.0,0.0,0.0,0.0,0.0,0.0,0.0,0.0,0.0,0.0,0.0,0.0,0.0,0.0,0.0,0.0,0.3399,0.0,0.0,0.0,0.0,0.0,0.0,0.0,0.0,0.0,0.0,0.0,0.0,0.0,0.0,0.0,0.0,0.0,0.0,0.0,0.0,0.0,0.0,0.0,0.0,0.0,0.0,0.0,0.0,0.0,0.0,0.0,0.0,0.0,0.0,0.0,0.0,0.0,0.0,0.0,0.0,0.0,0.0,0.0,0.0,0.0,0.0,0.0,0.0,0.0,0.0,0.0,0.0,0.0,0.0,0.0,0.0,0.0,0.0,0.0,0.0,0.0,0.0,0.0,0.0,0.0,0.0,0.0,0.0,0.0,0.0,0.0,0.0,0.0,0.0,0.0,0.0,0.0,0.0,0.0,0.0,0.0,0.0,0.0,0.0,0.0,0.0,0.0,0.0,0.0,0.0,0.0,0.0,0.0,0.0,0.0,0.0,0.0,0.0,0.0,0.0,0.0,0.0,0.0,0.0,0.0,0.0,0.0,0.0,0.0,0.0,0.3387,0.3391,0.3391,0.3395,0.3408,0.0,0.0,0.0,0.0,0.0,0.0,0.0,0.0,0.0,0.0,0.0,0.0,0.0,0.0,0.0,0.0,0.0,0.0,0.0,0.0,0.0,0.0,0.0,0.0,0.0,0.0,0.0,0.0,0.0,0.0,0.0,0.0,0.0,0.0,0.0,0.0,0.0,0.0,0.0,0.0,0.0,0.0,0.0,0.0,0.0,0.0,0.0,0.0,0.0,0.0,0.0,0.0,0.0,0.0,0.0,0.0,0.0,0.0,0.0,0.0,0.0,0.0,0.0,0.0,0.0,0.0,0.0,0.0,0.0,0.0,0.0,0.0,0.0,0.0,0.0,0.0,0.0,0.0,0.0,0.0,0.0,0.0,0.0,0.0,0.0,0.0,0.0,0.0,0.0,0.0,0.0,0.0,0.0,0.0,0.0,0.0,0.0,0.0,0.0,0.0,0.0,0.0,0.0,0.0,0.0,0.0,0.0,0.0,0.0,0.0,0.0,0.0,0.3592,0.3652,0.3779,0.0,0.0,0.0,0.0,0.0,0.0,0.0,0.0,0.0,0.0,0.0,0.0,0.0,0.0,0.0,0.0,0.0,0.0,0.0,0.0,0.0,0.0,0.0,0.0,0.0,0.0,0.0,0.0,0.0,0.0,0.0,0.0,0.0,0.0,0.0,0.0,0.0,0.0,0.0,0.0,0.0,0.0,0.0,0.0,0.0,0.0,0.0,0.0,0.0,0.0,0.0,0.0,0.0,0.0,0.0,0.0,0.0,0.0,0.0,0.0,0.0,0.0,0.0,0.0,0.0,0.0,0.0,0.0,0.0,0.0,0.0,0.0,0.0,0.0,0.0,0.0,0.0,0.0,0.0,0.0,0.0,0.0,0.0,0.0,0.0,0.0,0.0,0.0,0.0,0.0,0.0,0.0,0.0,0.0,0.0,0.0,0.0,0.0,0.0,0.0,0.0,0.0,0.0,0.0,0.0,0.0,0.0,0.0,0.0,0.0,0.3639,0.4113,0.4133,0.0,0.4802,0.0,0.0,0.0,0.0,0.0,0.0,0.0,0.0,0.0,0.0,0.0,0.0,0.0,0.0,0.0,0.0,0.0,0.0,0.0,0.0,0.0,0.0,0.0,0.0,0.0,0.0,0.0,0.0,0.0,0.0,0.0,0.0,0.0,0.0,0.0,0.0,0.0,0.0,0.0,0.0,0.0,0.0,0.0,0.0,0.0,0.0,0.0,0.0,0.0,0.0,0.0,0.0,0.0,0.0,0.0,0.0,0.0,0.0,0.0,0.0,0.0,0.0,0.0,0.0,0.0,0.0,0.0,0.0,0.0,0.0,0.0,0.0,0.0,0.0,0.0,0.0,0.0,0.0,0.0,0.0,0.0,0.0,0.0,0.0,0.0,0.0,0.0,0.0,0.0,0.0,0.0,0.0,0.0,0.0,0.0,0.0,0.0,0.0,0.0,0.0,0.0,0.0,0.0,0.0,0.0,0.0,0.0,0.0,0.0,0.0,0.4099,0.4656,0.4669,0.4795,0.0,0.0,0.0,0.0,0.0,0.0,0.0,0.0,0.0,0.0,0.0,0.0,0.0,0.0,0.0,0.0,0.0,0.0,0.0,0.0,0.0,0.0,0.0,0.0,0.0,0.0,0.0,0.0,0.0,0.0,0.0,0.0,0.0,0.0,0.0,0.0,0.0,0.0,0.0,0.0,0.0,0.0,0.0,0.0,0.0,0.0,0.0,0.0,0.0,0.0,0.0,0.0,0.0,0.0,0.0,0.0,0.0,0.0,0.0,0.0,0.0,0.0,0.0,0.0,0.0,0.0,0.0,0.0,0.0,0.0,0.0,0.0,0.0,0.0,0.0,0.0,0.0,0.0,0.0,0.0,0.0,0.0,0.0,0.0,0.0,0.0,0.0,0.0,0.0,0.0,0.0,0.0,0.0,0.0,0.0,0.0,0.0,0.0,0.0,0.0,0.0,0.0,0.0,0.0,0.0,0.0,0.0,0.0,0.0,0.0,0.3664,0.4238,0.494,0.501,0.501,0.501,0.0,0.0,0.0,0.0,0.0,0.0,0.0,0.0,0.0,0.0,0.0,0.0,0.0,0.0,0.0,0.0,0.0,0.0,0.0,0.0,0.0,0.0,0.0,0.0,0.0,0.0,0.0,0.0,0.0,0.0,0.0,0.0,0.0,0.0,0.0,0.0,0.0,0.0,0.0,0.0,0.0,0.0,0.0,0.0,0.0,0.0,0.0,0.0,0.0,0.0,0.0,0.0,0.0,0.0,0.0,0.0,0.0,0.0,0.0,0.0,0.0,0.0,0.0,0.0,0.0,0.0,0.0,0.0,0.0,0.0,0.0,0.0,0.0,0.0,0.0,0.0,0.0,0.0,0.0,0.0,0.0,0.0,0.0,0.0,0.0,0.0,0.0,0.0,0.0,0.0,0.0,0.0,0.0,0.0,0.0,0.0,0.0,0.0,0.0,0.0,0.0,0.0,0.0,0.0,0.0,0.0,0.0,0.0,0.3199,0.3316,0.3882,0.4966,0.501,0.501,0.0,0.0,0.0,0.0,0.0,0.0,0.0,0.0,0.0,0.0,0.0,0.0,0.0,0.0,0.0,0.0,0.0,0.0,0.0,0.0,0.0,0.0,0.0,0.0,0.0,0.0,0.0,0.0,0.0,0.0,0.0,0.0,0.0,0.0,0.0,0.0,0.0,0.0,0.0,0.0,0.0,0.0,0.0,0.0,0.0,0.0,0.0,0.0,0.0,0.0,0.0,0.0,0.0,0.0,0.0,0.0,0.0,0.0,0.0,0.0,0.0,0.0,0.0,0.0,0.0,0.0,0.0,0.0,0.0,0.0,0.0,0.0,0.0,0.0,0.0,0.0,0.0,0.0,0.0,0.0,0.0,0.0,0.0,0.0,0.0,0.0,0.0,0.0,0.0,0.0,0.0,0.0,0.0,0.0,0.0,0.0,0.0,0.0,0.0,0.0,0.0,0.0,0.0,0.0,0.0,0.0,0.0,0.0,0.0,0.324,0.3979,0.4582,0.4991,0.501,0.4827,0.0,0.0,0.0,0.0,0.0,0.0,0.0,0.0,0.0,0.0,0.0,0.0,0.0,0.0,0.0,0.0,0.0,0.0,0.0,0.0,0.0,0.0,0.0,0.0,0.0,0.0,0.0,0.0,0.0,0.0,0.0,0.0,0.0,0.0,0.0,0.0,0.0,0.0,0.0,0.0,0.0,0.0,0.0,0.0,0.0,0.0,0.0,0.0,0.0,0.0,0.0,0.0,0.0,0.0,0.0,0.0,0.0,0.0,0.0,0.0,0.0,0.0,0.0,0.0,0.0,0.0,0.0,0.0,0.0,0.0,0.0,0.0,0.0,0.0,0.0,0.0,0.0,0.0,0.0,0.0,0.0,0.0,0.0,0.0,0.0,0.0,0.0,0.0,0.0,0.0,0.0,0.0,0.0,0.0,0.0,0.0,0.0,0.0,0.0,0.0,0.0,0.0,0.0,0.0,0.0,0.0,0.0,0.0,0.0,0.3688,0.0,0.5181,0.5187,0.5033,0.474,0.0,0.0,0.0,0.0,0.0,0.0,0.0,0.0,0.0,0.0,0.0,0.0,0.0,0.0,0.0,0.0,0.0,0.0,0.0,0.0,0.0,0.0,0.0,0.0,0.0,0.0,0.0,0.0,0.0,0.0,0.0,0.0,0.0,0.0,0.0,0.0,0.0,0.0,0.0,0.0,0.0,0.0,0.0,0.0,0.0,0.0,0.0,0.0,0.0,0.0,0.0,0.0,0.0,0.0,0.0,0.0,0.0,0.0,0.0,0.0,0.0,0.0,0.0,0.0,0.0,0.0,0.0,0.0,0.0,0.0,0.0,0.0,0.0,0.0,0.0,0.0,0.0,0.0,0.0,0.0,0.0,0.0,0.0,0.0,0.0,0.0,0.0,0.0,0.0,0.0,0.0,0.0,0.0,0.0,0.0,0.0,0.0,0.0,0.0,0.0,0.0,0.0,0.0,0.0,0.0,0.0,0.0,0.0,0.3999,0.4577,0.5186,0.5508,0.5579,0.5087,0.4842,0.0,0.0,0.0,0.0,0.0,0.0,0.0,0.0,0.0,0.0,0.0,0.0,0.0,0.0,0.0,0.0,0.0,0.0,0.0,0.0,0.0,0.0,0.0,0.0,0.0,0.0,0.0,0.0,0.0,0.0,0.0,0.0,0.0,0.0,0.0,0.0,0.0,0.0,0.0,0.0,0.0,0.0,0.0,0.0,0.0,0.0,0.0,0.0,0.0,0.0,0.0,0.0,0.0,0.0,0.0,0.0,0.0,0.0,0.0,0.0,0.0,0.0,0.0,0.0,0.0,0.0,0.0,0.0,0.0,0.0,0.0,0.0,0.0,0.0,0.0,0.0,0.0,0.0,0.0,0.0,0.0,0.0,0.0,0.0,0.0,0.0,0.0,0.0,0.0,0.0,0.0,0.0,0.0,0.0,0.0,0.0,0.0,0.0,0.0,0.0,0.0,0.0,0.0,0.0,0.0,0.0,0.0,0.0,0.0,0.4832,0.5267,0.5406,0.5185,0.512,0.4981,0.0,0.0,0.0,0.0,0.0,0.0,0.0,0.0,0.0,0.0,0.0,0.0,0.0,0.0,0.0,0.0,0.0,0.0,0.0,0.0,0.0,0.0,0.0,0.0,0.0,0.0,0.0,0.0,0.0,0.0,0.0,0.0,0.0,0.0,0.0,0.0,0.0,0.0,0.0,0.0,0.0,0.0,0.0,0.0,0.0,0.0,0.0,0.0,0.0,0.0,0.0,0.0,0.0,0.0,0.0,0.0,0.0,0.0,0.0,0.0,0.0,0.0,0.0,0.0,0.0,0.0,0.0,0.0,0.0,0.0,0.0,0.0,0.0,0.0,0.0,0.0,0.0,0.0,0.0,0.0,0.0,0.0,0.0,0.0,0.0,0.0,0.0,0.0,0.0,0.0,0.0,0.0,0.0,0.0,0.0,0.0,0.0,0.0,0.0,0.0,0.0,0.0,0.0,0.0,0.0,0.0,0.0,0.0,0.0,0.5982,0.6159,0.6107,0.582,0.5584,0.5399,0.5257,0.0,0.0,0.0,0.0,0.0,0.0,0.0,0.0,0.0,0.0,0.0,0.0,0.0,0.0,0.0,0.0,0.0,0.0,0.0,0.0,0.0,0.0,0.0,0.0,0.0,0.0,0.0,0.0,0.0,0.0,0.0,0.0,0.0,0.0,0.0,0.0,0.0,0.0,0.0,0.0,0.0,0.0,0.0,0.0,0.0,0.0,0.0,0.0,0.0,0.0,0.0,0.0,0.0,0.0,0.0,0.0,0.0,0.0,0.0,0.0,0.0,0.0,0.0,0.0,0.0,0.0,0.0,0.0,0.0,0.0,0.0,0.0,0.0,0.0,0.0,0.0,0.0,0.0,0.0,0.0,0.0,0.0,0.0,0.0,0.0,0.0,0.0,0.0,0.0,0.0,0.0,0.0,0.0,0.0,0.0,0.0,0.0,0.0,0.0,0.0,0.0,0.0,0.0,0.0,0.0,0.0,0.0,0.0,0.7753,0.766,0.749,0.7229,0.6438,0.6086,0.0,0.0,0.0,0.0,0.0,0.0,0.0,0.0,0.0,0.0,0.0,0.0,0.0,0.0,0.0,0.0,0.0,0.0,0.0,0.0,0.0,0.0,0.0,0.0,0.0,0.0,0.0,0.0,0.0,0.0,0.0,0.0,0.0,0.0,0.0,0.0,0.0,0.0,0.0,0.0,0.0,0.0,0.0,0.0,0.0,0.0,0.0,0.0,0.0,0.0,0.0,0.0,0.0,0.0,0.0,0.0,0.0,0.0,0.0,0.0,0.0,0.0,0.0,0.0,0.0,0.0,0.0,0.0,0.0,0.0,0.0,0.0,0.0,0.0,0.0,0.0,0.0,0.0,0.0,0.0,0.0,0.0,0.0,0.0,0.0,0.0,0.0,0.0,0.0,0.0,0.0,0.0,0.0,0.0,0.0,0.0,0.0,0.0,0.0,0.0,0.0,0.0,0.0,0.0,0.0,0.0,0.0,0.0,0.0,0.7506,0.8364,0.8521,0.7886,0.7498,0.7125,0.0,0.0,0.0,0.0,0.0,0.0,0.0,0.0,0.0,0.0,0.0,0.0,0.0,0.0,0.0,0.0,0.0,0.0,0.0,0.0,0.0,0.0,0.0,0.0,0.0,0.0,0.0,0.0,0.0,0.0,0.0,0.0,0.0,0.0,0.0,0.0,0.0,0.0,0.0,0.0,0.0,0.0,0.0,0.0,0.0,0.0,0.0,0.0,0.0,0.0,0.0,0.0,0.0,0.0,0.0,0.0,0.0,0.0,0.0,0.0,0.0,0.0,0.0,0.0,0.0,0.0,0.0,0.0,0.0,0.0,0.0,0.0,0.0,0.0,0.0,0.0,0.0,0.0,0.0,0.0,0.0,0.0,0.0,0.0,0.0,0.0,0.0,0.0,0.0,0.0,0.0,0.0,0.0,0.0,0.0,0.0,0.0,0.0,0.0,0.0,0.0,0.0,0.0,0.0,0.0,0.0,0.0,0.0,0.7215,0.7818,0.8882,0.9202,0.8734,0.8297,0.7856,0.0,0.0,0.0,0.0,0.0,0.0,0.0,0.0,0.0,0.0,0.0,0.0,0.0,0.0,0.0,0.0,0.0,0.0,0.0,0.0,0.0,0.0,0.0,0.0,0.0,0.0,0.0,0.0,0.0,0.0,0.0,0.0,0.0,0.0,0.0,0.0,0.0,0.0,0.0,0.0,0.0,0.0,0.0,0.0,0.0,0.0,0.0,0.0,0.0,0.0,0.0,0.0,0.0,0.0,0.0,0.0,0.0,0.0,0.0,0.0,0.0,0.0,0.0,0.0,0.0,0.0,0.0,0.0,0.0,0.0,0.0,0.0,0.0,0.0,0.0,0.0,0.0,0.0,0.0,0.0,0.0,0.0,0.0,0.0,0.0,0.0,0.0,0.0,0.0,0.0,0.0,0.0,0.0,0.0,0.0,0.0,0.0,0.0,0.0,0.0,0.0,0.0,0.0,0.0,0.0,0.0,0.0,0.0,0.7528,0.8351,0.912,0.955,0.9568,0.8889,0.8398,0.0,0.0,0.0,0.0,0.0,0.0,0.0,0.0,0.0,0.0,0.0,0.0,0.0,0.0,0.0,0.0,0.0,0.0,0.0,0.0,0.0,0.0,0.0,0.0,0.0,0.0,0.0,0.0,0.0,0.0,0.0,0.0,0.0,0.0,0.0,0.0,0.0,0.0,0.0,0.0,0.0,0.0,0.0,0.0,0.0,0.0,0.0,0.0,0.0,0.0,0.0,0.0,0.0,0.0,0.0,0.0,0.0,0.0,0.0,0.0,0.0,0.0,0.0,0.0,0.0,0.0,0.0,0.0,0.0,0.0,0.0,0.0,0.0,0.0,0.0,0.0,0.0,0.0,0.0,0.0,0.0,0.0,0.0,0.0,0.0,0.0,0.0,0.0,0.0,0.0,0.0,0.0,0.0,0.0,0.0,0.0,0.0,0.0,0.0,0.0,0.0,0.0,0.0,0.0,0.0,0.0,0.0,0.0,0.7535,0.8222,0.8815,0.9284,0.9607,0.9328,0.8947,0.0,0.0,0.0,0.0,0.0,0.0,0.0,0.0,0.0,0.0,0.0,0.0,0.0,0.0,0.0,0.0,0.0,0.0,0.0,0.0,0.0,0.0,0.0,0.0,0.0,0.0,0.0,0.0,0.0,0.0,0.0,0.0,0.0,0.0,0.0,0.0,0.0,0.0,0.0,0.0,0.0,0.0,0.0,0.0,0.0,0.0,0.0,0.0,0.326,0.0,0.0,0.0,0.0,0.0,0.0,0.0,0.0,0.0,0.0,0.0,0.0,0.0,0.0,0.0,0.0,0.0,0.0,0.0,0.0,0.0,0.0,0.0,0.0,0.0,0.0,0.0,0.0,0.0,0.0,0.0,0.0,0.0,0.0,0.0,0.0,0.0,0.0,0.0,0.0,0.0,0.0,0.0,0.0,0.0,0.0,0.0,0.0,0.0,0.0,0.0,0.0,0.0,0.0,0.0,0.0,0.0,0.0,0.0,0.7116,0.7855,0.8374,0.8809,0.9195,0.9385,0.9226,0.0,0.0,0.0,0.0,0.0,0.0,0.0,0.0,0.0,0.0,0.0,0.0,0.0,0.0,0.0,0.0,0.0,0.0,0.0,0.0,0.0,0.0,0.0,0.0,0.0,0.0,0.0,0.0,0.0,0.0,0.0,0.0,0.0,0.0,0.0,0.0,0.0,0.0,0.0,0.0,0.0,0.0,0.0,0.0,0.0,0.0,0.0,0.0,0.0,0.0,0.0,0.0,0.0,0.0,0.0,0.0,0.0,0.0,0.0,0.0,0.0,0.0,0.0,0.0,0.0,0.0,0.0,0.0,0.0,0.0,0.0,0.0,0.0,0.0,0.0,0.0,0.0,0.0,0.0,0.0,0.0,0.0,0.0,0.0,0.0,0.0,0.0,0.0,0.0,0.0,0.0,0.0,0.0,0.0,0.0,0.0,0.0,0.0,0.0,0.0,0.0,0.0,0.0,0.0,0.0,0.0,0.0,0.6211,0.6826,0.7484,0.8024,0.8456,0.8811,0.9257,0.9217,0.8647,0.0,0.0,0.0,0.0,0.0,0.0,0.0,0.0,0.0,0.0,0.0,0.0,0.0,0.0,0.0,0.0,0.0,0.0,0.0,0.0,0.0,0.0,0.0,0.0,0.0,0.0,0.0,0.0,0.0,0.0,0.0,0.0,0.0,0.0,0.0,0.0,0.0,0.0,0.1718,0.2282,0.0,0.0,0.0,0.0,0.0,0.0,0.0,0.0,0.3277,0.0,0.0,0.0,0.0,0.0,0.0,0.0,0.0,0.0,0.0,0.0,0.0,0.0,0.0,0.0,0.0,0.0,0.0,0.0,0.0,0.0,0.0,0.0,0.0,0.0,0.0,0.0,0.0,0.0,0.0,0.0,0.0,0.0,0.0,0.0,0.0,0.0,0.0,0.0,0.0,0.0,0.0,0.0,0.0,0.0,0.0,0.0,0.0,0.0,0.0,0.0,0.0,0.0,0.0,0.0,0.0,0.5361,0.6706,0.7433,0.7514,0.829,0.8738,0.881,0.8935,0.8685,0.7996,0.0,0.0,0.0,0.0,0.0,0.0,0.0,0.0,0.0,0.0,0.0,0.0,0.0,0.0,0.0,0.0,0.0,0.0,0.0,0.0,0.0,0.0,0.0,0.0,0.0,0.0,0.0,0.0,0.0,0.0,0.0,0.0,0.0,0.0,0.0,0.0,0.0,0.0,0.0,0.284,0.277,0.0,0.0,0.0,0.0,0.0,0.0,0.0,0.0,0.2916,0.0,0.0,0.0,0.0,0.0,0.0,0.0,0.0,0.0,0.0,0.0,0.0,0.0,0.0,0.0,0.0,0.0,0.0,0.0,0.0,0.0,0.0,0.0,0.0,0.0,0.0,0.0,0.0,0.0,0.0,0.0,0.0,0.0,0.0,0.0,0.0,0.0,0.0,0.0,0.0,0.0,0.0,0.0,0.0,0.0,0.0,0.0,0.0,0.0,0.0,0.0,0.0,0.0,0.0,0.0,0.5564,0.6702,0.7356,0.7515,0.8125,0.8424,0.8386,0.8461,0.8147,0.0,0.0,0.0,0.0,0.0,0.0,0.0,0.0,0.0,0.0,0.0,0.0,0.0,0.0,0.0,0.0,0.0,0.0,0.0,0.0,0.0,0.0,0.0,0.0,0.0,0.0,0.0,0.0,0.0,0.0,0.0,0.0,0.0,0.0,0.0,0.0,0.0,0.0,0.0,0.0,0.3456,0.3214,0.3203,0.0,0.0,0.0,0.0,0.0,0.0,0.32,0.309,0.0,0.0,0.0,0.0,0.0,0.0,0.0,0.0,0.0,0.0,0.0,0.0,0.0,0.0,0.0,0.0,0.0,0.0,0.0,0.0,0.0,0.0,0.0,0.0,0.0,0.0,0.0,0.0,0.0,0.0,0.0,0.0,0.0,0.0,0.0,0.0,0.0,0.0,0.0,0.0,0.0,0.0,0.0,0.0,0.0,0.0,0.0,0.0,0.0,0.0,0.0,0.0,0.0,0.0,0.0,0.5638,0.6607,0.7222,0.7475,0.8,0.8214,0.8081,0.8029,0.7683,0.0,0.0,0.0,0.0,0.0,0.0,0.0,0.0,0.0,0.0,0.0,0.0,0.0,0.0,0.0,0.0,0.0,0.0,0.0,0.0,0.0,0.0,0.0,0.0,0.0,0.0,0.0,0.0,0.0,0.0,0.0,0.0,0.0,0.0,0.0,0.0,0.0,0.0,0.0,0.0,0.0,0.3763,0.3402,0.4,0.0,0.0,0.0,0.0,0.4587,0.3689,0.0,0.0,0.0,0.0,0.0,0.0,0.0,0.0,0.0,0.0,0.0,0.0,0.0,0.0,0.0,0.0,0.0,0.0,0.0,0.0,0.0,0.0,0.0,0.0,0.0,0.0,0.0,0.0,0.0,0.0,0.0,0.0,0.0,0.0,0.0,0.0,0.0,0.0,0.0,0.0,0.0,0.0,0.0,0.0,0.0,0.0,0.0,0.0,0.0,0.0,0.0,0.0,0.0,0.0,0.0,0.0,0.5151,0.6708,0.7454,0.7364,0.8344,0.8708,0.8276,0.7918,0.7337,0.0,0.0,0.0,0.0,0.0,0.0,0.0,0.0,0.0,0.0,0.0,0.0,0.0,0.0,0.0,0.0,0.0,0.0,0.0,0.0,0.0,0.0,0.0,0.0,0.0,0.0,0.0,0.0,0.0,0.0,0.0,0.0,0.0,0.0,0.0,0.0,0.0,0.0,0.0,0.0,0.0,0.4221,0.4162,0.4356,0.4663,0.0,0.0,0.5206,0.4165,0.4154,0.0,0.0,0.0,0.0,0.0,0.0,0.0,0.0,0.0,0.0,0.0,0.0,0.0,0.0,0.0,0.0,0.0,0.0,0.0,0.0,0.0,0.0,0.0,0.0,0.0,0.0,0.0,0.0,0.0,0.0,0.0,0.0,0.0,0.0,0.0,0.0,0.0,0.0,0.0,0.0,0.0,0.0,0.0,0.0,0.0,0.0,0.0,0.0,0.0,0.0,0.0,0.0,0.0,0.0,0.0,0.4814,0.535,0.6696,0.7413,0.7499,0.8252,0.8475,0.8078,0.7641,0.6951,0.0,0.0,0.0,0.0,0.0,0.0,0.0,0.0,0.0,0.0,0.0,0.0,0.0,0.0,0.0,0.0,0.0,0.0,0.0,0.0,0.0,0.0,0.0,0.0,0.0,0.0,0.0,0.0,0.0,0.0,0.0,0.0,0.0,0.0,0.0,0.0,0.0,0.0,0.0,0.0,0.0,0.0,0.4743,0.4509,0.0,0.0,0.0,0.5249,0.5002,0.0,0.0,0.0,0.0,0.0,0.0,0.0,0.0,0.0,0.0,0.0,0.0,0.0,0.0,0.0,0.0,0.0,0.0,0.0,0.0,0.0,0.0,0.0,0.0,0.0,0.0,0.0,0.0,0.0,0.0,0.0,0.0,0.0,0.0,0.0,0.0,0.0,0.0,0.0,0.0,0.0,0.0,0.0,0.0,0.0,0.0,0.0,0.0,0.0,0.0,0.0,0.0,0.0,0.0,0.0,0.0,0.0,0.5522,0.6578,0.7261,0.7601,0.8174,0.831,0.7912,0.751,0.0,0.0,0.0,0.0,0.0,0.0,0.0,0.0,0.0,0.0,0.0,0.0,0.0,0.0,0.0,0.0,0.0,0.0,0.0,0.0,0.0,0.0,0.0,0.0,0.0,0.0,0.0,0.0,0.0,0.0,0.0,0.0,0.0,0.0,0.0,0.0,0.0,0.0,0.0,0.0,0.0,0.0,0.5179,0.507,0.478,0.4711,0.0,0.0,0.5144,0.5708,0.5042,0.4403,0.0,0.0,0.0,0.0,0.0,0.0,0.0,0.0,0.0,0.0,0.0,0.0,0.0,0.0,0.0,0.0,0.0,0.0,0.0,0.0,0.0,0.0,0.0,0.0,0.0,0.0,0.0,0.0,0.0,0.0,0.0,0.0,0.0,0.0,0.0,0.0,0.0,0.0,0.0,0.0,0.0,0.0,0.0,0.0,0.0,0.0,0.0,0.0,0.0,0.0,0.0,0.0,0.0,0.0,0.4528,0.5316,0.6373,0.712,0.7508,0.8333,0.851,0.7919,0.7684,0.7134,0.0,0.0,0.0,0.0,0.0,0.0,0.0,0.0,0.0,0.0,0.0,0.0,0.0,0.0,0.0,0.0,0.0,0.0,0.0,0.0,0.0,0.0,0.0,0.0,0.0,0.0,0.0,0.0,0.0,0.0,0.0,0.0,0.0,0.0,0.0,0.0,0.0,0.0,0.0,0.0,0.0,0.5612,0.5008,0.5369,0.5709,0.0,0.5215,0.5047,0.5678,0.5738,0.5309,0.4206,0.0,0.0,0.0,0.0,0.0,0.0,0.0,0.0,0.0,0.0,0.0,0.0,0.0,0.0,0.0,0.0,0.0,0.0,0.0,0.0,0.0,0.0,0.0,0.0,0.0,0.0,0.0,0.0,0.0,0.0,0.0,0.0,0.0,0.0,0.0,0.0,0.0,0.0,0.0,0.0,0.0,0.0,0.0,0.0,0.0,0.0,0.0,0.0,0.0,0.0,0.0,0.0,0.0,0.4106,0.4989,0.6059,0.6862,0.7431,0.8171,0.835,0.7912,0.7651,0.7079,0.0,0.0,0.0,0.0,0.0,0.0,0.0,0.0,0.0,0.0,0.0,0.0,0.0,0.0,0.0,0.0,0.0,0.0,0.0,0.0,0.0,0.0,0.0,0.0,0.0,0.0,0.0,0.0,0.0,0.0,0.0,0.0,0.0,0.0,0.0,0.0,0.0,0.0,0.0,0.0,0.0,0.5613,0.602,0.5725,0.0,0.0,0.5897,0.5648,0.4772,0.5289,0.5377,0.4137,0.4291,0.0,0.0,0.0,0.0,0.0,0.0,0.0,0.0,0.0,0.0,0.0,0.0,0.0,0.0,0.0,0.0,0.0,0.0,0.0,0.0,0.0,0.0,0.0,0.0,0.0,0.0,0.0,0.0,0.0,0.0,0.0,0.0,0.0,0.0,0.0,0.0,0.0,0.0,0.0,0.0,0.0,0.0,0.0,0.0,0.0,0.0,0.0,0.0,0.0,0.0,0.0,0.0,0.3814,0.4728,0.5718,0.6588,0.7298,0.8037,0.8217,0.7871,0.7692,0.7174,0.0,0.0,0.0,0.0,0.0,0.0,0.0,0.0,0.0,0.0,0.0,0.0,0.0,0.0,0.0,0.0,0.0,0.0,0.0,0.0,0.0,0.0,0.0,0.0,0.0,0.0,0.0,0.0,0.0443,0.0,0.0,0.0,0.0,0.0,0.0,0.0,0.0,0.0,0.0,0.0,0.0,0.5698,0.6404,0.6093,0.5885,0.6127,0.6586,0.6467,0.5223,0.5311,0.5142,0.4068,0.0,0.0,0.0,0.0,0.0,0.0,0.0,0.0,0.0,0.0,0.0,0.0,0.0,0.0,0.0,0.0,0.0,0.0,0.0,0.0,0.0,0.0,0.0,0.0,0.0,0.0,0.0,0.2596,0.0,0.0,0.2126,0.0,0.0,0.0,0.0,0.0,0.0,0.0,0.0,0.0,0.0,0.0,0.0,0.0,0.0,0.0,0.0,0.0,0.0,0.0,0.0,0.0,0.0,0.3671,0.4583,0.5466,0.6293,0.7079,0.7931,0.8165,0.7721,0.7814,0.745,0.6504,0.0,0.0,0.0,0.0,0.0,0.0,0.0,0.0,0.0,0.0,0.0,0.0,0.0,0.0,0.0,0.0,0.0,0.0,0.0,0.0,0.0,0.0,0.0,0.0,0.0,0.0,0.3472,0.1466,0.0,0.0,0.0,0.0,0.0,0.0,0.0,0.0,0.0,0.0,0.5347,0.5703,0.5944,0.5879,0.6477,0.6913,0.6954,0.7196,0.7432,0.7524,0.6042,0.4615,0.0,0.0,0.0,0.0,0.0,0.0,0.0,0.0,0.0,0.0,0.0,0.0,0.0,0.0,0.0,0.0,0.0,0.0,0.0,0.0,0.0,0.0,0.0,0.0,0.0,0.0,0.0,0.2685,0.2649,0.0,0.0,0.0,0.0,0.0,0.0,0.0,0.0,0.0,0.0,0.0,0.374,0.3839,0.0,0.0,0.0,0.0,0.0,0.0,0.0,0.0,0.0,0.0,0.0,0.0,0.3679,0.4525,0.5258,0.5998,0.674,0.761,0.7915,0.7572,0.778,0.739,0.6286,0.0,0.0,0.0,0.0,0.0,0.0,0.0,0.0,0.0,0.0,0.0,0.0,0.0,0.0,0.0,0.0,0.0,0.0,0.0,0.0,0.0,0.0,0.0,0.0,0.0,0.2692,0.0,0.0,0.0,0.0,0.0,0.0,0.0,0.0,0.0,0.0,0.0,0.5304,0.5958,0.6094,0.6232,0.6558,0.6828,0.6993,0.0,0.0,0.0,0.0,0.0,0.0,0.0,0.0,0.0,0.0,0.0,0.0,0.0,0.0,0.5473,0.5459,0.4597,0.3907,0.4064,0.0,0.0,0.0,0.0,0.0,0.0,0.0,0.0,0.0,0.0,0.0,0.0,0.0,0.0,0.2794,0.2791,0.275,0.0,0.0,0.0,0.0,0.0,0.0,0.0,0.0,0.4028,0.4135,0.4246,0.4306,0.4304,0.0,0.4404,0.411,0.0,0.0,0.0,0.0,0.0,0.0,0.0,0.0,0.3734,0.4373,0.5015,0.5707,0.6389,0.7289,0.7674,0.7493,0.7589,0.7147,0.6112,0.5973,0.5667,0.0,0.0,0.0,0.0,0.0,0.0,0.0,0.0,0.0,0.0,0.0,0.0,0.0,0.0,0.0,0.0,0.0,0.0,0.0,0.0,0.0,0.0,0.0,0.2546,0.0,0.0,0.0,0.0,0.0,0.0,0.0,0.0,0.0,0.3743,0.4531,0.543,0.6289,0.633,0.6448,0.6926,0.0,0.0,0.0,0.0,0.0,0.0,0.0,0.6249,0.516,0.5679,0.6248,0.6221,0.6486,0.6533,0.5906,0.0,0.0,0.5836,0.5278,0.4764,0.4609,0.4211,0.3886,0.3799,0.3717,0.3647,0.0,0.0,0.0,0.0,0.0,0.0,0.0,0.0,0.3009,0.3019,0.0,0.3027,0.0,0.0,0.0,0.0,0.3212,0.3329,0.0,0.0,0.4294,0.4392,0.4702,0.4573,0.4505,0.4501,0.4505,0.4392,0.4186,0.3957,0.0,0.0,0.0,0.0,0.0,0.0,0.3771,0.4126,0.4766,0.5381,0.5996,0.695,0.7489,0.7508,0.7328,0.6859,0.6075,0.5902,0.565,0.5236,0.4807,0.0,0.0,0.0,0.0,0.0,0.0,0.0,0.0,0.0,0.0,0.0,0.0,0.0,0.0,0.0,0.0,0.0,0.0,0.0,0.0,0.2366,0.0,0.0,0.0,0.0,0.0,0.0,0.0,0.0,0.0,0.0,0.4786,0.5147,0.5595,0.6334,0.0,0.0,0.0,0.0,0.7006,0.7033,0.7033,0.7033,0.7006,0.673,0.6639,0.6935,0.0,0.0,0.698,0.7356,0.7134,0.6058,0.6071,0.6231,0.5861,0.5766,0.5487,0.471,0.457,0.4474,0.4063,0.4,0.3989,0.3157,0.0,0.0,0.0,0.0,0.3303,0.3297,0.3256,0.3379,0.3441,0.3431,0.3431,0.0,0.0,0.0,0.0,0.0,0.0,0.3837,0.4409,0.4377,0.4519,0.485,0.4809,0.4789,0.4785,0.4789,0.4657,0.4429,0.4386,0.416,0.3741,0.0,0.0,0.0,0.0,0.4118,0.4339,0.465,0.5105,0.5704,0.6593,0.7304,0.779,0.7543,0.7091,0.6461,0.6247,0.5941,0.5501,0.5556,0.0,0.0,0.0,0.0,0.0,0.0,0.0,0.0,0.0,0.0,0.0,0.0,0.0,0.0,0.0,0.0,0.0,0.0,0.0,0.3008,0.2853,0.2539,0.0,0.0,0.0,0.0,0.0,0.0,0.0,0.0,0.0,0.5846,0.6019,0.6298,0.0,0.0,0.6474,0.6745,0.6929,0.7153,0.7586,0.7623,0.0,0.706,0.6928,0.6956,0.7238,0.6468,0.6107,0.6918,0.7366,0.7415,0.6748,0.5698,0.5071,0.5667,0.5803,0.5603,0.5051,0.4536,0.4268,0.4383,0.4261,0.4062,0.3535,0.4024,0.3803,0.3708,0.3689,0.371,0.371,0.366,0.3762,0.3795,0.3795,0.3795,0.3689,0.3468,0.3535,0.0,0.0,0.0,0.4053,0.4634,0.4636,0.4781,0.5047,0.5118,0.5086,0.4975,0.4972,0.488,0.4643,0.4639,0.4501,0.4225,0.0,0.0,0.4155,0.4236,0.428,0.4322,0.4582,0.4936,0.5481,0.6561,0.7379,0.7878,0.7749,0.7337,0.6633,0.6414,0.6141,0.5772,0.5783,0.5462,0.0,0.0,0.0,0.0,0.0,0.0,0.0,0.0,0.0,0.0,0.0,0.0216,0.0712,0.0,0.0,0.0,0.2938,0.3403,0.3573,0.3247,0.0,0.0,0.0,0.0,0.0,0.0,0.0,0.5371,0.5253,0.5439,0.6291,0.6248,0.6409,0.7068,0.6919,0.6793,0.7023,0.0,0.7682,0.7594,0.7775,0.7766,0.743,0.7153,0.7006,0.6999,0.6441,0.6167,0.6586,0.6927,0.6949,0.6437,0.5286,0.4494,0.5085,0.5636,0.5822,0.5193,0.4618,0.4318,0.4395,0.4317,0.4239,0.3905,0.4665,0.4202,0.4046,0.4148,0.4005,0.4056,0.4159,0.4162,0.4162,0.4162,0.4159,0.4059,0.3932,0.388,0.0,0.43,0.419,0.4436,0.501,0.5011,0.5122,0.5319,0.552,0.544,0.5169,0.5123,0.5042,0.4901,0.4792,0.4718,0.4697,0.4518,0.4361,0.4225,0.434,0.4332,0.4223,0.4531,0.4932,0.5414,0.6777,0.7618,0.7902,0.7905,0.7499,0.666,0.6409,0.6201,0.6016,0.5672,0.5315,0.4924,0.0,0.0,0.0,0.0,0.0,0.0,0.0,0.0,0.0,0.0,0.0,0.0,0.0,0.0,0.0,0.3771,0.0,0.4162,0.3615,0.0,0.0,0.0,0.4923,0.4917,0.494,0.5299,0.628,0.0,0.0,0.6383,0.6112,0.6073,0.681,0.7084,0.7291,0.7569,0.8152,0.8268,0.7125,0.7483,0.7854,0.779,0.7267,0.6671,0.6303,0.6097,0.5972,0.612,0.6081,0.5971,0.5571,0.4859,0.4308,0.4316,0.5338,0.5953,0.4965,0.4632,0.441,0.4164,0.424,0.435,0.3806,0.4752,0.4768,0.467,0.4561,0.4528,0.4534,0.4561,0.4561,0.4561,0.4561,0.4561,0.4492,0.4336,0.4224,0.4287,0.445,0.4425,0.4586,0.4929,0.5074,0.5255,0.5464,0.5535,0.5552,0.5477,0.5395,0.523,0.5052,0.5012,0.4941,0.4857,0.4697,0.4501,0.4206,0.4388,0.4382,0.4223,0.4419,0.5117,0.6263,0.7085,0.7618,0.7895,0.7905,0.7592,0.6926,0.6452,0.6199,0.6136,0.5634,0.5311,0.5192,0.4132,0.0,0.0,0.0,0.0,0.0,0.0,0.0,0.0,0.0,0.0525,0.1725,0.0,0.3069,0.0,0.4075,0.4905,0.5183,0.4369,0.0,0.0,0.5134,0.6013,0.6033,0.6013,0.611,0.638,0.6185,0.6413,0.7423,0.6526,0.5704,0.5496,0.6418,0.7207,0.7474,0.7476,0.7175,0.6373,0.6748,0.7437,0.7699,0.6731,0.5769,0.5384,0.5366,0.548,0.5701,0.5396,0.4925,0.436,0.4269,0.4271,0.4294,0.4605,0.4504,0.3849,0.3769,0.3933,0.393,0.3924,0.3967,0.3536,0.4612,0.4712,0.4704,0.4697,0.472,0.4732,0.473,0.4714,0.469,0.469,0.469,0.4681,0.4624,0.4545,0.455,0.4703,0.4656,0.4736,0.4963,0.5228,0.5414,0.5463,0.5613,0.565,0.5586,0.547,0.5351,0.5233,0.5162,0.5056,0.4978,0.4867,0.4643,0.4358,0.445,0.4447,0.4321,0.4692,0.5418,0.6561,0.7187,0.7618,0.7884,0.7905,0.7603,0.702,0.6606,0.6365,0.6352,0.5682,0.5309,0.5302,0.4677,0.3904,0.0,0.0,0.0,0.0,0.0,0.0,0.0,0.0,0.0,0.0,0.0,0.4136,0.4267,0.4812,0.5293,0.5656,0.5087,0.4709,0.4715,0.5705,0.641,0.641,0.641,0.641,0.6416,0.6784,0.7272,0.7797,0.7117,0.625,0.5426,0.5778,0.6236,0.6426,0.6182,0.5746,0.5336,0.5637,0.6344,0.7364,0.634,0.5349,0.5171,0.51,0.5071,0.5064,0.4657,0.4129,0.3638,0.366,0.3935,0.4208,0.4012,0.3707,0.3643,0.3601,0.3713,0.3802,0.3744,0.3793,0.3236,0.433,0.4379,0.4494,0.4714,0.4786,0.4809,0.4812,0.4783,0.4736,0.4736,0.4736,0.4797,0.4812,0.4746,0.4851,0.4968,0.4868,0.4876,0.5015,0.5404,0.5535,0.5413,0.5682,0.5755,0.5613,0.5498,0.5416,0.5392,0.5226,0.5127,0.5152,0.5016,0.4806,0.4559,0.4528,0.4508,0.4519,0.5007,0.5741,0.6588,0.7192,0.7618,0.7891,0.7905,0.7626,0.7026,0.674,0.6587,0.656,0.5836,0.539,0.5316,0.5309,0.4823,0.0,0.3727,0.0,0.0,0.0,0.0,0.0,0.0,0.0,0.0,0.4215,0.5001,0.5456,0.562,0.5741,0.5873,0.5771,0.5705,0.5724,0.6237,0.6595,0.6595,0.6595,0.6595,0.6595,0.7363,0.7901,0.7901,0.7714,0.7144,0.6087,0.5371,0.5117,0.5171,0.4924,0.4598,0.4491,0.4546,0.5281,0.6404,0.5968,0.5304,0.5267,0.5086,0.4773,0.4473,0.4034,0.3639,0.344,0.3423,0.3647,0.428,0.3866,0.3541,0.3862,0.3874,0.3778,0.3718,0.3702,0.3685,0.2997,0.4,0.4235,0.4426,0.4641,0.4872,0.4961,0.4982,0.4958,0.4947,0.495,0.4947,0.4961,0.4941,0.4958,0.4974,0.5015,0.4993,0.4993,0.5018,0.5407,0.5586,0.5591,0.5836,0.5908,0.5759,0.5616,0.5518,0.5395,0.5332,0.5351,0.5344,0.5165,0.4975,0.4833,0.0,0.0,0.0,0.5038,0.5714,0.6561,0.7192,0.7618,0.7884,0.7905,0.0,0.7026,0.674,0.6587,0.6593,0.6243,0.0,0.0,0.0,0.0,0.0,0.0,0.0,0.0,0.0,0.0,0.0,0.415,0.3627,0.3853,0.4435,0.4839,0.497,0.5748,0.6276,0.628,0.6256,0.6243,0.6289,0.705,0.7633,0.7633,0.7596,0.7608,0.7633,0.7781,0.7901,0.7848,0.7848,0.7461,0.6485,0.5559,0.4956,0.4979,0.4704,0.4487,0.4519,0.4656,0.4983,0.554,0.5434,0.5301,0.5268,0.5037,0.4734,0.4396,0.4014,0.3869,0.4004,0.4094,0.43,0.4957,0.4545,0.4118,0.4212,0.4204,0.4085,0.3766,0.3706,0.3617,0.2463,0.3478,0.3847,0.413,0.0,0.4555,0.4768,0.499,0.5151,0.5156,0.5097,0.5042,0.5018,0.5018,0.5018,0.5018,0.5018,0.5018,0.5018,0.5018,0.5404,0.5601,0.5634,0.5875,0.5952,0.5905,0.5694,0.5549,0.5471,0.5433,0.5395,0.5395,0.5284,0.5135,0.4887,0.4691,0.4569,0.4491,0.4983,0.5614,0.6372,0.6972,0.7469,0.7795,0.7732,0.0,0.0,0.0,0.0,0.0,0.0,0.0,0.0,0.0,0.0,0.5561,0.5196,0.4618,0.3848,0.4417,0.5181,0.5918,0.548,0.5189,0.5189,0.5444,0.5487,0.5226,0.5948,0.6461,0.6625,0.6498,0.652,0.6754,0.7221,0.7408,0.7122,0.7068,0.7068,0.7068,0.7068,0.7068,0.7041,0.6783,0.6453,0.6041,0.5664,0.5281,0.5089,0.4763,0.4491,0.4491,0.4598,0.4791,0.5042,0.5215,0.5301,0.5292,0.5098,0.493,0.4824,0.4507,0.4386,0.4694,0.4808,0.4933,0.5165,0.5018,0.4702,0.4471,0.4359,0.4231,0.4024,0.3842,0.3657,0.1782,0.2794,0.3269,0.3648,0.3932,0.4198,0.4587,0.5099,0.5307,0.0,0.0,0.5118,0.508,0.508,0.508,0.5067,0.5048,0.5048,0.5034,0.5018,0.5365,0.5562,0.5592,0.5863,0.5966,0.5979,0.5742,0.5603,0.5579,0.5453,0.5395,0.5395,0.5395,0.5213,0.4918,0.4641,0.4491,0.4519,0.4877,0.5391,0.6068,0.6642,0.7152,0.7582,0.7511,0.7359,0.7182,0.696,0.682,0.6757,0.6455,0.6513,0.6939,0.642,0.604,0.5952,0.5793,0.5529,0.52,0.5473,0.5847,0.638,0.641,0.641,0.641,0.641,0.6292,0.6019,0.6392,0.6772,0.7049,0.6832,0.6807,0.7182,0.7037,0.668,0.6009,0.5791,0.5709,0.5736,0.5704,0.5786,0.5873,0.5504,0.5144,0.5199,0.5363,0.5532,0.5199,0.4763,0.4491,0.4491,0.4515,0.4598,0.4791,0.5042,0.5215,0.5183,0.5119,0.5136,0.5236,0.5078,0.5022,0.5203,0.5238,0.5144,0.5207,0.5183,0.5052,0.4609,0.4423,0.4304,0.4282,0.3989,0.3757,0.1055,0.1905,0.2468,0.2989,0.3635,0.4098,0.4703,0.5354,0.5373,0.536,0.5341,0.5369,0.5361,0.5361,0.5361,0.5262,0.5205,0.5202,0.511,0.5021,0.5243,0.5443,0.5598,0.5806,0.5855,0.5807,0.5789,0.564,0.5446,0.5405,0.5395,0.5395,0.5395,0.5242,0.4921,0.4616,0.4491,0.4491,0.4791,0.5144,0.5597,0.6068,0.6611,0.7163,0.7275,0.7369,0.7449,0.7386,0.7283,0.7049,0.677,0.6756,0.6972,0.6907,0.6757,0.6588,0.6439,0.6334,0.6276,0.6701,0.6775,0.6447,0.641,0.641,0.641,0.641,0.6717,0.744,0.759,0.7724,0.7751,0.7674,0.7507,0.723,0.6681,0.5923,0.4959,0.4353,0.4098,0.412,0.3968,0.4262,0.471,0.472,0.4688,0.4639,0.4809,0.4736,0.468,0.4543,0.4491,0.4491,0.4491,0.4519,0.4601,0.4794,0.4932,0.4888,0.4909,0.5023,0.523,0.521,0.5182,0.5285,0.4936,0.4767,0.4904,0.4956,0.4858,0.4591,0.4483,0.4395,0.4379,0.4105,0.3918,0.0535,0.1372,0.1919,0.2452,0.3009,0.366,0.4257,0.4828,0.5087,0.5269,0.5464,0.544,0.5413,0.5413,0.5413,0.5344,0.5186,0.5186,0.5127,0.5021,0.5207,0.5323,0.5479,0.5747,0.5869,0.5742,0.5801,0.573,0.5532,0.5436,0.5395,0.5385,0.5238,0.5009,0.4792,0.4604,0.4491,0.4519,0.4684,0.4956,0.5281,0.5746,0.6215,0.6707,0.6799,0.6935,0.7072,0.7006,0.6925,0.6871,0.6667,0.6581,0.6653,0.688,0.7002,0.697,0.6873,0.6865,0.698,0.72,0.7025,0.6461,0.6661,0.6952,0.7188,0.7206,0.7411,0.7847,0.7901,0.7901,0.7901,0.7901,0.7805,0.7597,0.7051,0.6218,0.5073,0.4135,0.3715,0.3903,0.3852,0.3914,0.4351,0.4526,0.4647,0.4685,0.4617,0.4501,0.4494,0.4498,0.4491,0.4491,0.4491,0.4546,0.4605,0.4629,0.4736,0.4822,0.4873,0.4956,0.5073,0.5073,0.5014,0.4881,0.4656,0.4574,0.468,0.468,0.464,0.4624,0.4491,0.4412,0.4346,0.404,0.3765,-0.0045,0.0807,0.1211,0.1705,0.2289,0.2959,0.354,0.403,0.4563,0.5012,0.5321,0.5403,0.5453,0.5453,0.5453,0.5368,0.5281,0.5227,0.5151,0.5026,0.5168,0.5282,0.5359,0.567,0.5775,0.5686,0.5745,0.5711,0.5579,0.545,0.5395,0.5368,0.5098,0.4908,0.4789,0.4672,0.4593,0.4593,0.4675,0.4807,0.4959,0.534,0.5746,0.6122,0.6238,0.639,0.6571,0.6512,0.6533,0.6689,0.6725,0.6716,0.6637,0.6982,0.7207,0.7242,0.7278,0.7364,0.749,0.7472,0.7237,0.6784,0.7013,0.7406,0.7817,0.7901,0.7901,0.7901,0.7901,0.7901,0.7901,0.7901,0.7901,0.7875,0.744,0.6652,0.5626,0.4608,0.4001,0.4176,0.4047,0.3973,0.421,0.4446,0.4643,0.4763,0.4678,0.4604,0.4597,0.4638,0.4665,0.4515,0.4491,0.4519,0.4632,0.4574,0.4625,0.4787,0.4791,0.4791,0.4791,0.4791,0.4736,0.4574,0.4519,0.4491,0.4491,0.4491,0.4529,0.4565,0.4495,0.4405,0.4264,0.3965,0.3505,-0.0718,-0.0269,0.0045,0.0673,0.1525,0.2015,0.2552,0.3135,0.3985,0.4516,0.4851,0.5435,0.5692,0.5656,0.5648,0.5564,0.5402,0.5394,0.5233,0.5037,0.5018,0.5132,0.5285,0.5521,0.5578,0.554,0.5705,0.5664,0.5453,0.5409,0.5392,0.5375,0.5192,0.5066,0.5036,0.4938,0.487,0.484,0.4771,0.4659,0.4581,0.4715,0.4983,0.5391,0.5601,0.586,0.622,0.6355,0.6496,0.674,0.7347,0.7621,0.7375,0.7611,0.7671,0.7418,0.7645,0.785,0.7829,0.7697,0.763,0.773,0.7406,0.7424,0.7841,0.7901,0.7901,0.7901,0.7901,0.7901,0.7901,0.7901,0.7901,0.7875,0.744,0.6815,0.6141,0.5544,0.4851,0.3992,0.3946,0.3919,0.4015,0.4273,0.4478,0.4698,0.4833,0.4877,0.4891,0.5078,0.5006,0.4634,0.4491,0.4491,0.4519,0.4519,0.4515,0.457,0.4543,0.4543,0.457,0.4574,0.4519,0.4515,0.4491,0.4491,0.4491,0.4491,0.4484,0.4505,0.4484,0.4385,0.4118,0.3987,0.3661,-0.0987,-0.0583,-0.0448,0.0135,0.0942,0.121,0.1748,0.2556,0.3492,0.4117,0.452,0.5329,0.5688,0.5688,0.5688,0.5594,0.5435,0.5443,0.532,0.5118,0.505,0.5054,0.5132,0.5443,0.5533,0.5464,0.5666,0.5698,0.5545,0.544,0.5351,0.5226,0.5127,0.5059,0.4978,0.4945,0.4918,0.4887,0.4857,0.4752,0.4634,0.4682,0.4794,0.5038,0.523,0.5395,0.5664,0.5909,0.6171,0.6446,0.7197,0.767,0.7692,0.7817,0.7835,0.7724,0.7817,0.7901,0.7901,0.782,0.7808,0.7901,0.773,0.7705,0.7871,0.7901,0.7875,0.78,0.7842,0.7901,0.7907,0.7901,0.7901,0.7821,0.7408,0.6869,0.6255,0.5662,0.4984,0.4259,0.4066,0.4053,0.4132,0.4246,0.4475,0.4797,0.5079,0.5165,0.5218,0.5324,0.5115,0.4651,0.4491,0.4491,0.4491,0.4491,0.4491,0.4491,0.4491,0.4491,0.4491,0.4491,0.4491,0.4491,0.4491,0.4491,0.4491,0.4491,0.4487,0.4477,0.4375,0.4257,0.4039,0.416,0.3917,-0.1211,-0.0897,-0.0852,-0.0404,0.0224,0.0359,0.0897,0.1839,0.2911,0.3671,0.4208,0.5238,0.5688,0.5688,0.5688,0.5623,0.5502,0.5426,0.5344,0.5181,0.5069,0.5018,0.5054,0.5365,0.5469,0.5384,0.56,0.5637,0.5535,0.5457,0.5334,0.5206,0.5192,0.511,0.505,0.504,0.504,0.504,0.4972,0.4874,0.4788,0.472,0.473,0.4798,0.4901,0.4983,0.5089,0.534,0.5641,0.5932,0.6652,0.7246,0.7655,0.7821,0.7901,0.7901,0.7901,0.7901,0.7901,0.7901,0.7901,0.7901,0.7901,0.7901,0.7901,0.7901,0.7875,0.7773,0.772,0.7705,0.7841,0.7863,0.7901,0.7875,0.7434,0.6874,0.6255,0.5791,0.5287,0.4453,0.4194,0.4199,0.427,0.4328,0.445,0.4905,0.5216,0.5395,0.5351,0.5242,0.4958,0.458,0.4617,0.4668,0.4539,0.4491,0.4491,0.4491,0.4491,0.4491,0.4491,0.4491,0.4491,0.4491,0.4491,0.4491,0.4491,0.4491,0.4491,0.4464,0.4358,0.4207,0.4108,0.4267,0.4217,-0.1391,-0.1346,-0.1166,-0.1031,-0.0987,-0.0493,0.0,0.0718,0.224,0.3223,0.3803,0.5104,0.5688,0.5688,0.5688,0.5623,0.5508,0.5428,0.535,0.5192,0.5072,0.5018,0.5018,0.5201,0.5269,0.5246,0.5411,0.5475,0.5429,0.5402,0.5392,0.5378,0.5371,0.5375,0.5351,0.5344,0.5368,0.533,0.5189,0.5019,0.4908,0.4755,0.4666,0.4536,0.4519,0.457,0.4574,0.4688,0.4959,0.5332,0.5704,0.6255,0.7058,0.7595,0.7875,0.7875,0.7875,0.7901,0.7901,0.7901,0.7901,0.7901,0.7901,0.7901,0.7901,0.7901,0.7901,0.7875,0.7465,0.7328,0.7504,0.7711,0.7837,0.7769,0.741,0.6887,0.6257,0.6106,0.5669,0.4664,0.4284,0.4273,0.4298,0.4303,0.4467,0.4797,0.5163,0.5395,0.5334,0.4941,0.47,0.4735,0.4941,0.5181,0.4648,0.4563,0.4545,0.4491,0.4491,0.4491,0.4491,0.4491,0.4491,0.4491,0.4491,0.4491,0.4491,0.4491,0.4491,0.445,0.4338,0.4214,0.4171,0.406,0.4004,-0.1391,-0.1391,-0.1301,-0.1211,-0.1076,-0.0718,-0.0224,0.0538,0.215,0.3179,0.3803,0.5102,0.5688,0.5688,0.5688,0.5667,0.5607,0.5464,0.5385,0.5281,0.5105,0.5018,0.501,0.5125,0.5159,0.5163,0.5286,0.5387,0.5386,0.5395,0.5395,0.5395,0.5395,0.5395,0.5395,0.5395,0.5395,0.5388,0.5334,0.5162,0.4942,0.4863,0.4721,0.4508,0.4491,0.4491,0.4491,0.4632,0.4822,0.5034,0.5148,0.5609,0.6458,0.7079,0.7461,0.7628,0.7628,0.7714,0.7875,0.7901,0.7901,0.7901,0.7901,0.7901,0.7901,0.7901,0.7875,0.7753,0.7541,0.7274,0.6949,0.727,0.7476,0.7151,0.7225,0.7009,0.6347,0.5593,0.4831,0.44,0.4303,0.4303,0.4303,0.4303,0.4434,0.4731,0.4927,0.513,0.5342,0.5177,0.503,0.5081,0.5235,0.5324,0.5156,0.4863,0.4718,0.4569,0.4491,0.4498,0.4501,0.4525,0.4535,0.4494,0.4491,0.4518,0.4528,0.4556,0.4545,0.4515,0.4392,0.4301,0.4223,0.4062,0.3884,-0.1391,-0.1391,-0.1391,-0.1346,-0.1166,-0.0852,-0.0314,0.0448,0.2151,0.3178,0.3803,0.5102,0.5688,0.5688,0.5688,0.5688,0.5706,0.5483,0.5413,0.5388,0.5127,0.5018,0.5004,0.5043,0.5054,0.5138,0.5272,0.5369,0.5379,0.5437,0.5443,0.5399,0.5395,0.5395,0.5395,0.5395,0.5395,0.5395,0.5395,0.5237,0.5016,0.4958,0.487,0.4682,0.4609,0.4586,0.4498,0.4574,0.4684,0.4763,0.4763,0.5199,0.6132,0.6593,0.6837,0.6955,0.7225,0.7515,0.7848,0.7901,0.7901,0.7901,0.7901,0.7901,0.7901,0.7901,0.7854,0.7781,0.7814,0.7458,0.6762,0.6731,0.6729,0.6495,0.6505,0.6276,0.5756,0.4861,0.44,0.4336,0.4303,0.4303,0.4303,0.4303,0.4467,0.4761,0.4827,0.503,0.5329,0.5395,0.5395,0.5392,0.5368,0.5392,0.531,0.5153,0.4938,0.4758,0.4655,0.4617,0.4583,0.4597,0.4593,0.4532,0.4522,0.4552,0.4586,0.4624,0.4624,0.461,0.4538,0.4484,0.4294,0.4021,0.3928,-0.1391,-0.1391,-0.1391,-0.1392,-0.1301,-0.0897,-0.0448,0.0269,0.206,0.3133,0.3758,0.5102,0.5688,0.5688,0.5688,0.5688,0.5648,0.5494,0.5421,0.5388,0.5127,0.5018,0.5015,0.4988,0.5026,0.5067,0.5362,0.54,0.5328,0.5456,0.5501,0.5419,0.5395,0.5395,0.5395,0.5395,0.5395,0.5395,0.5395,0.5277,0.5117,0.5083,0.5005,0.4904,0.4884,0.4762,0.4528,0.4536,0.4539,0.4529,0.455,0.5042,0.5868,0.6159,0.6077,0.6032,0.6598,0.7306,0.7794,0.7848,0.7821,0.7901,0.7901,0.7901,0.7901,0.7901,0.7901,0.7909,0.822,0.8102,0.7083,0.6207,0.5848,0.6148,0.5418,0.4664,0.45,0.4367,0.4303,0.4303,0.4303,0.4303,0.4303,0.4303,0.4434,0.4697,0.4897,0.5066,0.5329,0.5395,0.5395,0.5395,0.5395,0.5395,0.5395,0.5368,0.5165,0.5003,0.4921,0.4842,0.4788,0.4752,0.4801,0.4764,0.4774,0.4808,0.488,0.487,0.4796,0.4765,0.4704,0.466,0.4521,0.4321,0.4143,-0.1455,-0.1394,-0.1458,-0.1454,-0.1347,-0.1076,-0.0628,0.0179,0.1878,0.2996,0.3801,0.5104,0.5688,0.5688,0.5688,0.5688,0.5675,0.5521,0.545,0.538,0.5127,0.5021,0.5004,0.4893,0.4902,0.4944,0.5038,0.5164,0.5262,0.5347,0.5406,0.5389,0.5395,0.5395,0.5395,0.5395,0.5395,0.5395,0.5395,0.5284,0.5117,0.51,0.5032,0.4938,0.4918,0.4833,0.4779,0.4706,0.4651,0.4616,0.4545,0.4656,0.5011,0.5367,0.5445,0.5312,0.5991,0.6837,0.7461,0.7467,0.7521,0.7788,0.7901,0.7901,0.7901,0.7875,0.7887,0.7988,0.8633,0.8835,0.7954,0.6613,0.5888,0.5918,0.496,0.43,0.4303,0.4303,0.4303,0.4303,0.4303,0.4303,0.4303,0.4303,0.44,0.4664,0.4797,0.4997,0.5296,0.5395,0.5395,0.5395,0.5395,0.5395,0.5395,0.5395,0.531,0.5182,0.5139,0.5047,0.4965,0.4938,0.4989,0.5013,0.503,0.5061,0.5136,0.5084,0.4989,0.4955,0.4914,0.4877,0.4843,0.4702,0.4554,-0.1476,-0.1424,-0.1477,-0.147,-0.1405,-0.1216,-0.0673,0.0179,0.1788,0.2904,0.3801,0.506,0.5688,0.5688,0.5688,0.5688,0.5675,0.5564,0.5485,0.5396,0.5175,0.5064,0.5018,0.4906,0.4906,0.4952,0.5012,0.5067,0.5147,0.5275,0.5321,0.5292,0.5359,0.5395,0.5395,0.5395,0.5395,0.5395,0.5392,0.5347,0.5237,0.5216,0.5172,0.5098,0.5084,0.5084,0.5074,0.4938,0.4802,0.4691,0.4573,0.4494,0.4519,0.4814,0.4928,0.4924,0.5441,0.6182,0.6761,0.6788,0.6896,0.7252,0.7574,0.7821,0.7848,0.7762,0.7639,0.787,0.8522,0.8964,0.8349,0.6942,0.5954,0.5789,0.503,0.4464,0.4367,0.4303,0.4303,0.4303,0.4303,0.4303,0.4303,0.4303,0.4367,0.4531,0.4661,0.493,0.5263,0.5395,0.5402,0.5402,0.5395,0.5395,0.5395,0.5395,0.5395,0.5368,0.5341,0.5259,0.5159,0.5145,0.5187,0.5228,0.5248,0.5231,0.5289,0.5214,0.5132,0.5136,0.5111,0.5153,0.5104,0.5101,0.4999,-0.1502,-0.1474,-0.1495,-0.1483,-0.1475,-0.1221,-0.0718,0.0179,0.1744,0.286,0.3757,0.5104,0.5688,0.5688,0.5688,0.5688,0.5669,0.5588,0.5499,0.5374,0.5243,0.514,0.5026,0.4963,0.4985,0.5024,0.514,0.513,0.497,0.5209,0.5374,0.5149,0.5259,0.5395,0.5395,0.5395,0.5395,0.5395,0.5395,0.5388,0.5378,0.5382,0.5378,0.5368,0.5361,0.5358,0.533,0.5165,0.4969,0.4721,0.4562,0.4518,0.4522,0.4522,0.4577,0.4605,0.5021,0.5423,0.5776,0.6069,0.616,0.6146,0.6815,0.7497,0.7456,0.7347,0.723,0.7234,0.7867,0.8344,0.8019,0.6909,0.5958,0.569,0.503,0.4564,0.4334,0.4303,0.4303,0.4303,0.4303,0.4303,0.4303,0.4303,0.43,0.4364,0.4528,0.4831,0.5229,0.5402,0.5426,0.5481,0.5576,0.5433,0.5446,0.5395,0.5395,0.5395,0.5395,0.5365,0.532,0.5317,0.5317,0.5368,0.5395,0.5395,0.5371,0.5293,0.5272,0.5289,0.5324,0.5382,0.5335,0.5251,0.525,-0.154,-0.1478,-0.1517,-0.1502,-0.1478,-0.1357,-0.0808,0.0134,0.1565,0.2771,0.3757,0.5104,0.5688,0.5688,0.5688,0.5688,0.5677,0.5653,0.5561,0.5429,0.5341,0.52,0.5053,0.5018,0.5018,0.5018,0.5087,0.5007,0.4929,0.502,0.5058,0.5096,0.516,0.5256,0.5392,0.5395,0.5395,0.5395,0.5395,0.5395,0.5395,0.5395,0.5395,0.5395,0.5395,0.5395,0.5382,0.5213,0.4996,0.4721,0.466,0.46,0.4515,0.459,0.4699,0.4838,0.5104,0.5262,0.5238,0.5526,0.5506,0.5081,0.5809,0.6175,0.6091,0.6902,0.6795,0.6412,0.6544,0.7167,0.7358,0.6609,0.569,0.4867,0.46,0.4434,0.4334,0.4303,0.4303,0.4303,0.4303,0.4303,0.4303,0.4314,0.4317,0.4353,0.4439,0.46,0.5063,0.5412,0.544,0.5822,0.5921,0.5655,0.5487,0.5426,0.5395,0.5395,0.5399,0.5402,0.5375,0.5368,0.5371,0.5395,0.5395,0.5395,0.5395,0.5358,0.5388,0.5362,0.5263,0.5196,0.5226,0.5193,0.5272,-0.1568,-0.1514,-0.1551,-0.1528,-0.1497,-0.1468,-0.0904,0.0135,0.1475,0.268,0.3757,0.5104,0.5688,0.5688,0.5688,0.5688,0.5688,0.5688,0.5627,0.5455,0.5336,0.5186,0.5053,0.5018,0.5018,0.5018,0.5018,0.495,0.4899,0.4865,0.49,0.4937,0.5052,0.5156,0.5256,0.5359,0.5395,0.5395,0.5395,0.5395,0.5395,0.5395,0.5395,0.5395,0.5395,0.5395,0.5378,0.5274,0.5114,0.4908,0.4808,0.4672,0.4528,0.4658,0.4833,0.506,0.5181,0.5098,0.5009,0.5177,0.5049,0.4737,0.5128,0.5188,0.5225,0.5984,0.605,0.5226,0.5594,0.6115,0.6412,0.6119,0.5425,0.4567,0.4303,0.4303,0.4303,0.4303,0.4303,0.4303,0.4303,0.4303,0.4306,0.4355,0.4412,0.442,0.4357,0.4562,0.4834,0.5162,0.5579,0.5972,0.6187,0.5962,0.5723,0.5624,0.5638,0.5614,0.5491,0.5481,0.544,0.5426,0.5395,0.5395,0.5395,0.5395,0.5395,0.5362,0.5259,0.5193,0.506,0.504,0.5079,0.5027,0.5107,-0.1592,-0.1564,-0.1584,-0.1554,-0.1523,-0.1446,-0.0868,0.018,0.152,0.2681,0.3758,0.506,0.5599,0.5688,0.5688,0.5688,0.5688,0.5688,0.5594,0.5472,0.5292,0.5108,0.5031,0.5018,0.5018,0.5018,0.5018,0.4942,0.4862,0.4868,0.4819,0.4818,0.4935,0.5076,0.5163,0.5292,0.5359,0.5395,0.5395,0.5395,0.5395,0.5395,0.5395,0.5395,0.5395,0.5395,0.5395,0.5375,0.5313,0.5123,0.4955,0.4706,0.4542,0.4641,0.4989,0.5252,0.516,0.5023,0.4962,0.4979,0.4894,0.4757,0.4833,0.4741,0.4705,0.5093,0.516,0.4597,0.496,0.5259,0.5395,0.5557,0.5263,0.45,0.4303,0.4345,0.4498,0.4487,0.4462,0.4311,0.4347,0.4403,0.4344,0.441,0.4583,0.4664,0.4558,0.4548,0.4873,0.5329,0.5758,0.6163,0.6269,0.6272,0.6047,0.5842,0.5887,0.5897,0.5699,0.561,0.5532,0.5491,0.5423,0.5395,0.5395,0.5395,0.5399,0.5329,0.5242,0.5119,0.5046,0.4971,0.4889,0.4782,0.4755,-0.1611,-0.1564,-0.1584,-0.1554,-0.1476,-0.126,-0.0594,0.0404,0.1566,0.2685,0.3717,0.4926,0.5463,0.5508,0.5644,0.5688,0.5688,0.5672,0.5621,0.539,0.5165,0.5056,0.5018,0.5018,0.5018,0.5018,0.5018,0.4917,0.4852,0.4795,0.4756,0.474,0.4789,0.4894,0.5066,0.5153,0.5256,0.5359,0.5395,0.5395,0.5395,0.5395,0.5395,0.5395,0.5395,0.5395,0.5395,0.5395,0.5378,0.527,0.5126,0.4801,0.4453,0.475,0.5126,0.5303,0.5347,0.5286,0.5243,0.5056,0.4994,0.5073,0.4938,0.4849,0.4704,0.4564,0.4631,0.4531,0.4564,0.46,0.4697,0.4873,0.4764,0.4434,0.4341,0.472,0.5569,0.588,0.5427,0.4825,0.4775,0.4897,0.4386,0.4558,0.4717,0.4838,0.4779,0.4649,0.4997,0.548,0.5819,0.6183,0.6296,0.6247,0.6073,0.5875,0.5915,0.6013,0.5855,0.5822,0.574,0.5617,0.5576,0.5487,0.5395,0.5423,0.5525,0.5441,0.5351,0.5191,0.5024,0.4956,0.4836,0.4645,0.4543,-0.1575,-0.1573,-0.1557,-0.1437,-0.1269,-0.0929,-0.0274,0.0674,0.1792,0.2776,0.3674,0.4746,0.5282,0.5416,0.5599,0.5688,0.5672,0.5621,0.5515,0.5306,0.5146,0.5075,0.5021,0.5018,0.5018,0.5018,0.5018,0.4936,0.4887,0.4812,0.4775,0.4708,0.4717,0.4779,0.4943,0.5054,0.519,0.5359,0.5395,0.5395,0.5395,0.5395,0.5395,0.5395,0.5395,0.5395,0.5395,0.5292,0.5256,0.5233,0.5218,0.5088,0.4795,0.5016,0.5266,0.5365,0.5395,0.5395,0.5328,0.5166,0.4944,0.4888,0.4816,0.475,0.4596,0.4398,0.4364,0.4434,0.4411,0.433,0.4473,0.4473,0.4451,0.4419,0.451,0.493,0.5616,0.6218,0.6522,0.5731,0.5365,0.4999,0.4748,0.4744,0.4807,0.4928,0.4955,0.4849,0.5049,0.55,0.5762,0.6067,0.6222,0.6205,0.6008,0.5895,0.5877,0.5947,0.5991,0.6013,0.6054,0.5907,0.576,0.5641,0.5528,0.5685,0.5752,0.5623,0.5402,0.5146,0.4998,0.4905,0.4843,0.4704,0.4651,-0.1478,-0.1478,-0.1478,-0.1273,-0.0927,-0.0462,0.0183,0.0988,0.2015,0.2911,0.3674,0.4565,0.5102,0.5327,0.5599,0.5688,0.565,0.5529,0.5407,0.5265,0.5162,0.5086,0.5029,0.5018,0.5018,0.5018,0.5018,0.501,0.498,0.4909,0.4795,0.4731,0.47,0.4749,0.4834,0.4957,0.5156,0.5359,0.5395,0.5395,0.5395,0.5395,0.5395,0.5395,0.5395,0.5359,0.5326,0.5223,0.512,0.5057,0.5193,0.5292,0.5292,0.5329,0.5292,0.5296,0.5263,0.5296,0.5326,0.5117,0.4785,0.4334,0.4525,0.4589,0.4398,0.4334,0.4334,0.43,0.4317,0.4417,0.4679,0.4591,0.4432,0.4473,0.4765,0.498,0.5171,0.598,0.6391,0.6558,0.5741,0.5179,0.4971,0.4901,0.495,0.4988,0.5007,0.5057,0.5251,0.5407,0.5601,0.5679,0.5757,0.6145,0.6069,0.5822,0.5819,0.5702,0.5832,0.5944,0.6018,0.5765,0.5558,0.571,0.5733,0.5861,0.5845,0.5692,0.5419,0.5143,0.4986,0.4968,0.4883,0.4818,0.4775,-0.1478,-0.1478,-0.1288,-0.099,-0.0463,0.0,0.0731,0.1618,0.224,0.2911,0.3676,0.4391,0.4879,0.5146,0.5508,0.5688,0.5676,0.5529,0.5388,0.5281,0.5165,0.5048,0.5026,0.5018,0.5018,0.5018,0.5018,0.5018,0.5015,0.4982,0.4849,0.4728,0.4698,0.4725,0.4754,0.4861,0.5027,0.5259,0.5329,0.5329,0.5329,0.5329,0.5329,0.5329,0.5329,0.5292,0.5156,0.512,0.5024,0.4864,0.4864,0.4897,0.4897,0.4897,0.4897,0.493,0.4964,0.5093,0.5226,0.496,0.4595,0.44,0.4367,0.44,0.4334,0.4303,0.4303,0.4303,0.4336,0.4466,0.4901,0.4708,0.4654,0.4706,0.4811,0.5015,0.5054,0.5287,0.5518,0.5699,0.5499,0.5393,0.5118,0.4985,0.4993,0.5002,0.501,0.5018,0.5096,0.5135,0.5174,0.5174,0.5174,0.5679,0.6096,0.5854,0.5667,0.5362,0.5428,0.5544,0.5544,0.5318,0.5255,0.5479,0.5728,0.5906,0.5857,0.5676,0.5401,0.5043,0.5021,0.4999,0.4966,0.4893,0.4923,-0.1386,-0.1248,-0.0924,-0.0505,0.0091,0.0774,0.1449,0.2021,0.2511,0.305,0.3631,0.4212,0.4701,0.5057,0.5463,0.5661,0.557,0.5491,0.5396,0.5273,0.5156,0.5067,0.5026,0.5018,0.5018,0.5018,0.5018,0.5018,0.5018,0.5015,0.4879,0.4744,0.469,0.4707,0.4686,0.4691,0.4861,0.506,0.5093,0.5093,0.5093,0.5093,0.5093,0.5093,0.5093,0.5027,0.496,0.4855,0.4791,0.4694,0.46,0.4564,0.4534,0.4534,0.4567,0.46,0.4697,0.4864,0.5027,0.4761,0.4528,0.4334,0.4303,0.4303,0.4303,0.4303,0.4303,0.4303,0.4303,0.4384,0.4597,0.4732,0.4836,0.4895,0.495,0.5004,0.5018,0.5018,0.5018,0.5018,0.5112,0.5176,0.5112,0.5012,0.5015,0.5018,0.5018,0.5018,0.5018,0.5018,0.5018,0.5018,0.5057,0.5407,0.5834,0.5673,0.5476,0.5207,0.5093,0.5249,0.5249,0.5132,0.5135,0.5301,0.5589,0.5757,0.5562,0.5251,0.5096,0.5018,0.5002,0.4993,0.5007,0.5015,0.5018,-0.1121,-0.0852,-0.0404,0.0135,0.0762,0.1525,0.2065,0.2379,0.2739,0.3141,0.3631,0.4121,0.4567,0.5013,0.5408,0.5637,0.5537,0.5508,0.5396,0.5265,0.5159,0.5089,0.504,0.5018,0.5018,0.5018,0.5018,0.5018,0.5018,0.5018,0.4874,0.4753,0.469,0.4672,0.461,0.4625,0.4691,0.4761,0.4794,0.4794,0.4794,0.4794,0.4794,0.4794,0.4794,0.4794,0.4761,0.4691,0.4625,0.4528,0.4431,0.4336,0.4303,0.4303,0.4303,0.4336,0.4567,0.4667,0.4664,0.4595,0.4428,0.43,0.43,0.4303,0.4303,0.4303,0.4303,0.4303,0.4371,0.4395,0.4547,0.4667,0.4833,0.4928,0.4953,0.5018,0.5018,0.5018,0.5018,0.5018,0.5018,0.5018,0.5018,0.5018,0.5018,0.5018,0.5018,0.5018,0.5018,0.5018,0.5018,0.5018,0.5096,0.5329,0.5485,0.5368,0.5249,0.5132,0.5018,0.5093,0.5096,0.5018,0.5096,0.5174,0.5174,0.529,0.5057,0.5018,0.5018,0.5018,0.5018,0.5018,0.5018,0.5018,0.5018,-0.0538,-0.009,0.0179,0.0807,0.1615,0.2019,0.2424,0.2785,0.2875,0.3187,0.3631,0.4078,0.4567,0.5057,0.5508,0.5677,0.561,0.551,0.5398,0.535,0.5156,0.5059,0.5021,0.5018,0.5018,0.5018,0.5018,0.5018,0.5018,0.5018,0.4898,0.475,0.4718,0.468,0.458,0.4567,0.4658,0.4761,0.4761,0.4761,0.4761,0.4761,0.4761,0.4761,0.4761,0.4728,0.4628,0.4558,0.4528,0.4367,0.4334,0.4303,0.4303,0.4303,0.4303,0.4303,0.4334,0.4367,0.437,0.4364,0.4384,0.4319,0.4311,0.4303,0.4376,0.4387,0.4382,0.4308,0.4482,0.4638,0.461,0.4493,0.4583,0.4716,0.4909,0.4985,0.5018,0.5018,0.5018,0.5018,0.5018,0.5018,0.5018,0.5018,0.5018,0.5018,0.5018,0.5018,0.5018,0.5018,0.5018,0.5018,0.5018,0.5212,0.529,0.5135,0.5096,0.5018,0.5018,0.5018,0.5018,0.5018,0.5018,0.5057,0.5018,0.5018,0.5018,0.5018,0.5018,0.5018,0.5018,0.5018,0.5018,0.5018,0.5018,0.0593,0.073,0.1096,0.1542,0.202,0.2424,0.2694,0.2875,0.292,0.3142,0.3631,0.4076,0.4701,0.5327,0.5644,0.5688,0.5648,0.5499,0.5428,0.5349,0.5195,0.5078,0.5029,0.5018,0.5018,0.5018,0.5018,0.5018,0.5018,0.5002,0.492,0.4773,0.4717,0.4649,0.4572,0.4465,0.4473,0.4498,0.4498,0.4531,0.4531,0.4498,0.4498,0.4498,0.4531,0.4498,0.4464,0.4428,0.44,0.4303,0.4303,0.4303,0.4303,0.4303,0.4303,0.4311,0.4473,0.4468,0.4327,0.4311,0.4352,0.4353,0.4356,0.4423,0.4602,0.4686,0.4689,0.468,0.4795,0.4844,0.4806,0.4673,0.4632,0.4728,0.4887,0.4958,0.5018,0.5018,0.5018,0.5018,0.5018,0.5018,0.5018,0.5018,0.5018,0.5018,0.5018,0.5018,0.5018,0.5018,0.5018,0.5018,0.5018,0.5057,0.5096,0.5057,0.5057,0.5018,0.5018,0.5018,0.5018,0.5018,0.5018,0.5018,0.5018,0.5018,0.5018,0.5018,0.5018,0.5018,0.5018,0.5018,0.5018,0.5018,0.5018,0.1804,0.1665,0.1898,0.2104,0.238,0.2784,0.2875,0.292,0.292,0.3142,0.3631,0.4166,0.4882,0.5463,0.5599,0.5641,0.5675,0.5534,0.5466,0.5349,0.5222,0.5094,0.5037,0.5018,0.5018,0.5018,0.5018,0.5018,0.5018,0.5004,0.4914,0.4798,0.4751,0.4673,0.4564,0.4484,0.4475,0.4422,0.4353,0.4336,0.4334,0.4334,0.4336,0.4303,0.4303,0.4303,0.4303,0.43,0.4303,0.4303,0.4303,0.4303,0.4303,0.4303,0.4355,0.4404,0.4572,0.4537,0.4452,0.4465,0.4458,0.449,0.4501,0.4605,0.4896,0.5018,0.5012,0.492,0.4974,0.4996,0.498,0.4871,0.4832,0.4817,0.4917,0.4974,0.5018,0.5018,0.5018,0.5018,0.5018,0.5018,0.5018,0.5018,0.5018,0.5018,0.5018,0.5018,0.5018,0.5018,0.5018,0.5018,0.5018,0.5018,0.5018,0.5018,0.5018,0.5018,0.5018,0.5018,0.5018,0.5018,0.5018,0.5018,0.5018,0.5018,0.5018,0.5018,0.5018,0.5018,0.5018,0.5018,0.5018,0.5018,0.5018,0.2912,0.2819,0.236,0.2425,0.283,0.2875,0.292,0.292,0.292,0.3141,0.3676,0.4304,0.4884,0.5329,0.5463,0.5552,0.5677,0.5488,0.5407,0.5306,0.5154,0.5059,0.5023,0.5018,0.5018,0.5018,0.5018,0.5018,0.5018,0.5018,0.4906,0.4809,0.4809,0.4738,0.4698,0.4627,0.4564,0.4495,0.4393,0.4344,0.4333,0.4325,0.4317,0.4311,0.4306,0.4303,0.4303,0.4303,0.4319,0.4319,0.4308,0.4303,0.4303,0.4387,0.4482,0.4583,0.4616,0.4626,0.4602,0.4618,0.4651,0.469,0.4744,0.4787,0.4988,0.5018,0.5018,0.5018,0.5018,0.5018,0.5015,0.4993,0.4934,0.4942,0.4966,0.4985,0.5018,0.5018,0.5018,0.5018,0.5018,0.5018,0.5018,0.5018,0.5018,0.5018,0.5018,0.5018,0.5018,0.5018,0.5018,0.5018,0.5018,0.5018,0.5018,0.5018,0.5018,0.5018,0.5018,0.5018,0.5018,0.5018,0.5018,0.5018,0.5018,0.5018,0.5018,0.5018,0.5018,0.5018,0.5018,0.5018,0.5018,0.5018,0.5018,0.2985,0.2909,0.276,0.279,0.292,0.292,0.292,0.292,0.292,0.3187,0.3631,0.4212,0.4701,0.5102,0.5371,0.5508,0.5667,0.5524,0.5453,0.5339,0.5208,0.5091,0.505,0.5018,0.5018,0.5018,0.5018,0.5018,0.5018,0.5018,0.5002,0.4901,0.4839,0.4782,0.4762,0.4739,0.4668,0.4632,0.4577,0.455,0.4536,0.4468,0.4438,0.4438,0.4319,0.4306,0.4303,0.4303,0.4341,0.4402,0.4341,0.433,0.4387,0.4556,0.467,0.4731,0.4735,0.4776,0.4743,0.4705,0.4692,0.4734,0.4809,0.495,0.5015,0.5018,0.5018,0.5018,0.5018,0.5018,0.5018,0.5015,0.5002,0.5015,0.5018,0.5018,0.5018,0.5018,0.5018,0.5018,0.5018,0.5018,0.5018,0.5018,0.5018,0.5018,0.5018,0.5018,0.5018,0.5018,0.5018,0.5018,0.5018,0.5018,0.5018,0.5018,0.5018,0.5018,0.5018,0.5018,0.5018,0.5018,0.5018,0.5018,0.5018,0.5018,0.5018,0.5018,0.5018,0.5018,0.5018,0.5018,0.5018,0.5018,0.5018,0.2956,0.288,0.2962,0.2957,0.2921,0.292,0.292,0.292,0.292,0.3141,0.3631,0.4076,0.4565,0.4966,0.5191,0.5463,0.5612,0.5556,0.548,0.5358,0.5238,0.5127,0.5053,0.5018,0.5018,0.5018,0.5018,0.5018,0.5018,0.5018,0.501,0.4982,0.4903,0.4863,0.4866,0.4776,0.4708,0.4705,0.4703,0.4692,0.4668,0.461,0.4561,0.4542,0.442,0.4368,0.4349,0.4338,0.436,0.4451,0.4471,0.442,0.4548,0.4713,0.4871,0.4871,0.4852,0.4917,0.4839,0.4822,0.4802,0.4819,0.4901,0.4993,0.5018,0.5018,0.5018,0.5018,0.5018,0.5018,0.5018,0.5018,0.5018,0.5018,0.5018,0.5018,0.5018,0.5018,0.5018,0.5018,0.5018,0.5018,0.5018,0.5018,0.5018,0.5018,0.5018,0.5018,0.5018,0.5018,0.5018,0.5018,0.5018,0.5018,0.5018,0.5018,0.5018,0.5018,0.5018,0.5018,0.5018,0.5018,0.5018,0.5018,0.5018,0.5018,0.5018,0.5018,0.5018,0.5018,0.5018,0.5018,0.5018,0.5018,0.5018,0.2877,0.292,0.2922,0.2877,0.292,0.292,0.292,0.292,0.292,0.3187,0.3633,0.4076,0.4565,0.4921,0.5099,0.5371,0.5622,0.5572,0.5496,0.5368,0.5271,0.514,0.5053,0.5018,0.5018,0.5018,0.5018,0.5018,0.5018,0.5018,0.5018,0.5018,0.4955,0.4949,0.4957,0.4855,0.4798,0.4779,0.4764,0.4742,0.4731,0.4712,0.4687,0.466,0.4602,0.4541,0.449,0.4475,0.4508,0.4555,0.461,0.4632,0.4725,0.4871,0.4982,0.4988,0.4866,0.4887,0.498,0.4993,0.4972,0.4953,0.4999,0.5012,0.5018,0.5018,0.5018,0.5018,0.5018,0.5018,0.5018,0.5018,0.5018,0.5018,0.5018,0.5018,0.5018,0.5018,0.5018,0.5018,0.5018,0.5018,0.5018,0.5018,0.5018,0.5018,0.5018,0.5018,0.5018,0.5018,0.5018,0.5018,0.5018,0.5018,0.5018,0.5018,0.5018,0.5018,0.5018,0.5018,0.5018,0.5018,0.5018,0.5018,0.5018,0.5018,0.5018,0.5018,0.5018,0.5018,0.5018,0.5018,0.5018,0.5018,0.5018,0.292,0.292,0.292,0.292,0.292,0.292,0.292,0.292,0.3051,0.3274,0.3631,0.4076,0.4565,0.4921,0.5191,0.5419,0.563,0.5664,0.5586,0.5418,0.5314,0.5184,0.5078,0.5018,0.5018,0.5018,0.5018,0.5018,0.5018,0.5018,0.5018,0.5018,0.5018,0.5018,0.501,0.4966,0.4917,0.4911,0.4915,0.4896,0.4882,0.4817,0.4773,0.4768,0.4804,0.481,0.4731,0.4739,0.4779,0.4756,0.4809,0.4789,0.4902,0.5046,0.5012,0.5018,0.4939,0.4958,0.501,0.5012,0.5015,0.5018,0.5018,0.5018,0.5018,0.5018,0.5018,0.5018,0.5018,0.5018,0.5018,0.5018,0.5018,0.5018,0.5018,0.5018,0.5018,0.5018,0.5018,0.5018,0.5018,0.5018,0.5018,0.5018,0.5018,0.5018,0.5018,0.5018,0.5018,0.5018,0.5018,0.5018,0.5018,0.5018,0.5018,0.5018,0.5018,0.5018,0.5018,0.5018,0.5018,0.5018,0.5018,0.5018,0.5018,0.5018,0.5018,0.5018,0.5018,0.5018,0.5018,0.5018,0.5018,0.5018,0.5018,0.292,0.292,0.292,0.292,0.292,0.292,0.292,0.2963,0.3184,0.3496,0.3764,0.421,0.4701,0.5102,0.5327,0.5508,0.5688,0.5683,0.56,0.5438,0.541,0.5216,0.5083,0.5018,0.5018,0.5018,0.5018,0.5018,0.5018,0.5018,0.5018,0.5018,0.5018,0.5018,0.5015,0.501,0.5007,0.4963,0.4985,0.4991,0.4977,0.4942,0.4936,0.5052,0.5127,0.5225,0.514,0.5137,0.5183,0.5098,0.4956,0.5001,0.5204,0.521,0.5171,0.5171,0.5054,0.5054,0.5018,0.5018,0.5018,0.5018,0.5018,0.5018,0.5018,0.5018,0.5018,0.5018,0.5018,0.5059,0.508,0.5072,0.5069,0.5072,0.5069,0.5072,0.5042,0.5045,0.5053,0.5048,0.5021,0.5021,0.5018,0.5018,0.5018,0.5018,0.5018,0.5018,0.5018,0.5018,0.5018,0.5018,0.5018,0.5018,0.5018,0.5018,0.5018,0.5018,0.5018,0.5018,0.5018,0.5018,0.5018,0.5018,0.5018,0.5018,0.5018,0.5018,0.5018,0.5018,0.5018,0.5018,0.5018,0.5018,0.5018,0.292,0.292,0.292,0.292,0.292,0.292,0.292,0.2964,0.3408,0.3719,0.3983,0.448,0.4926,0.5327,0.5416,0.5508,0.5644,0.5688,0.5575,0.5431,0.5416,0.5205,0.5086,0.5018,0.5018,0.5018,0.5018,0.5018,0.5018,0.5018,0.5018,0.5018,0.5018,0.5018,0.5057,0.5132,0.5096,0.5057,0.5054,0.5054,0.5002,0.5002,0.5134,0.5331,0.561,0.5816,0.5777,0.5771,0.5775,0.5556,0.5197,0.5551,0.5692,0.5512,0.5592,0.5437,0.5207,0.5054,0.5018,0.5018,0.5018,0.5018,0.5018,0.5018,0.5018,0.5018,0.5018,0.5018,0.5023,0.5121,0.5229,0.5181,0.517,0.517,0.5167,0.514,0.5054,0.5049,0.5099,0.5083,0.5,0.5023,0.5018,0.5018,0.5042,0.5018,0.5018,0.5018,0.5018,0.5018,0.5018,0.5018,0.5018,0.5018,0.5018,0.5018,0.5018,0.5018,0.5018,0.5018,0.5018,0.5057,0.5174,0.521,0.5057,0.5018,0.5018,0.5018,0.5018,0.5018,0.5018,0.5018,0.5018,0.5018,0.5018,0.292,0.292,0.292,0.292,0.292,0.292,0.292,0.2964,0.3409,0.381,0.4208,0.4701,0.5149,0.5599,0.5599,0.5644,0.5688,0.57,0.5567,0.5458,0.5427,0.5216,0.5105,0.504,0.5026,0.5026,0.5029,0.5031,0.5023,0.5021,0.5018,0.5018,0.5018,0.5054,0.5246,0.5515,0.5323,0.521,0.5207,0.5168,0.5129,0.5168,0.5398,0.5761,0.6165,0.6388,0.6511,0.6459,0.6469,0.6394,0.5759,0.5938,0.6984,0.683,0.6672,0.5285,0.5054,0.5018,0.5018,0.5018,0.5021,0.5023,0.4987,0.5018,0.5018,0.5029,0.5031,0.5042,0.5034,0.5108,0.5287,0.5347,0.5341,0.5339,0.5355,0.5371,0.5294,0.53,0.5289,0.5132,0.5086,0.5045,0.504,0.5064,0.508,0.504,0.5018,0.5018,0.5018,0.5018,0.5018,0.5018,0.5018,0.5018,0.5018,0.5018,0.5018,0.5018,0.5018,0.5018,0.5018,0.5135,0.5365,0.5365,0.5174,0.5057,0.5018,0.5018,0.5018,0.5021,0.5021,0.5021,0.5018,0.5023,0.5029,0.292,0.292,0.292,0.292,0.292,0.292,0.292,0.3008,0.3409,0.3855,0.4344,0.4788,0.5235,0.5644,0.5688,0.5688,0.5688,0.568,0.5624,0.5502,0.5434,0.533,0.5214,0.5148,0.5173,0.5146,0.5108,0.5097,0.5069,0.5031,0.5018,0.5018,0.5018,0.5129,0.5359,0.5667,0.5822,0.5631,0.5515,0.5476,0.5476,0.5476,0.5786,0.6209,0.6676,0.698,0.7249,0.7211,0.7361,0.7207,0.6483,0.6556,0.7403,0.7407,0.6637,0.5404,0.521,0.5132,0.5062,0.5069,0.5053,0.505,0.508,0.5137,0.5108,0.5099,0.5102,0.5108,0.5078,0.5108,0.5339,0.5529,0.5532,0.5534,0.5589,0.5646,0.5607,0.5613,0.5483,0.5243,0.5143,0.5094,0.5091,0.5124,0.5127,0.5099,0.5056,0.5018,0.5018,0.5018,0.5018,0.5018,0.5018,0.5018,0.5018,0.5018,0.5018,0.5057,0.5129,0.5129,0.5096,0.5174,0.5404,0.5365,0.5251,0.5135,0.5018,0.5018,0.5018,0.5023,0.505,0.5086,0.5075,0.504,0.5048,0.292,0.292,0.292,0.292,0.292,0.2918,0.2918,0.2964,0.3454,0.39,0.4342,0.4788,0.5235,0.5644,0.5688,0.5688,0.5688,0.5683,0.5621,0.5508,0.5481,0.5436,0.536,0.5402,0.5303,0.5342,0.5309,0.5186,0.5146,0.5083,0.5018,0.5018,0.5018,0.5132,0.5398,0.6015,0.6244,0.6286,0.6247,0.6209,0.6015,0.6054,0.6209,0.6714,0.7176,0.7633,0.7936,0.8203,0.8432,0.7859,0.7399,0.7284,0.7591,0.7518,0.6483,0.5828,0.5595,0.5287,0.5162,0.5102,0.5165,0.5173,0.5186,0.529,0.5292,0.5124,0.5089,0.5224,0.5233,0.5246,0.544,0.5608,0.5643,0.5643,0.5673,0.5656,0.5659,0.5648,0.5548,0.5352,0.5148,0.5127,0.5271,0.5311,0.5317,0.523,0.5091,0.5031,0.508,0.508,0.514,0.5127,0.5042,0.5042,0.5018,0.5018,0.5018,0.5054,0.5168,0.5285,0.5249,0.5326,0.5482,0.5329,0.5135,0.5096,0.5018,0.5018,0.5023,0.5034,0.5075,0.5154,0.5151,0.5118,0.5137,0.292,0.292,0.292,0.292,0.292,0.305,0.3139,0.3183,0.3633,0.4034,0.4344,0.4788,0.528,0.5644,0.5688,0.5688,0.5688,0.5683,0.5613,0.5551,0.5521,0.5483,0.5407,0.5417,0.5438,0.5405,0.5366,0.5279,0.5197,0.5102,0.5026,0.4987,0.504,0.521,0.5617,0.6306,0.6767,0.6945,0.7119,0.7007,0.6813,0.6644,0.6714,0.7296,0.7799,0.8094,0.8358,0.857,0.8637,0.8399,0.771,0.7825,0.8394,0.7936,0.7284,0.6595,0.6103,0.5646,0.5252,0.5196,0.5366,0.539,0.5442,0.5485,0.5415,0.5127,0.5084,0.5306,0.5439,0.5467,0.5532,0.5623,0.5688,0.5688,0.5688,0.5688,0.5688,0.5656,0.5615,0.5419,0.5216,0.5265,0.542,0.5477,0.5483,0.5352,0.5132,0.5061,0.5203,0.5271,0.545,0.5412,0.5135,0.508,0.5042,0.5034,0.5042,0.5101,0.5207,0.5285,0.5443,0.5637,0.5792,0.529,0.5018,0.5064,0.5078,0.5021,0.5029,0.5037,0.5124,0.5211,0.5281,0.5273,0.5298,0.292,0.292,0.292,0.292,0.2918,0.3094,0.327,0.3451,0.39,0.4255,0.461,0.4921,0.528,0.5644,0.5688,0.5688,0.5688,0.5688,0.5659,0.5607,0.5572,0.5561,0.5551,0.5515,0.5548,0.5529,0.5461,0.539,0.5271,0.523,0.5186,0.5205,0.5242,0.5536,0.5975,0.6695,0.7285,0.7569,0.7906,0.7905,0.7663,0.7506,0.7433,0.7944,0.8325,0.8624,0.8749,0.893,0.8874,0.8774,0.8304,0.825,0.8508,0.828,0.7974,0.7581,0.6991,0.6084,0.5523,0.5419,0.5681,0.5677,0.5621,0.5632,0.5638,0.5381,0.5317,0.5474,0.5575,0.5605,0.5607,0.5675,0.5688,0.5688,0.5688,0.5688,0.5688,0.5675,0.5659,0.5594,0.5488,0.5496,0.5608,0.5621,0.5627,0.5613,0.5327,0.5227,0.5339,0.542,0.5619,0.5637,0.539,0.5137,0.5037,0.505,0.5083,0.5134,0.5215,0.5572,0.5811,0.607,0.6103,0.5756,0.5431,0.5205,0.5195,0.5124,0.5042,0.4995,0.5148,0.5279,0.5347,0.5423,0.548,0.292,0.292,0.292,0.292,0.2918,0.3184,0.3406,0.3676,0.4166,0.461,0.5013,0.5055,0.5327,0.5599,0.5688,0.5688,0.5688,0.5688,0.568,0.568,0.5675,0.5642,0.5645,0.5664,0.5645,0.5602,0.5534,0.5494,0.5393,0.5347,0.5366,0.5491,0.5723,0.6014,0.6536,0.7165,0.7767,0.8116,0.8427,0.8692,0.8549,0.8347,0.8282,0.852,0.8898,0.9188,0.9211,0.9202,0.9098,0.9004,0.8804,0.873,0.8712,0.8615,0.8665,0.839,0.7878,0.6831,0.6005,0.6065,0.5995,0.5846,0.5761,0.5688,0.5727,0.5676,0.5567,0.5586,0.5642,0.568,0.568,0.5683,0.5686,0.5688,0.5688,0.551,0.551,0.5555,0.5555,0.5599,0.5677,0.5661,0.5669,0.5686,0.5688,0.5688,0.5687,0.5583,0.5521,0.5564,0.5632,0.5688,0.5567,0.5324,0.5181,0.5083,0.5135,0.5193,0.5355,0.5791,0.6192,0.6451,0.6525,0.6431,0.6093,0.5805,0.5457,0.5292,0.5207,0.5131,0.5203,0.5396,0.5436,0.5523,0.5646,0.292,0.292,0.292,0.292,0.2963,0.3318,0.363,0.3896,0.4391,0.4882,0.5238,0.5327,0.5463,0.5688,0.5688,0.5688,0.5688,0.5688,0.5688,0.5688,0.5688,0.5688,0.5688,0.5688,0.5688,0.5648,0.5586,0.5508,0.551,0.5436,0.5507,0.565,0.6136,0.6529,0.7046,0.7661,0.8297,0.8617,0.8873,0.9149,0.9072,0.8905,0.8869,0.9064,0.9316,0.9338,0.9333,0.9385,0.9324,0.9253,0.9204,0.902,0.8948,0.8995,0.9079,0.9034,0.8539,0.7862,0.7271,0.6902,0.6684,0.5794,0.5688,0.5688,0.5686,0.5686,0.5665,0.5665,0.5686,0.5686,0.5686,0.5641,0.5644,0.5644,0.5644,0.5062,0.4703,0.4926,0.506,0.5374,0.5686,0.568,0.568,0.5688,0.5688,0.5688,0.5688,0.5646,0.5635,0.5689,0.5688,0.5688,0.5688,0.5686,0.5551,0.5238,0.5221,0.5272,0.5489,0.5949,0.6386,0.6786,0.6843,0.6753,0.6675,0.6471,0.612,0.561,0.5487,0.5445,0.5409,0.5481,0.5505,0.5551,0.565]}]]